Wetterdaten: Donnerstag, 08.12.2016
Datum Zeit Temp. A. Feuchte A. Luftdruck Regen Wind Richtung Richtung Sonnenschein ET UV Solar Taupunkt Windchill Windben Empfang
08.12.2016 00:00 -2,4 C 98 % 1037,5 hPa 0,0 l/m 0,6 km/h (0 Bft) W 267 0 min 0,000 mm 0,0 UV-I 0 W/m -2,7 C -2,4 C 1,6 km/h (1 Bft) 98,11 %
08.12.2016 00:02 -2,4 C 98 % 1037,6 hPa 0,0 l/m 2,6 km/h (1 Bft) W 267 0 min 0,000 mm 0,0 UV-I 0 W/m -2,7 C -2,4 C 4,8 km/h (1 Bft) 95,65 %
08.12.2016 00:04 -2,4 C 98 % 1037,6 hPa 0,0 l/m 4,7 km/h (1 Bft) W 268 0 min 0,000 mm 0,0 UV-I 0 W/m -2,7 C -2,4 C 9,7 km/h (2 Bft) 97,87 %
08.12.2016 00:06 -2,4 C 98 % 1037,6 hPa 0,0 l/m 5,1 km/h (1 Bft) W 264 0 min 0,000 mm 0,0 UV-I 0 W/m -2,7 C -2,4 C 9,7 km/h (2 Bft) 97,14 %
08.12.2016 00:08 -2,4 C 98 % 1037,5 hPa 0,0 l/m 0,6 km/h (0 Bft) W 264 0 min 0,000 mm 0,0 UV-I 0 W/m -2,7 C -2,4 C 3,2 km/h (1 Bft) 98,21 %
08.12.2016 00:10 -2,4 C 98 % 1037,5 hPa 0,0 l/m 0,1 km/h (0 Bft) W 264 0 min 0,000 mm 0,0 UV-I 0 W/m -2,7 C -2,4 C 1,6 km/h (1 Bft) 100,00 %
08.12.2016 00:12 -2,4 C 97 % 1037,4 hPa 0,0 l/m 0,7 km/h (0 Bft) W 264 0 min 0,000 mm 0,0 UV-I 0 W/m -2,8 C -2,4 C 1,6 km/h (1 Bft) 96,92 %
08.12.2016 00:14 -2,4 C 97 % 1037,5 hPa 0,0 l/m 0,0 km/h (0 Bft) W 264 0 min 0,000 mm 0,0 UV-I 0 W/m -2,8 C -2,4 C 0,0 km/h (0 Bft) 98,00 %
08.12.2016 00:16 -2,4 C 98 % 1037,5 hPa 0,0 l/m 0,0 km/h (0 Bft) W 264 0 min 0,000 mm 0,0 UV-I 0 W/m -2,7 C -2,4 C 0,0 km/h (0 Bft) 100,00 %
08.12.2016 00:18 -2,4 C 98 % 1037,5 hPa 0,0 l/m 2,0 km/h (1 Bft) W-SW 252 0 min 0,000 mm 0,0 UV-I 0 W/m -2,7 C -2,4 C 6,4 km/h (2 Bft) 100,00 %
08.12.2016 00:20 -2,4 C 98 % 1037,5 hPa 0,0 l/m 4,5 km/h (1 Bft) W 265 0 min 0,000 mm 0,0 UV-I 0 W/m -2,7 C -2,4 C 6,4 km/h (2 Bft) 100,00 %
08.12.2016 00:22 -2,4 C 98 % 1037,5 hPa 0,0 l/m 1,4 km/h (1 Bft) W 265 0 min 0,000 mm 0,0 UV-I 0 W/m -2,7 C -2,4 C 4,8 km/h (1 Bft) 100,00 %
08.12.2016 00:24 -2,4 C 98 % 1037,5 hPa 0,0 l/m 0,9 km/h (0 Bft) W 265 0 min 0,000 mm 0,0 UV-I 0 W/m -2,7 C -2,4 C 3,2 km/h (1 Bft) 100,00 %
08.12.2016 00:26 -2,4 C 98 % 1037,6 hPa 0,0 l/m 1,3 km/h (1 Bft) W 265 0 min 0,000 mm 0,0 UV-I 0 W/m -2,7 C -2,4 C 3,2 km/h (1 Bft) 100,00 %
08.12.2016 00:28 -2,4 C 98 % 1037,5 hPa 0,0 l/m 0,0 km/h (0 Bft) W 265 0 min 0,000 mm 0,0 UV-I 0 W/m -2,7 C -2,4 C 0,0 km/h (0 Bft) 100,00 %
08.12.2016 00:30 -2,4 C 98 % 1037,5 hPa 0,0 l/m 0,1 km/h (0 Bft) W 265 0 min 0,000 mm 0,0 UV-I 0 W/m -2,7 C -2,4 C 1,6 km/h (1 Bft) 100,00 %
08.12.2016 00:32 -2,4 C 98 % 1037,5 hPa 0,0 l/m 0,6 km/h (0 Bft) W 265 0 min 0,000 mm 0,0 UV-I 0 W/m -2,7 C -2,4 C 3,2 km/h (1 Bft) 100,00 %
08.12.2016 00:34 -2,4 C 98 % 1037,5 hPa 0,0 l/m 0,3 km/h (0 Bft) W 265 0 min 0,000 mm 0,0 UV-I 0 W/m -2,7 C -2,4 C 1,6 km/h (1 Bft) 100,00 %
08.12.2016 00:36 -2,4 C 98 % 1037,5 hPa 0,0 l/m 0,6 km/h (0 Bft) W 266 0 min 0,000 mm 0,0 UV-I 0 W/m -2,7 C -2,4 C 3,2 km/h (1 Bft) 97,96 %
08.12.2016 00:38 -2,4 C 98 % 1037,5 hPa 0,0 l/m 0,4 km/h (0 Bft) W 266 0 min 0,000 mm 0,0 UV-I 0 W/m -2,7 C -2,4 C 1,6 km/h (1 Bft) 100,00 %
08.12.2016 00:40 -2,4 C 98 % 1037,5 hPa 0,0 l/m 0,2 km/h (0 Bft) W 266 0 min 0,000 mm 0,0 UV-I 0 W/m -2,7 C -2,4 C 1,6 km/h (1 Bft) 100,00 %
08.12.2016 00:42 -2,4 C 98 % 1037,4 hPa 0,0 l/m 0,4 km/h (0 Bft) W 266 0 min 0,000 mm 0,0 UV-I 0 W/m -2,7 C -2,4 C 1,6 km/h (1 Bft) 98,11 %
08.12.2016 00:44 -2,4 C 98 % 1037,4 hPa 0,0 l/m 2,2 km/h (1 Bft) W 266 0 min 0,000 mm 0,0 UV-I 0 W/m -2,7 C -2,4 C 4,8 km/h (1 Bft) 100,00 %
08.12.2016 00:46 -2,4 C 98 % 1037,3 hPa 0,0 l/m 3,4 km/h (1 Bft) W 266 0 min 0,000 mm 0,0 UV-I 0 W/m -2,7 C -2,4 C 4,8 km/h (1 Bft) 100,00 %
08.12.2016 00:48 -2,4 C 98 % 1037,3 hPa 0,0 l/m 4,2 km/h (1 Bft) SW 216 0 min 0,000 mm 0,0 UV-I 0 W/m -2,7 C -2,4 C 6,4 km/h (2 Bft) 100,00 %
08.12.2016 00:50 -2,4 C 98 % 1037,4 hPa 0,0 l/m 2,4 km/h (1 Bft) SW 217 0 min 0,000 mm 0,0 UV-I 0 W/m -2,7 C -2,4 C 4,8 km/h (1 Bft) 100,00 %
08.12.2016 00:52 -2,4 C 98 % 1037,4 hPa 0,0 l/m 2,3 km/h (1 Bft) SW 229 0 min 0,000 mm 0,0 UV-I 0 W/m -2,7 C -2,4 C 3,2 km/h (1 Bft) 100,00 %
08.12.2016 00:54 -2,4 C 98 % 1037,4 hPa 0,0 l/m 4,2 km/h (1 Bft) W-SW 246 0 min 0,000 mm 0,0 UV-I 0 W/m -2,7 C -2,4 C 6,4 km/h (2 Bft) 100,00 %
08.12.2016 00:56 -2,4 C 97 % 1037,4 hPa 0,0 l/m 5,7 km/h (1 Bft) SW 225 0 min 0,000 mm 0,0 UV-I 0 W/m -2,8 C -2,4 C 8,0 km/h (2 Bft) 98,00 %
08.12.2016 00:58 -2,5 C 97 % 1037,4 hPa 0,0 l/m 5,2 km/h (1 Bft) SW 233 0 min 0,000 mm 0,0 UV-I 0 W/m -2,9 C -2,5 C 8,0 km/h (2 Bft) 97,56 %
08.12.2016 01:00 -2,5 C 97 % 1037,4 hPa 0,0 l/m 4,4 km/h (1 Bft) W-SW 246 0 min 0,000 mm 0,0 UV-I 0 W/m -2,9 C -2,5 C 8,0 km/h (2 Bft) 100,00 %
08.12.2016 01:02 -2,5 C 97 % 1037,5 hPa 0,0 l/m 2,3 km/h (1 Bft) W-SW 246 0 min 0,000 mm 0,0 UV-I 0 W/m -2,9 C -2,5 C 4,8 km/h (1 Bft) 100,00 %
08.12.2016 01:04 -2,6 C 97 % 1037,4 hPa 0,0 l/m 0,6 km/h (0 Bft) W-SW 246 0 min 0,000 mm 0,0 UV-I 0 W/m -3,0 C -2,6 C 3,2 km/h (1 Bft) 98,00 %
08.12.2016 01:06 -2,6 C 97 % 1037,4 hPa 0,0 l/m 2,0 km/h (1 Bft) W-SW 246 0 min 0,000 mm 0,0 UV-I 0 W/m -3,0 C -2,6 C 3,2 km/h (1 Bft) 100,00 %
08.12.2016 01:08 -2,6 C 97 % 1037,4 hPa 0,0 l/m 2,0 km/h (1 Bft) W-SW 249 0 min 0,000 mm 0,0 UV-I 0 W/m -3,0 C -2,6 C 4,8 km/h (1 Bft) 100,00 %
08.12.2016 01:10 -2,6 C 97 % 1037,4 hPa 0,0 l/m 5,3 km/h (1 Bft) S-SW 208 0 min 0,000 mm 0,0 UV-I 0 W/m -3,0 C -2,6 C 6,4 km/h (2 Bft) 100,00 %
08.12.2016 01:12 -2,6 C 97 % 1037,3 hPa 0,0 l/m 2,6 km/h (1 Bft) S-SW 208 0 min 0,000 mm 0,0 UV-I 0 W/m -3,0 C -2,6 C 6,4 km/h (2 Bft) 100,00 %
08.12.2016 01:14 -2,6 C 97 % 1037,4 hPa 0,0 l/m 2,5 km/h (1 Bft) S-SW 208 0 min 0,000 mm 0,0 UV-I 0 W/m -3,0 C -2,6 C 4,8 km/h (1 Bft) 100,00 %
08.12.2016 01:16 -2,6 C 97 % 1037,4 hPa 0,0 l/m 2,6 km/h (1 Bft) S-SW 208 0 min 0,000 mm 0,0 UV-I 0 W/m -3,0 C -2,6 C 4,8 km/h (1 Bft) 100,00 %
08.12.2016 01:18 -2,5 C 97 % 1037,4 hPa 0,0 l/m 3,7 km/h (1 Bft) S 188 0 min 0,000 mm 0,0 UV-I 0 W/m -2,9 C -2,5 C 4,8 km/h (1 Bft) 100,00 %
08.12.2016 01:20 -2,5 C 97 % 1037,4 hPa 0,0 l/m 3,8 km/h (1 Bft) S-SW 192 0 min 0,000 mm 0,0 UV-I 0 W/m -2,9 C -2,5 C 6,4 km/h (2 Bft) 97,44 %
08.12.2016 01:22 -2,5 C 97 % 1037,5 hPa 0,0 l/m 3,3 km/h (1 Bft) S-SW 192 0 min 0,000 mm 0,0 UV-I 0 W/m -2,9 C -2,5 C 4,8 km/h (1 Bft) 100,00 %
08.12.2016 01:24 -2,5 C 97 % 1037,4 hPa 0,0 l/m 1,8 km/h (1 Bft) S-SW 192 0 min 0,000 mm 0,0 UV-I 0 W/m -2,9 C -2,5 C 4,8 km/h (1 Bft) 100,00 %
08.12.2016 01:26 -2,6 C 97 % 1037,4 hPa 0,0 l/m 1,9 km/h (1 Bft) S-SW 192 0 min 0,000 mm 0,0 UV-I 0 W/m -3,0 C -2,6 C 4,8 km/h (1 Bft) 100,00 %
08.12.2016 01:28 -2,5 C 97 % 1037,4 hPa 0,0 l/m 2,3 km/h (1 Bft) S 191 0 min 0,000 mm 0,0 UV-I 0 W/m -2,9 C -2,5 C 6,4 km/h (2 Bft) 97,87 %
08.12.2016 01:30 -2,5 C 97 % 1037,4 hPa 0,0 l/m 2,5 km/h (1 Bft) W-SW 248 0 min 0,000 mm 0,0 UV-I 0 W/m -2,9 C -2,5 C 6,4 km/h (2 Bft) 100,00 %
08.12.2016 01:32 -2,5 C 97 % 1037,4 hPa 0,0 l/m 0,5 km/h (0 Bft) W-SW 248 0 min 0,000 mm 0,0 UV-I 0 W/m -2,9 C -2,5 C 1,6 km/h (1 Bft) 97,87 %
08.12.2016 01:34 -2,5 C 97 % 1037,4 hPa 0,0 l/m 0,0 km/h (0 Bft) W-SW 248 0 min 0,000 mm 0,0 UV-I 0 W/m -2,9 C -2,5 C 1,6 km/h (1 Bft) 94,74 %
08.12.2016 01:36 -2,5 C 97 % 1037,4 hPa 0,0 l/m 1,3 km/h (1 Bft) W-SW 248 0 min 0,000 mm 0,0 UV-I 0 W/m -2,9 C -2,5 C 3,2 km/h (1 Bft) 100,00 %
08.12.2016 01:38 -2,5 C 97 % 1037,3 hPa 0,0 l/m 3,3 km/h (1 Bft) W-SW 248 0 min 0,000 mm 0,0 UV-I 0 W/m -2,9 C -2,5 C 4,8 km/h (1 Bft) 100,00 %
08.12.2016 01:40 -2,5 C 97 % 1037,4 hPa 0,0 l/m 3,8 km/h (1 Bft) W-SW 238 0 min 0,000 mm 0,0 UV-I 0 W/m -2,9 C -2,5 C 8,0 km/h (2 Bft) 100,00 %
08.12.2016 01:42 -2,4 C 97 % 1037,4 hPa 0,0 l/m 5,7 km/h (1 Bft) W-SW 254 0 min 0,000 mm 0,0 UV-I 0 W/m -2,8 C -2,4 C 8,0 km/h (2 Bft) 100,00 %
08.12.2016 01:44 -2,4 C 97 % 1037,4 hPa 0,0 l/m 3,2 km/h (1 Bft) S-SW 194 0 min 0,000 mm 0,0 UV-I 0 W/m -2,8 C -2,4 C 6,4 km/h (2 Bft) 97,87 %
08.12.2016 01:46 -2,5 C 97 % 1037,4 hPa 0,0 l/m 5,7 km/h (1 Bft) S-SW 205 0 min 0,000 mm 0,0 UV-I 0 W/m -2,9 C -2,5 C 8,0 km/h (2 Bft) 98,00 %
08.12.2016 01:48 -2,5 C 97 % 1037,4 hPa 0,0 l/m 5,1 km/h (1 Bft) S-SW 208 0 min 0,000 mm 0,0 UV-I 0 W/m -2,9 C -2,5 C 8,0 km/h (2 Bft) 94,34 %
08.12.2016 01:50 -2,5 C 97 % 1037,5 hPa 0,0 l/m 3,2 km/h (1 Bft) SW 231 0 min 0,000 mm 0,0 UV-I 0 W/m -2,9 C -2,5 C 4,8 km/h (1 Bft) 97,37 %
08.12.2016 01:52 -2,5 C 97 % 1037,5 hPa 0,0 l/m 2,6 km/h (1 Bft) W-SW 245 0 min 0,000 mm 0,0 UV-I 0 W/m -2,9 C -2,5 C 3,2 km/h (1 Bft) 96,00 %
08.12.2016 01:54 -2,5 C 97 % 1037,5 hPa 0,0 l/m 3,9 km/h (1 Bft) W-SW 245 0 min 0,000 mm 0,0 UV-I 0 W/m -2,9 C -2,5 C 8,0 km/h (2 Bft) 98,00 %
08.12.2016 01:56 -2,5 C 97 % 1037,5 hPa 0,0 l/m 4,3 km/h (1 Bft) SW 229 0 min 0,000 mm 0,0 UV-I 0 W/m -2,9 C -2,5 C 6,4 km/h (2 Bft) 97,62 %
08.12.2016 01:58 -2,6 C 97 % 1037,5 hPa 0,0 l/m 3,4 km/h (1 Bft) SW 229 0 min 0,000 mm 0,0 UV-I 0 W/m -3,0 C -2,6 C 4,8 km/h (1 Bft) 96,36 %
08.12.2016 02:00 -2,6 C 97 % 1037,5 hPa 0,0 l/m 1,0 km/h (0 Bft) SW 229 0 min 0,000 mm 0,0 UV-I 0 W/m -3,0 C -2,6 C 1,6 km/h (1 Bft) 95,83 %
08.12.2016 02:02 -2,6 C 97 % 1037,5 hPa 0,0 l/m 1,7 km/h (1 Bft) SW 229 0 min 0,000 mm 0,0 UV-I 0 W/m -3,0 C -2,6 C 3,2 km/h (1 Bft) 96,77 %
08.12.2016 02:04 -2,6 C 97 % 1037,5 hPa 0,0 l/m 2,5 km/h (1 Bft) SW 229 0 min 0,000 mm 0,0 UV-I 0 W/m -3,0 C -2,6 C 3,2 km/h (1 Bft) 95,74 %
08.12.2016 02:06 -2,6 C 97 % 1037,6 hPa 0,0 l/m 3,1 km/h (1 Bft) SW 229 0 min 0,000 mm 0,0 UV-I 0 W/m -3,0 C -2,6 C 6,4 km/h (2 Bft) 96,00 %
08.12.2016 02:08 -2,6 C 97 % 1037,5 hPa 0,0 l/m 0,7 km/h (0 Bft) SW 229 0 min 0,000 mm 0,0 UV-I 0 W/m -3,0 C -2,6 C 4,8 km/h (1 Bft) 98,00 %
08.12.2016 02:10 -2,6 C 97 % 1037,6 hPa 0,0 l/m 3,4 km/h (1 Bft) SW 220 0 min 0,000 mm 0,0 UV-I 0 W/m -3,0 C -2,6 C 4,8 km/h (1 Bft) 95,12 %
08.12.2016 02:12 -2,6 C 97 % 1037,6 hPa 0,0 l/m 4,6 km/h (1 Bft) SW 217 0 min 0,000 mm 0,0 UV-I 0 W/m -3,0 C -2,6 C 6,4 km/h (2 Bft) 97,73 %
08.12.2016 02:14 -2,6 C 97 % 1037,6 hPa 0,0 l/m 1,8 km/h (1 Bft) SW 217 0 min 0,000 mm 0,0 UV-I 0 W/m -3,0 C -2,6 C 3,2 km/h (1 Bft) 96,00 %
08.12.2016 02:16 -2,6 C 97 % 1037,6 hPa 0,0 l/m 2,8 km/h (1 Bft) SW 214 0 min 0,000 mm 0,0 UV-I 0 W/m -3,0 C -2,6 C 6,4 km/h (2 Bft) 97,37 %
08.12.2016 02:18 -2,6 C 97 % 1037,5 hPa 0,0 l/m 6,9 km/h (2 Bft) SW 214 0 min 0,000 mm 0,0 UV-I 0 W/m -3,0 C -3,2 C 9,7 km/h (2 Bft) 98,21 %
08.12.2016 02:20 -2,6 C 97 % 1037,5 hPa 0,0 l/m 6,6 km/h (2 Bft) SW 232 0 min 0,000 mm 0,0 UV-I 0 W/m -3,0 C -2,8 C 8,0 km/h (2 Bft) 100,00 %
08.12.2016 02:22 -2,6 C 97 % 1037,5 hPa 0,0 l/m 5,3 km/h (1 Bft) SW 225 0 min 0,000 mm 0,0 UV-I 0 W/m -3,0 C -2,6 C 6,4 km/h (2 Bft) 97,87 %
08.12.2016 02:24 -2,6 C 97 % 1037,5 hPa 0,0 l/m 4,4 km/h (1 Bft) SW 234 0 min 0,000 mm 0,0 UV-I 0 W/m -3,0 C -2,6 C 6,4 km/h (2 Bft) 98,00 %
08.12.2016 02:26 -2,6 C 97 % 1037,4 hPa 0,0 l/m 1,0 km/h (0 Bft) SW 234 0 min 0,000 mm 0,0 UV-I 0 W/m -3,0 C -2,6 C 3,2 km/h (1 Bft) 100,00 %
08.12.2016 02:28 -2,6 C 97 % 1037,5 hPa 0,0 l/m 1,0 km/h (0 Bft) SW 218 0 min 0,000 mm 0,0 UV-I 0 W/m -3,0 C -2,6 C 3,2 km/h (1 Bft) 100,00 %
08.12.2016 02:30 -2,6 C 97 % 1037,4 hPa 0,0 l/m 2,1 km/h (1 Bft) S 180 0 min 0,000 mm 0,0 UV-I 0 W/m -3,0 C -2,6 C 4,8 km/h (1 Bft) 98,00 %
08.12.2016 02:32 -2,6 C 97 % 1037,3 hPa 0,0 l/m 2,8 km/h (1 Bft) S-SW 196 0 min 0,000 mm 0,0 UV-I 0 W/m -3,0 C -2,6 C 6,4 km/h (2 Bft) 100,00 %
08.12.2016 02:34 -2,6 C 97 % 1037,3 hPa 0,0 l/m 4,1 km/h (1 Bft) S-SW 207 0 min 0,000 mm 0,0 UV-I 0 W/m -3,0 C -2,6 C 6,4 km/h (2 Bft) 97,44 %
08.12.2016 02:36 -2,6 C 97 % 1037,4 hPa 0,0 l/m 3,5 km/h (1 Bft) W-SW 257 0 min 0,000 mm 0,0 UV-I 0 W/m -3,0 C -2,6 C 8,0 km/h (2 Bft) 98,08 %
08.12.2016 02:38 -2,6 C 97 % 1037,4 hPa 0,0 l/m 3,2 km/h (1 Bft) W-SW 257 0 min 0,000 mm 0,0 UV-I 0 W/m -3,0 C -2,6 C 6,4 km/h (2 Bft) 100,00 %
08.12.2016 02:40 -2,7 C 97 % 1037,3 hPa 0,0 l/m 4,1 km/h (1 Bft) W-SW 257 0 min 0,000 mm 0,0 UV-I 0 W/m -3,1 C -2,7 C 4,8 km/h (1 Bft) 100,00 %
08.12.2016 02:42 -2,7 C 97 % 1037,3 hPa 0,0 l/m 4,4 km/h (1 Bft) S-SW 211 0 min 0,000 mm 0,0 UV-I 0 W/m -3,1 C -2,7 C 6,4 km/h (2 Bft) 100,00 %
08.12.2016 02:44 -2,7 C 97 % 1037,3 hPa 0,0 l/m 5,1 km/h (1 Bft) SW 219 0 min 0,000 mm 0,0 UV-I 0 W/m -3,1 C -2,7 C 11,3 km/h (2 Bft) 100,00 %
08.12.2016 02:46 -2,7 C 97 % 1037,3 hPa 0,0 l/m 4,4 km/h (1 Bft) S-SW 199 0 min 0,000 mm 0,0 UV-I 0 W/m -3,1 C -2,7 C 6,4 km/h (2 Bft) 100,00 %
08.12.2016 02:48 -2,6 C 97 % 1037,3 hPa 0,0 l/m 2,4 km/h (1 Bft) S-SW 199 0 min 0,000 mm 0,0 UV-I 0 W/m -3,0 C -2,6 C 4,8 km/h (1 Bft) 100,00 %
08.12.2016 02:50 -2,6 C 97 % 1037,3 hPa 0,0 l/m 0,7 km/h (0 Bft) S-SW 199 0 min 0,000 mm 0,0 UV-I 0 W/m -3,0 C -2,6 C 3,2 km/h (1 Bft) 100,00 %
08.12.2016 02:52 -2,6 C 97 % 1037,3 hPa 0,0 l/m 0,1 km/h (0 Bft) S-SW 199 0 min 0,000 mm 0,0 UV-I 0 W/m -3,0 C -2,6 C 1,6 km/h (1 Bft) 100,00 %
08.12.2016 02:54 -2,6 C 97 % 1037,3 hPa 0,0 l/m 1,3 km/h (1 Bft) S-SW 199 0 min 0,000 mm 0,0 UV-I 0 W/m -3,0 C -2,6 C 3,2 km/h (1 Bft) 97,56 %
08.12.2016 02:56 -2,6 C 97 % 1037,3 hPa 0,0 l/m 3,0 km/h (1 Bft) W-SW 256 0 min 0,000 mm 0,0 UV-I 0 W/m -3,0 C -2,6 C 6,4 km/h (2 Bft) 96,00 %
08.12.2016 02:58 -2,6 C 97 % 1037,3 hPa 0,0 l/m 6,4 km/h (2 Bft) SW 227 0 min 0,000 mm 0,0 UV-I 0 W/m -3,0 C -2,6 C 8,0 km/h (2 Bft) 100,00 %
08.12.2016 03:00 -2,6 C 97 % 1037,1 hPa 0,0 l/m 3,7 km/h (1 Bft) SW 221 0 min 0,000 mm 0,0 UV-I 0 W/m -3,0 C -2,6 C 6,4 km/h (2 Bft) 97,87 %
08.12.2016 03:02 -2,6 C 97 % 1037,2 hPa 0,0 l/m 4,4 km/h (1 Bft) W 276 0 min 0,000 mm 0,0 UV-I 0 W/m -3,0 C -2,6 C 9,7 km/h (2 Bft) 98,11 %
08.12.2016 03:04 -2,6 C 97 % 1037,2 hPa 0,0 l/m 4,3 km/h (1 Bft) W-SW 255 0 min 0,000 mm 0,0 UV-I 0 W/m -3,0 C -2,6 C 6,4 km/h (2 Bft) 100,00 %
08.12.2016 03:06 -2,6 C 97 % 1037,1 hPa 0,0 l/m 4,4 km/h (1 Bft) W-SW 248 0 min 0,000 mm 0,0 UV-I 0 W/m -3,0 C -2,6 C 6,4 km/h (2 Bft) 100,00 %
08.12.2016 03:08 -2,6 C 97 % 1037,1 hPa 0,0 l/m 4,1 km/h (1 Bft) SW 232 0 min 0,000 mm 0,0 UV-I 0 W/m -3,0 C -2,6 C 6,4 km/h (2 Bft) 100,00 %
08.12.2016 03:10 -2,6 C 97 % 1037,1 hPa 0,0 l/m 3,6 km/h (1 Bft) SW 230 0 min 0,000 mm 0,0 UV-I 0 W/m -3,0 C -2,6 C 4,8 km/h (1 Bft) 100,00 %
08.12.2016 03:12 -2,6 C 97 % 1037,1 hPa 0,0 l/m 3,6 km/h (1 Bft) SW 236 0 min 0,000 mm 0,0 UV-I 0 W/m -3,0 C -2,6 C 4,8 km/h (1 Bft) 100,00 %
08.12.2016 03:14 -2,6 C 97 % 1037,1 hPa 0,0 l/m 4,3 km/h (1 Bft) SW 229 0 min 0,000 mm 0,0 UV-I 0 W/m -3,0 C -2,6 C 6,4 km/h (2 Bft) 100,00 %
08.12.2016 03:16 -2,6 C 97 % 1037,0 hPa 0,0 l/m 2,2 km/h (1 Bft) SW 229 0 min 0,000 mm 0,0 UV-I 0 W/m -3,0 C -2,6 C 4,8 km/h (1 Bft) 100,00 %
08.12.2016 03:18 -2,6 C 97 % 1037,1 hPa 0,0 l/m 3,5 km/h (1 Bft) SW 226 0 min 0,000 mm 0,0 UV-I 0 W/m -3,0 C -2,6 C 4,8 km/h (1 Bft) 100,00 %
08.12.2016 03:20 -2,6 C 97 % 1037,1 hPa 0,0 l/m 3,5 km/h (1 Bft) SW 226 0 min 0,000 mm 0,0 UV-I 0 W/m -3,0 C -2,6 C 6,4 km/h (2 Bft) 100,00 %
08.12.2016 03:22 -2,6 C 97 % 1037,1 hPa 0,0 l/m 3,0 km/h (1 Bft) SW 226 0 min 0,000 mm 0,0 UV-I 0 W/m -3,0 C -2,6 C 4,8 km/h (1 Bft) 100,00 %
08.12.2016 03:24 -2,6 C 97 % 1037,1 hPa 0,0 l/m 0,9 km/h (0 Bft) SW 226 0 min 0,000 mm 0,0 UV-I 0 W/m -3,0 C -2,6 C 3,2 km/h (1 Bft) 100,00 %
08.12.2016 03:26 -2,7 C 97 % 1037,1 hPa 0,0 l/m 0,0 km/h (0 Bft) SW 226 0 min 0,000 mm 0,0 UV-I 0 W/m -3,1 C -2,7 C 0,0 km/h (0 Bft) 100,00 %
08.12.2016 03:28 -2,6 C 97 % 1037,2 hPa 0,0 l/m 0,7 km/h (0 Bft) SW 226 0 min 0,000 mm 0,0 UV-I 0 W/m -3,0 C -2,6 C 1,6 km/h (1 Bft) 100,00 %
08.12.2016 03:30 -2,6 C 97 % 1037,2 hPa 0,0 l/m 1,7 km/h (1 Bft) SW 235 0 min 0,000 mm 0,0 UV-I 0 W/m -3,0 C -2,6 C 3,2 km/h (1 Bft) 100,00 %
08.12.2016 03:32 -2,6 C 98 % 1037,3 hPa 0,0 l/m 2,1 km/h (1 Bft) NW 319 0 min 0,000 mm 0,0 UV-I 0 W/m -2,9 C -2,6 C 4,8 km/h (1 Bft) 100,00 %
08.12.2016 03:34 -2,6 C 97 % 1037,3 hPa 0,0 l/m 1,9 km/h (1 Bft) NW 315 0 min 0,000 mm 0,0 UV-I 0 W/m -3,0 C -2,6 C 3,2 km/h (1 Bft) 100,00 %
08.12.2016 03:36 -2,6 C 97 % 1037,1 hPa 0,0 l/m 2,2 km/h (1 Bft) NW 315 0 min 0,000 mm 0,0 UV-I 0 W/m -3,0 C -2,6 C 3,2 km/h (1 Bft) 98,00 %
08.12.2016 03:38 -2,6 C 97 % 1037,1 hPa 0,0 l/m 2,1 km/h (1 Bft) W 271 0 min 0,000 mm 0,0 UV-I 0 W/m -3,0 C -2,6 C 4,8 km/h (1 Bft) 97,87 %
08.12.2016 03:40 -2,6 C 97 % 1037,2 hPa 0,0 l/m 2,2 km/h (1 Bft) W 275 0 min 0,000 mm 0,0 UV-I 0 W/m -3,0 C -2,6 C 3,2 km/h (1 Bft) 100,00 %
08.12.2016 03:42 -2,6 C 97 % 1037,3 hPa 0,0 l/m 0,7 km/h (0 Bft) W 275 0 min 0,000 mm 0,0 UV-I 0 W/m -3,0 C -2,6 C 3,2 km/h (1 Bft) 100,00 %
08.12.2016 03:44 -2,6 C 97 % 1037,1 hPa 0,0 l/m 2,2 km/h (1 Bft) W 275 0 min 0,000 mm 0,0 UV-I 0 W/m -3,0 C -2,6 C 3,2 km/h (1 Bft) 97,37 %
08.12.2016 03:46 -2,6 C 97 % 1037,2 hPa 0,0 l/m 1,9 km/h (1 Bft) W 275 0 min 0,000 mm 0,0 UV-I 0 W/m -3,0 C -2,6 C 3,2 km/h (1 Bft) 96,23 %
08.12.2016 03:48 -2,6 C 97 % 1037,2 hPa 0,0 l/m 0,1 km/h (0 Bft) W 275 0 min 0,000 mm 0,0 UV-I 0 W/m -3,0 C -2,6 C 1,6 km/h (1 Bft) 95,74 %
08.12.2016 03:50 -2,6 C 97 % 1037,1 hPa 0,0 l/m 0,1 km/h (0 Bft) W 275 0 min 0,000 mm 0,0 UV-I 0 W/m -3,0 C -2,6 C 1,6 km/h (1 Bft) 97,87 %
08.12.2016 03:52 -2,6 C 97 % 1037,2 hPa 0,0 l/m 0,6 km/h (0 Bft) W 275 0 min 0,000 mm 0,0 UV-I 0 W/m -3,0 C -2,6 C 1,6 km/h (1 Bft) 97,56 %
08.12.2016 03:54 -2,6 C 97 % 1037,2 hPa 0,0 l/m 1,0 km/h (0 Bft) W 275 0 min 0,000 mm 0,0 UV-I 0 W/m -3,0 C -2,6 C 3,2 km/h (1 Bft) 98,11 %
08.12.2016 03:56 -2,6 C 97 % 1037,1 hPa 0,0 l/m 1,2 km/h (1 Bft) W 275 0 min 0,000 mm 0,0 UV-I 0 W/m -3,0 C -2,6 C 3,2 km/h (1 Bft) 97,44 %
08.12.2016 03:58 -2,6 C 97 % 1037,1 hPa 0,0 l/m 0,8 km/h (0 Bft) W 275 0 min 0,000 mm 0,0 UV-I 0 W/m -3,0 C -2,6 C 3,2 km/h (1 Bft) 98,18 %
08.12.2016 04:00 -2,6 C 97 % 1037,1 hPa 0,0 l/m 2,5 km/h (1 Bft) W 275 0 min 0,000 mm 0,0 UV-I 0 W/m -3,0 C -2,6 C 4,8 km/h (1 Bft) 97,87 %
08.12.2016 04:02 -2,6 C 97 % 1037,1 hPa 0,0 l/m 0,2 km/h (0 Bft) W 275 0 min 0,000 mm 0,0 UV-I 0 W/m -3,0 C -2,6 C 1,6 km/h (1 Bft) 100,00 %
08.12.2016 04:04 -2,7 C 97 % 1037,1 hPa 0,0 l/m 2,8 km/h (1 Bft) W 275 0 min 0,000 mm 0,0 UV-I 0 W/m -3,1 C -2,7 C 4,8 km/h (1 Bft) 95,74 %
08.12.2016 04:06 -2,7 C 97 % 1037,0 hPa 0,0 l/m 1,8 km/h (1 Bft) W 275 0 min 0,000 mm 0,0 UV-I 0 W/m -3,1 C -2,7 C 3,2 km/h (1 Bft) 100,00 %
08.12.2016 04:08 -2,7 C 97 % 1037,1 hPa 0,0 l/m 0,8 km/h (0 Bft) W 275 0 min 0,000 mm 0,0 UV-I 0 W/m -3,1 C -2,7 C 3,2 km/h (1 Bft) 96,00 %
08.12.2016 04:10 -2,7 C 97 % 1037,1 hPa 0,0 l/m 1,1 km/h (1 Bft) W 275 0 min 0,000 mm 0,0 UV-I 0 W/m -3,1 C -2,7 C 3,2 km/h (1 Bft) 97,56 %
08.12.2016 04:12 -2,8 C 97 % 1037,1 hPa 0,0 l/m 0,3 km/h (0 Bft) W 275 0 min 0,000 mm 0,0 UV-I 0 W/m -3,2 C -2,8 C 1,6 km/h (1 Bft) 95,74 %
08.12.2016 04:14 -2,8 C 97 % 1037,2 hPa 0,0 l/m 0,4 km/h (0 Bft) W 275 0 min 0,000 mm 0,0 UV-I 0 W/m -3,2 C -2,8 C 4,8 km/h (1 Bft) 98,00 %
08.12.2016 04:16 -2,8 C 97 % 1037,3 hPa 0,0 l/m 2,1 km/h (1 Bft) W 275 0 min 0,000 mm 0,0 UV-I 0 W/m -3,2 C -2,8 C 4,8 km/h (1 Bft) 97,87 %
08.12.2016 04:18 -2,8 C 97 % 1037,3 hPa 0,0 l/m 0,3 km/h (0 Bft) W 275 0 min 0,000 mm 0,0 UV-I 0 W/m -3,2 C -2,8 C 1,6 km/h (1 Bft) 98,00 %
08.12.2016 04:20 -2,8 C 97 % 1037,4 hPa 0,0 l/m 2,8 km/h (1 Bft) W 275 0 min 0,000 mm 0,0 UV-I 0 W/m -3,2 C -2,8 C 4,8 km/h (1 Bft) 95,12 %
08.12.2016 04:22 -2,8 C 97 % 1037,3 hPa 0,0 l/m 2,4 km/h (1 Bft) W 277 0 min 0,000 mm 0,0 UV-I 0 W/m -3,2 C -2,8 C 4,8 km/h (1 Bft) 100,00 %
08.12.2016 04:24 -2,8 C 97 % 1037,3 hPa 0,0 l/m 4,2 km/h (1 Bft) W-NW 282 0 min 0,000 mm 0,0 UV-I 0 W/m -3,2 C -2,8 C 4,8 km/h (1 Bft) 100,00 %
08.12.2016 04:26 -2,8 C 97 % 1037,3 hPa 0,0 l/m 3,4 km/h (1 Bft) W-NW 282 0 min 0,000 mm 0,0 UV-I 0 W/m -3,2 C -2,8 C 4,8 km/h (1 Bft) 96,23 %
08.12.2016 04:28 -2,8 C 97 % 1037,2 hPa 0,0 l/m 3,5 km/h (1 Bft) W-NW 282 0 min 0,000 mm 0,0 UV-I 0 W/m -3,2 C -2,8 C 4,8 km/h (1 Bft) 100,00 %
08.12.2016 04:30 -2,8 C 97 % 1037,2 hPa 0,0 l/m 2,3 km/h (1 Bft) W 281 0 min 0,000 mm 0,0 UV-I 0 W/m -3,2 C -2,8 C 4,8 km/h (1 Bft) 100,00 %
08.12.2016 04:32 -2,8 C 97 % 1037,1 hPa 0,0 l/m 3,2 km/h (1 Bft) W 272 0 min 0,000 mm 0,0 UV-I 0 W/m -3,2 C -2,8 C 4,8 km/h (1 Bft) 100,00 %
08.12.2016 04:34 -2,8 C 97 % 1037,1 hPa 0,0 l/m 2,2 km/h (1 Bft) W 272 0 min 0,000 mm 0,0 UV-I 0 W/m -3,2 C -2,8 C 3,2 km/h (1 Bft) 97,87 %
08.12.2016 04:36 -2,8 C 97 % 1037,1 hPa 0,0 l/m 0,1 km/h (0 Bft) W 273 0 min 0,000 mm 0,0 UV-I 0 W/m -3,2 C -2,8 C 1,6 km/h (1 Bft) 100,00 %
08.12.2016 04:38 -2,8 C 97 % 1037,1 hPa 0,0 l/m 0,6 km/h (0 Bft) W-SW 239 0 min 0,000 mm 0,0 UV-I 0 W/m -3,2 C -2,8 C 1,6 km/h (1 Bft) 100,00 %
08.12.2016 04:40 -2,8 C 97 % 1037,1 hPa 0,0 l/m 0,7 km/h (0 Bft) SW 225 0 min 0,000 mm 0,0 UV-I 0 W/m -3,2 C -2,8 C 3,2 km/h (1 Bft) 100,00 %
08.12.2016 04:42 -2,8 C 97 % 1037,1 hPa 0,0 l/m 0,9 km/h (0 Bft) SW 222 0 min 0,000 mm 0,0 UV-I 0 W/m -3,2 C -2,8 C 3,2 km/h (1 Bft) 100,00 %
08.12.2016 04:44 -2,8 C 97 % 1037,1 hPa 0,0 l/m 1,0 km/h (0 Bft) SW 221 0 min 0,000 mm 0,0 UV-I 0 W/m -3,2 C -2,8 C 3,2 km/h (1 Bft) 100,00 %
08.12.2016 04:46 -2,8 C 97 % 1037,0 hPa 0,0 l/m 1,2 km/h (1 Bft) SW 221 0 min 0,000 mm 0,0 UV-I 0 W/m -3,2 C -2,8 C 3,2 km/h (1 Bft) 97,56 %
08.12.2016 04:48 -2,8 C 97 % 1037,0 hPa 0,0 l/m 1,2 km/h (1 Bft) SW 221 0 min 0,000 mm 0,0 UV-I 0 W/m -3,2 C -2,8 C 3,2 km/h (1 Bft) 100,00 %
08.12.2016 04:50 -2,8 C 97 % 1037,0 hPa 0,0 l/m 3,0 km/h (1 Bft) SW 221 0 min 0,000 mm 0,0 UV-I 0 W/m -3,2 C -2,8 C 4,8 km/h (1 Bft) 100,00 %
08.12.2016 04:52 -2,8 C 97 % 1037,0 hPa 0,0 l/m 5,2 km/h (1 Bft) SW 229 0 min 0,000 mm 0,0 UV-I 0 W/m -3,2 C -2,8 C 8,0 km/h (2 Bft) 100,00 %
08.12.2016 04:54 -2,8 C 97 % 1037,0 hPa 0,0 l/m 5,3 km/h (1 Bft) SW 236 0 min 0,000 mm 0,0 UV-I 0 W/m -3,2 C -2,8 C 8,0 km/h (2 Bft) 98,00 %
08.12.2016 04:56 -2,7 C 97 % 1037,0 hPa 0,0 l/m 3,5 km/h (1 Bft) W-SW 241 0 min 0,000 mm 0,0 UV-I 0 W/m -3,1 C -2,7 C 4,8 km/h (1 Bft) 100,00 %
08.12.2016 04:58 -2,7 C 97 % 1037,0 hPa 0,0 l/m 1,0 km/h (0 Bft) W-SW 241 0 min 0,000 mm 0,0 UV-I 0 W/m -3,1 C -2,7 C 3,2 km/h (1 Bft) 100,00 %
08.12.2016 05:00 -2,8 C 97 % 1037,0 hPa 0,0 l/m 2,0 km/h (1 Bft) W-SW 241 0 min 0,000 mm 0,0 UV-I 0 W/m -3,2 C -2,8 C 3,2 km/h (1 Bft) 100,00 %
08.12.2016 05:02 -2,8 C 97 % 1037,0 hPa 0,0 l/m 2,4 km/h (1 Bft) W 263 0 min 0,000 mm 0,0 UV-I 0 W/m -3,2 C -2,8 C 4,8 km/h (1 Bft) 95,74 %
08.12.2016 05:04 -2,8 C 97 % 1037,0 hPa 0,0 l/m 1,4 km/h (1 Bft) W 263 0 min 0,000 mm 0,0 UV-I 0 W/m -3,2 C -2,8 C 3,2 km/h (1 Bft) 95,12 %
08.12.2016 05:06 -2,8 C 97 % 1037,0 hPa 0,0 l/m 0,7 km/h (0 Bft) W 263 0 min 0,000 mm 0,0 UV-I 0 W/m -3,2 C -2,8 C 1,6 km/h (1 Bft) 100,00 %
08.12.2016 05:08 -2,7 C 97 % 1037,0 hPa 0,0 l/m 0,0 km/h (0 Bft) W 263 0 min 0,000 mm 0,0 UV-I 0 W/m -3,1 C -2,7 C 0,0 km/h (0 Bft) 100,00 %
08.12.2016 05:10 -2,7 C 97 % 1037,0 hPa 0,0 l/m 0,6 km/h (0 Bft) W 263 0 min 0,000 mm 0,0 UV-I 0 W/m -3,1 C -2,7 C 1,6 km/h (1 Bft) 100,00 %
08.12.2016 05:12 -2,7 C 97 % 1037,1 hPa 0,0 l/m 0,6 km/h (0 Bft) W 263 0 min 0,000 mm 0,0 UV-I 0 W/m -3,1 C -2,7 C 3,2 km/h (1 Bft) 100,00 %
08.12.2016 05:14 -2,7 C 97 % 1037,1 hPa 0,0 l/m 0,6 km/h (0 Bft) W 263 0 min 0,000 mm 0,0 UV-I 0 W/m -3,1 C -2,7 C 1,6 km/h (1 Bft) 100,00 %
08.12.2016 05:16 -2,7 C 97 % 1037,1 hPa 0,0 l/m 0,1 km/h (0 Bft) W 263 0 min 0,000 mm 0,0 UV-I 0 W/m -3,1 C -2,7 C 1,6 km/h (1 Bft) 97,87 %
08.12.2016 05:18 -2,7 C 97 % 1037,1 hPa 0,0 l/m 1,4 km/h (1 Bft) W-NW 282 0 min 0,000 mm 0,0 UV-I 0 W/m -3,1 C -2,7 C 3,2 km/h (1 Bft) 97,22 %
08.12.2016 05:20 -2,7 C 97 % 1037,1 hPa 0,0 l/m 0,3 km/h (0 Bft) W-NW 282 0 min 0,000 mm 0,0 UV-I 0 W/m -3,1 C -2,7 C 1,6 km/h (1 Bft) 98,28 %
08.12.2016 05:22 -2,7 C 97 % 1037,1 hPa 0,0 l/m 0,2 km/h (0 Bft) W-NW 282 0 min 0,000 mm 0,0 UV-I 0 W/m -3,1 C -2,7 C 1,6 km/h (1 Bft) 100,00 %
08.12.2016 05:24 -2,7 C 97 % 1037,1 hPa 0,0 l/m 0,0 km/h (0 Bft) W-NW 282 0 min 0,000 mm 0,0 UV-I 0 W/m -3,1 C -2,7 C 1,6 km/h (1 Bft) 100,00 %
08.12.2016 05:26 -2,7 C 97 % 1037,1 hPa 0,0 l/m 0,0 km/h (0 Bft) W-NW 282 0 min 0,000 mm 0,0 UV-I 0 W/m -3,1 C -2,7 C 0,0 km/h (0 Bft) 97,87 %
08.12.2016 05:28 -2,7 C 97 % 1037,1 hPa 0,0 l/m 0,0 km/h (0 Bft) W-NW 282 0 min 0,000 mm 0,0 UV-I 0 W/m -3,1 C -2,7 C 1,6 km/h (1 Bft) 100,00 %
08.12.2016 05:30 -2,7 C 97 % 1037,1 hPa 0,0 l/m 0,3 km/h (0 Bft) W-NW 282 0 min 0,000 mm 0,0 UV-I 0 W/m -3,1 C -2,7 C 1,6 km/h (1 Bft) 100,00 %
08.12.2016 05:32 -2,7 C 97 % 1037,1 hPa 0,0 l/m 1,3 km/h (1 Bft) W-NW 282 0 min 0,000 mm 0,0 UV-I 0 W/m -3,1 C -2,7 C 3,2 km/h (1 Bft) 100,00 %
08.12.2016 05:34 -2,8 C 97 % 1037,1 hPa 0,0 l/m 0,9 km/h (0 Bft) W-NW 282 0 min 0,000 mm 0,0 UV-I 0 W/m -3,2 C -2,8 C 1,6 km/h (1 Bft) 100,00 %
08.12.2016 05:36 -2,8 C 97 % 1037,1 hPa 0,0 l/m 0,3 km/h (0 Bft) W-NW 282 0 min 0,000 mm 0,0 UV-I 0 W/m -3,2 C -2,8 C 1,6 km/h (1 Bft) 100,00 %
08.12.2016 05:38 -2,8 C 97 % 1037,1 hPa 0,0 l/m 0,6 km/h (0 Bft) W-NW 283 0 min 0,000 mm 0,0 UV-I 0 W/m -3,2 C -2,8 C 3,2 km/h (1 Bft) 100,00 %
08.12.2016 05:40 -2,8 C 97 % 1037,1 hPa 0,0 l/m 0,0 km/h (0 Bft) W-NW 283 0 min 0,000 mm 0,0 UV-I 0 W/m -3,2 C -2,8 C 0,0 km/h (0 Bft) 100,00 %
08.12.2016 05:42 -2,8 C 97 % 1037,1 hPa 0,0 l/m 0,1 km/h (0 Bft) W-NW 283 0 min 0,000 mm 0,0 UV-I 0 W/m -3,2 C -2,8 C 1,6 km/h (1 Bft) 100,00 %
08.12.2016 05:44 -2,8 C 97 % 1037,1 hPa 0,0 l/m 2,2 km/h (1 Bft) W-NW 284 0 min 0,000 mm 0,0 UV-I 0 W/m -3,2 C -2,8 C 3,2 km/h (1 Bft) 100,00 %
08.12.2016 05:46 -2,8 C 97 % 1037,0 hPa 0,0 l/m 0,6 km/h (0 Bft) W-NW 284 0 min 0,000 mm 0,0 UV-I 0 W/m -3,2 C -2,8 C 1,6 km/h (1 Bft) 100,00 %
08.12.2016 05:48 -2,8 C 97 % 1037,0 hPa 0,0 l/m 0,0 km/h (0 Bft) W-NW 284 0 min 0,000 mm 0,0 UV-I 0 W/m -3,2 C -2,8 C 1,6 km/h (1 Bft) 98,21 %
08.12.2016 05:50 -2,8 C 97 % 1037,0 hPa 0,0 l/m 0,0 km/h (0 Bft) W-NW 284 0 min 0,000 mm 0,0 UV-I 0 W/m -3,2 C -2,8 C 0,0 km/h (0 Bft) 96,00 %
08.12.2016 05:52 -2,8 C 97 % 1037,0 hPa 0,0 l/m 0,0 km/h (0 Bft) W-NW 284 0 min 0,000 mm 0,0 UV-I 0 W/m -3,2 C -2,8 C 0,0 km/h (0 Bft) 95,74 %
08.12.2016 05:54 -2,8 C 97 % 1036,9 hPa 0,0 l/m 0,2 km/h (0 Bft) W-NW 284 0 min 0,000 mm 0,0 UV-I 0 W/m -3,2 C -2,8 C 1,6 km/h (1 Bft) 97,87 %
08.12.2016 05:56 -2,8 C 97 % 1036,9 hPa 0,0 l/m 0,0 km/h (0 Bft) W-NW 284 0 min 0,000 mm 0,0 UV-I 0 W/m -3,2 C -2,8 C 0,0 km/h (0 Bft) 97,22 %
08.12.2016 05:58 -2,8 C 97 % 1036,9 hPa 0,0 l/m 0,1 km/h (0 Bft) W-NW 284 0 min 0,000 mm 0,0 UV-I 0 W/m -3,2 C -2,8 C 1,6 km/h (1 Bft) 97,87 %
08.12.2016 06:00 -2,8 C 97 % 1036,9 hPa 0,0 l/m 0,0 km/h (0 Bft) W-NW 284 0 min 0,000 mm 0,0 UV-I 0 W/m -3,2 C -2,8 C 1,6 km/h (1 Bft) 97,87 %
08.12.2016 06:02 -2,8 C 97 % 1036,8 hPa 0,0 l/m 0,2 km/h (0 Bft) W-NW 284 0 min 0,000 mm 0,0 UV-I 0 W/m -3,2 C -2,8 C 1,6 km/h (1 Bft) 97,87 %
08.12.2016 06:04 -2,8 C 97 % 1036,8 hPa 0,0 l/m 0,0 km/h (0 Bft) W-NW 284 0 min 0,000 mm 0,0 UV-I 0 W/m -3,2 C -2,8 C 0,0 km/h (0 Bft) 98,00 %
08.12.2016 06:06 -2,8 C 97 % 1036,9 hPa 0,0 l/m 0,0 km/h (0 Bft) W-NW 284 0 min 0,000 mm 0,0 UV-I 0 W/m -3,2 C -2,8 C 1,6 km/h (1 Bft) 97,87 %
08.12.2016 06:08 -2,9 C 97 % 1036,8 hPa 0,0 l/m 0,1 km/h (0 Bft) W-NW 284 0 min 0,000 mm 0,0 UV-I 0 W/m -3,3 C -2,9 C 1,6 km/h (1 Bft) 93,62 %
08.12.2016 06:10 -2,9 C 97 % 1036,9 hPa 0,0 l/m 0,7 km/h (0 Bft) W-NW 284 0 min 0,000 mm 0,0 UV-I 0 W/m -3,3 C -2,9 C 3,2 km/h (1 Bft) 97,87 %
08.12.2016 06:12 -2,9 C 97 % 1036,9 hPa 0,0 l/m 0,7 km/h (0 Bft) W-NW 284 0 min 0,000 mm 0,0 UV-I 0 W/m -3,3 C -2,9 C 3,2 km/h (1 Bft) 97,87 %
08.12.2016 06:14 -2,9 C 97 % 1036,9 hPa 0,0 l/m 0,0 km/h (0 Bft) W-NW 284 0 min 0,000 mm 0,0 UV-I 0 W/m -3,3 C -2,9 C 1,6 km/h (1 Bft) 97,87 %
08.12.2016 06:16 -2,9 C 97 % 1037,0 hPa 0,0 l/m 0,0 km/h (0 Bft) W-NW 284 0 min 0,000 mm 0,0 UV-I 0 W/m -3,3 C -2,9 C 0,0 km/h (0 Bft) 98,00 %
08.12.2016 06:18 -2,9 C 97 % 1036,9 hPa 0,0 l/m 0,0 km/h (0 Bft) W-NW 284 0 min 0,000 mm 0,0 UV-I 0 W/m -3,3 C -2,9 C 1,6 km/h (1 Bft) 97,37 %
08.12.2016 06:20 -2,9 C 97 % 1036,9 hPa 0,0 l/m 0,0 km/h (0 Bft) W-NW 284 0 min 0,000 mm 0,0 UV-I 0 W/m -3,3 C -2,9 C 0,0 km/h (0 Bft) 98,00 %
08.12.2016 06:22 -2,9 C 97 % 1036,9 hPa 0,0 l/m 0,0 km/h (0 Bft) W-NW 284 0 min 0,000 mm 0,0 UV-I 0 W/m -3,3 C -2,9 C 1,6 km/h (1 Bft) 97,87 %
08.12.2016 06:24 -2,9 C 97 % 1037,0 hPa 0,0 l/m 0,0 km/h (0 Bft) W-NW 284 0 min 0,000 mm 0,0 UV-I 0 W/m -3,3 C -2,9 C 1,6 km/h (1 Bft) 98,11 %
08.12.2016 06:26 -2,9 C 97 % 1037,0 hPa 0,0 l/m 0,1 km/h (0 Bft) W-NW 284 0 min 0,000 mm 0,0 UV-I 0 W/m -3,3 C -2,9 C 1,6 km/h (1 Bft) 100,00 %
08.12.2016 06:28 -2,9 C 97 % 1037,0 hPa 0,0 l/m 0,1 km/h (0 Bft) W-NW 284 0 min 0,000 mm 0,0 UV-I 0 W/m -3,3 C -2,9 C 1,6 km/h (1 Bft) 95,74 %
08.12.2016 06:30 -2,9 C 97 % 1037,0 hPa 0,0 l/m 2,2 km/h (1 Bft) W-NW 284 0 min 0,000 mm 0,0 UV-I 0 W/m -3,3 C -2,9 C 4,8 km/h (1 Bft) 100,00 %
08.12.2016 06:32 -2,9 C 97 % 1037,0 hPa 0,0 l/m 0,9 km/h (0 Bft) W-NW 284 0 min 0,000 mm 0,0 UV-I 0 W/m -3,3 C -2,9 C 1,6 km/h (1 Bft) 100,00 %
08.12.2016 06:34 -2,9 C 97 % 1037,0 hPa 0,0 l/m 0,0 km/h (0 Bft) W-NW 284 0 min 0,000 mm 0,0 UV-I 0 W/m -3,3 C -2,9 C 0,0 km/h (0 Bft) 97,44 %
08.12.2016 06:36 -2,9 C 97 % 1037,0 hPa 0,0 l/m 0,5 km/h (0 Bft) W-NW 284 0 min 0,000 mm 0,0 UV-I 0 W/m -3,3 C -2,9 C 3,2 km/h (1 Bft) 100,00 %
08.12.2016 06:38 -2,9 C 97 % 1037,0 hPa 0,0 l/m 1,1 km/h (1 Bft) W-NW 284 0 min 0,000 mm 0,0 UV-I 0 W/m -3,3 C -2,9 C 3,2 km/h (1 Bft) 100,00 %
08.12.2016 06:40 -2,9 C 97 % 1037,0 hPa 0,0 l/m 1,6 km/h (1 Bft) W-NW 284 0 min 0,000 mm 0,0 UV-I 0 W/m -3,3 C -2,9 C 3,2 km/h (1 Bft) 100,00 %
08.12.2016 06:42 -2,9 C 97 % 1037,1 hPa 0,0 l/m 2,4 km/h (1 Bft) W-NW 284 0 min 0,000 mm 0,0 UV-I 0 W/m -3,3 C -2,9 C 3,2 km/h (1 Bft) 100,00 %
08.12.2016 06:44 -2,9 C 97 % 1037,1 hPa 0,0 l/m 3,0 km/h (1 Bft) W-NW 284 0 min 0,000 mm 0,0 UV-I 0 W/m -3,3 C -2,9 C 4,8 km/h (1 Bft) 97,87 %
08.12.2016 06:46 -2,9 C 97 % 1037,0 hPa 0,0 l/m 2,6 km/h (1 Bft) W-NW 284 0 min 0,000 mm 0,0 UV-I 0 W/m -3,3 C -2,9 C 4,8 km/h (1 Bft) 94,74 %
08.12.2016 06:48 -2,9 C 97 % 1036,9 hPa 0,0 l/m 2,2 km/h (1 Bft) W-NW 284 0 min 0,000 mm 0,0 UV-I 0 W/m -3,3 C -2,9 C 3,2 km/h (1 Bft) 100,00 %
08.12.2016 06:50 -2,9 C 97 % 1036,8 hPa 0,0 l/m 2,7 km/h (1 Bft) W-NW 284 0 min 0,000 mm 0,0 UV-I 0 W/m -3,3 C -2,9 C 4,8 km/h (1 Bft) 100,00 %
08.12.2016 06:52 -2,9 C 97 % 1036,8 hPa 0,0 l/m 2,1 km/h (1 Bft) W-NW 284 0 min 0,000 mm 0,0 UV-I 0 W/m -3,3 C -2,9 C 4,8 km/h (1 Bft) 100,00 %
08.12.2016 06:54 -2,9 C 97 % 1036,9 hPa 0,0 l/m 2,0 km/h (1 Bft) W-NW 284 0 min 0,000 mm 0,0 UV-I 0 W/m -3,3 C -2,9 C 3,2 km/h (1 Bft) 100,00 %
08.12.2016 06:56 -3,0 C 97 % 1036,9 hPa 0,0 l/m 1,2 km/h (1 Bft) W-NW 284 0 min 0,000 mm 0,0 UV-I 0 W/m -3,4 C -3,0 C 3,2 km/h (1 Bft) 100,00 %
08.12.2016 06:58 -3,0 C 97 % 1036,9 hPa 0,0 l/m 1,0 km/h (0 Bft) W-NW 284 0 min 0,000 mm 0,0 UV-I 0 W/m -3,4 C -3,0 C 3,2 km/h (1 Bft) 100,00 %
08.12.2016 07:00 -3,0 C 97 % 1036,9 hPa 0,0 l/m 0,4 km/h (0 Bft) W-NW 284 0 min 0,000 mm 0,0 UV-I 0 W/m -3,4 C -3,0 C 1,6 km/h (1 Bft) 100,00 %
08.12.2016 07:02 -3,0 C 97 % 1036,9 hPa 0,0 l/m 2,4 km/h (1 Bft) W-NW 284 0 min 0,000 mm 0,0 UV-I 0 W/m -3,4 C -3,0 C 4,8 km/h (1 Bft) 97,56 %
08.12.2016 07:04 -3,0 C 97 % 1036,9 hPa 0,0 l/m 1,3 km/h (1 Bft) W-NW 284 0 min 0,000 mm 0,0 UV-I 0 W/m -3,4 C -3,0 C 3,2 km/h (1 Bft) 100,00 %
08.12.2016 07:06 -3,0 C 97 % 1036,9 hPa 0,0 l/m 2,5 km/h (1 Bft) W-NW 284 0 min 0,000 mm 0,0 UV-I 0 W/m -3,4 C -3,0 C 4,8 km/h (1 Bft) 97,14 %
08.12.2016 07:08 -3,0 C 97 % 1036,9 hPa 0,0 l/m 0,6 km/h (0 Bft) W-NW 284 0 min 0,000 mm 0,0 UV-I 0 W/m -3,4 C -3,0 C 1,6 km/h (1 Bft) 100,00 %
08.12.2016 07:10 -3,0 C 97 % 1036,9 hPa 0,0 l/m 0,1 km/h (0 Bft) W-NW 284 0 min 0,000 mm 0,0 UV-I 0 W/m -3,4 C -3,0 C 1,6 km/h (1 Bft) 100,00 %
08.12.2016 07:12 -3,0 C 97 % 1036,9 hPa 0,0 l/m 0,0 km/h (0 Bft) W-NW 284 0 min 0,000 mm 0,0 UV-I 0 W/m -3,4 C -3,0 C 0,0 km/h (0 Bft) 95,74 %
08.12.2016 07:14 -3,0 C 97 % 1036,8 hPa 0,0 l/m 0,2 km/h (0 Bft) W-NW 284 0 min 0,000 mm 0,0 UV-I 0 W/m -3,4 C -3,0 C 1,6 km/h (1 Bft) 100,00 %
08.12.2016 07:16 -3,0 C 97 % 1036,8 hPa 0,0 l/m 0,7 km/h (0 Bft) W-NW 284 0 min 0,000 mm 0,0 UV-I 0 W/m -3,4 C -3,0 C 1,6 km/h (1 Bft) 100,00 %
08.12.2016 07:18 -2,9 C 97 % 1036,8 hPa 0,0 l/m 1,1 km/h (1 Bft) W-NW 284 0 min 0,000 mm 0,0 UV-I 0 W/m -3,3 C -2,9 C 3,2 km/h (1 Bft) 100,00 %
08.12.2016 07:20 -2,9 C 97 % 1036,8 hPa 0,0 l/m 2,7 km/h (1 Bft) W-NW 284 0 min 0,000 mm 0,0 UV-I 0 W/m -3,3 C -2,9 C 4,8 km/h (1 Bft) 100,00 %
08.12.2016 07:22 -2,9 C 97 % 1036,8 hPa 0,0 l/m 2,2 km/h (1 Bft) W-NW 284 0 min 0,000 mm 0,0 UV-I 0 W/m -3,3 C -2,9 C 3,2 km/h (1 Bft) 100,00 %
08.12.2016 07:24 -2,9 C 97 % 1036,8 hPa 0,0 l/m 3,4 km/h (1 Bft) W-SW 247 0 min 0,000 mm 0,0 UV-I 0 W/m -3,3 C -2,9 C 4,8 km/h (1 Bft) 100,00 %
08.12.2016 07:26 -2,9 C 97 % 1036,8 hPa 0,0 l/m 2,8 km/h (1 Bft) W-SW 247 0 min 0,000 mm 0,0 UV-I 0 W/m -3,3 C -2,9 C 4,8 km/h (1 Bft) 95,74 %
08.12.2016 07:28 -2,9 C 97 % 1036,8 hPa 0,0 l/m 2,1 km/h (1 Bft) W-SW 247 0 min 0,000 mm 0,0 UV-I 0 W/m -3,3 C -2,9 C 4,8 km/h (1 Bft) 98,00 %
08.12.2016 07:30 -2,9 C 97 % 1036,8 hPa 0,0 l/m 2,2 km/h (1 Bft) W-SW 247 0 min 0,000 mm 0,0 UV-I 0 W/m -3,3 C -2,9 C 4,8 km/h (1 Bft) 100,00 %
08.12.2016 07:32 -2,9 C 97 % 1036,8 hPa 0,0 l/m 3,7 km/h (1 Bft) W-SW 246 0 min 0,000 mm 0,0 UV-I 0 W/m -3,3 C -2,9 C 4,8 km/h (1 Bft) 100,00 %
08.12.2016 07:34 -2,9 C 97 % 1036,8 hPa 0,0 l/m 2,7 km/h (1 Bft) W-SW 249 0 min 0,000 mm 0,0 UV-I 0 W/m -3,3 C -2,9 C 4,8 km/h (1 Bft) 97,56 %
08.12.2016 07:36 -3,0 C 97 % 1036,9 hPa 0,0 l/m 0,5 km/h (0 Bft) W-SW 249 0 min 0,000 mm 0,0 UV-I 0 W/m -3,4 C -3,0 C 1,6 km/h (1 Bft) 100,00 %
08.12.2016 07:38 -3,0 C 97 % 1037,0 hPa 0,0 l/m 0,0 km/h (0 Bft) W-SW 249 0 min 0,000 mm 0,0 UV-I 0 W/m -3,4 C -3,0 C 0,0 km/h (0 Bft) 100,00 %
08.12.2016 07:40 -3,0 C 97 % 1037,0 hPa 0,0 l/m 0,3 km/h (0 Bft) W-SW 250 0 min 0,000 mm 0,0 UV-I 3 W/m -3,4 C -3,0 C 1,6 km/h (1 Bft) 97,37 %
08.12.2016 07:42 -3,0 C 97 % 1037,0 hPa 0,0 l/m 0,3 km/h (0 Bft) W-SW 250 0 min 0,000 mm 0,0 UV-I 5 W/m -3,4 C -3,0 C 1,6 km/h (1 Bft) 97,87 %
08.12.2016 07:44 -3,0 C 97 % 1037,0 hPa 0,0 l/m 0,0 km/h (0 Bft) W-SW 250 0 min 0,000 mm 0,0 UV-I 5 W/m -3,4 C -3,0 C 0,0 km/h (0 Bft) 98,11 %
08.12.2016 07:46 -3,1 C 97 % 1037,0 hPa 0,0 l/m 0,0 km/h (0 Bft) W-SW 250 0 min 0,000 mm 0,0 UV-I 5 W/m -3,5 C -3,1 C 0,0 km/h (0 Bft) 97,37 %
08.12.2016 07:48 -3,1 C 97 % 1037,1 hPa 0,0 l/m 0,0 km/h (0 Bft) W-SW 250 0 min 0,000 mm 0,0 UV-I 5 W/m -3,5 C -3,1 C 0,0 km/h (0 Bft) 95,74 %
08.12.2016 07:50 -3,0 C 97 % 1037,0 hPa 0,0 l/m 0,0 km/h (0 Bft) W-SW 250 0 min 0,000 mm 0,0 UV-I 5 W/m -3,4 C -3,0 C 0,0 km/h (0 Bft) 100,00 %
08.12.2016 07:52 -3,0 C 97 % 1037,1 hPa 0,0 l/m 0,0 km/h (0 Bft) W-SW 250 0 min 0,000 mm 0,0 UV-I 5 W/m -3,4 C -3,0 C 0,0 km/h (0 Bft) 96,00 %
08.12.2016 07:54 -3,1 C 97 % 1037,1 hPa 0,0 l/m 0,1 km/h (0 Bft) W-SW 250 0 min 0,000 mm 0,0 UV-I 5 W/m -3,5 C -3,1 C 1,6 km/h (1 Bft) 96,00 %
08.12.2016 07:56 -3,0 C 97 % 1037,1 hPa 0,0 l/m 0,3 km/h (0 Bft) W-SW 250 0 min 0,000 mm 0,0 UV-I 7 W/m -3,4 C -3,0 C 1,6 km/h (1 Bft) 95,74 %
08.12.2016 07:58 -3,0 C 97 % 1037,2 hPa 0,0 l/m 0,2 km/h (0 Bft) W-SW 255 0 min 0,000 mm 0,0 UV-I 7 W/m -3,4 C -3,0 C 1,6 km/h (1 Bft) 97,22 %
08.12.2016 08:00 -3,0 C 97 % 1037,2 hPa 0,0 l/m 0,2 km/h (0 Bft) W 265 0 min 0,000 mm 0,0 UV-I 9 W/m -3,4 C -3,0 C 1,6 km/h (1 Bft) 98,21 %
08.12.2016 08:02 -3,0 C 97 % 1037,2 hPa 0,0 l/m 0,7 km/h (0 Bft) NW 304 0 min 0,000 mm 0,0 UV-I 9 W/m -3,4 C -3,0 C 1,6 km/h (1 Bft) 98,00 %
08.12.2016 08:04 -3,0 C 97 % 1037,1 hPa 0,0 l/m 0,3 km/h (0 Bft) NW 304 0 min 0,000 mm 0,0 UV-I 11 W/m -3,4 C -3,0 C 1,6 km/h (1 Bft) 97,37 %
08.12.2016 08:06 -3,0 C 97 % 1037,1 hPa 0,0 l/m 0,1 km/h (0 Bft) NW 304 0 min 0,000 mm 0,0 UV-I 11 W/m -3,4 C -3,0 C 1,6 km/h (1 Bft) 98,00 %
08.12.2016 08:08 -3,1 C 97 % 1037,1 hPa 0,0 l/m 0,0 km/h (0 Bft) NW 305 0 min 0,000 mm 0,0 UV-I 11 W/m -3,5 C -3,1 C 1,6 km/h (1 Bft) 96,00 %
08.12.2016 08:10 -3,1 C 97 % 1037,1 hPa 0,0 l/m 0,0 km/h (0 Bft) NW 304 0 min 0,000 mm 0,0 UV-I 12 W/m -3,5 C -3,1 C 1,6 km/h (1 Bft) 97,87 %
08.12.2016 08:12 -3,1 C 97 % 1037,0 hPa 0,0 l/m 0,0 km/h (0 Bft) NW 304 0 min 0,000 mm 0,0 UV-I 15 W/m -3,5 C -3,1 C 0,0 km/h (0 Bft) 94,74 %
08.12.2016 08:14 -3,1 C 97 % 1037,0 hPa 0,0 l/m 1,7 km/h (1 Bft) NW 305 0 min 0,000 mm 0,0 UV-I 19 W/m -3,5 C -3,1 C 3,2 km/h (1 Bft) 97,87 %
08.12.2016 08:16 -3,1 C 97 % 1037,0 hPa 0,0 l/m 0,3 km/h (0 Bft) NW 305 0 min 0,000 mm 0,0 UV-I 24 W/m -3,5 C -3,1 C 1,6 km/h (1 Bft) 97,56 %
08.12.2016 08:18 -3,1 C 97 % 1037,0 hPa 0,0 l/m 0,0 km/h (0 Bft) NW 304 0 min 0,000 mm 0,0 UV-I 26 W/m -3,5 C -3,1 C 0,0 km/h (0 Bft) 96,77 %
08.12.2016 08:20 -3,1 C 97 % 1037,0 hPa 0,0 l/m 0,0 km/h (0 Bft) NW 304 0 min 0,000 mm 0,0 UV-I 26 W/m -3,5 C -3,1 C 1,6 km/h (1 Bft) 97,56 %
08.12.2016 08:22 -3,1 C 97 % 1037,0 hPa 0,0 l/m 1,2 km/h (1 Bft) NW 304 0 min 0,000 mm 0,0 UV-I 28 W/m -3,5 C -3,1 C 3,2 km/h (1 Bft) 98,00 %
08.12.2016 08:24 -3,1 C 97 % 1037,0 hPa 0,0 l/m 1,3 km/h (1 Bft) NW 304 0 min 0,000 mm 0,0 UV-I 29 W/m -3,5 C -3,1 C 3,2 km/h (1 Bft) 95,00 %
08.12.2016 08:26 -3,0 C 97 % 1037,0 hPa 0,0 l/m 0,4 km/h (0 Bft) NW 305 0 min 0,000 mm 0,0 UV-I 32 W/m -3,4 C -3,0 C 3,2 km/h (1 Bft) 97,87 %
08.12.2016 08:28 -2,9 C 97 % 1037,1 hPa 0,0 l/m 0,2 km/h (0 Bft) NW 304 0 min 0,000 mm 0,0 UV-I 38 W/m -3,3 C -2,9 C 1,6 km/h (1 Bft) 98,00 %
08.12.2016 08:30 -2,9 C 97 % 1037,0 hPa 0,0 l/m 1,1 km/h (1 Bft) W-NW 302 0 min 0,000 mm 0,0 UV-I 41 W/m -3,3 C -2,9 C 3,2 km/h (1 Bft) 100,00 %
08.12.2016 08:32 -2,9 C 97 % 1037,0 hPa 0,0 l/m 1,0 km/h (0 Bft) W-SW 248 0 min 0,000 mm 0,0 UV-I 42 W/m -3,3 C -2,9 C 3,2 km/h (1 Bft) 100,00 %
08.12.2016 08:34 -2,9 C 97 % 1037,0 hPa 0,0 l/m 0,2 km/h (0 Bft) W-SW 248 0 min 0,000 mm 0,0 UV-I 44 W/m -3,3 C -2,9 C 1,6 km/h (1 Bft) 96,00 %
08.12.2016 08:36 -2,9 C 97 % 1036,9 hPa 0,0 l/m 2,5 km/h (1 Bft) W-SW 248 0 min 0,000 mm 0,0 UV-I 41 W/m -3,3 C -2,9 C 4,8 km/h (1 Bft) 100,00 %
08.12.2016 08:38 -2,9 C 97 % 1037,0 hPa 0,0 l/m 1,5 km/h (1 Bft) W-SW 248 0 min 0,000 mm 0,0 UV-I 36 W/m -3,3 C -2,9 C 3,2 km/h (1 Bft) 100,00 %
08.12.2016 08:40 -2,9 C 97 % 1037,0 hPa 0,0 l/m 0,9 km/h (0 Bft) W-SW 248 0 min 0,000 mm 0,0 UV-I 30 W/m -3,3 C -2,9 C 3,2 km/h (1 Bft) 97,87 %
08.12.2016 08:42 -2,9 C 97 % 1037,0 hPa 0,0 l/m 0,0 km/h (0 Bft) W-SW 248 0 min 0,000 mm 0,0 UV-I 24 W/m -3,3 C -2,9 C 0,0 km/h (0 Bft) 100,00 %
08.12.2016 08:44 -2,9 C 97 % 1037,0 hPa 0,0 l/m 1,8 km/h (1 Bft) W-SW 248 0 min 0,000 mm 0,0 UV-I 22 W/m -3,3 C -2,9 C 3,2 km/h (1 Bft) 100,00 %
08.12.2016 08:46 -2,9 C 97 % 1037,0 hPa 0,0 l/m 2,7 km/h (1 Bft) W-SW 248 0 min 0,000 mm 0,0 UV-I 23 W/m -3,3 C -2,9 C 4,8 km/h (1 Bft) 98,00 %
08.12.2016 08:48 -2,9 C 97 % 1037,1 hPa 0,0 l/m 0,1 km/h (0 Bft) W-SW 248 0 min 0,000 mm 0,0 UV-I 25 W/m -3,3 C -2,9 C 1,6 km/h (1 Bft) 100,00 %
08.12.2016 08:50 -2,9 C 97 % 1037,1 hPa 0,0 l/m 0,0 km/h (0 Bft) W-SW 248 0 min 0,000 mm 0,0 UV-I 31 W/m -3,3 C -2,9 C 0,0 km/h (0 Bft) 100,00 %
08.12.2016 08:52 -2,9 C 97 % 1037,1 hPa 0,0 l/m 0,1 km/h (0 Bft) SW 227 0 min 0,000 mm 0,0 UV-I 36 W/m -3,3 C -2,9 C 1,6 km/h (1 Bft) 100,00 %
08.12.2016 08:54 -2,9 C 97 % 1037,1 hPa 0,0 l/m 1,3 km/h (1 Bft) S 175 0 min 0,000 mm 0,0 UV-I 41 W/m -3,3 C -2,9 C 4,8 km/h (1 Bft) 100,00 %
08.12.2016 08:56 -2,9 C 97 % 1037,1 hPa 0,0 l/m 0,2 km/h (0 Bft) S 175 0 min 0,000 mm 0,0 UV-I 42 W/m -3,3 C -2,9 C 1,6 km/h (1 Bft) 100,00 %
08.12.2016 08:58 -2,9 C 97 % 1037,2 hPa 0,0 l/m 0,1 km/h (0 Bft) S 175 0 min 0,000 mm 0,0 UV-I 42 W/m -3,3 C -2,9 C 1,6 km/h (1 Bft) 100,00 %
08.12.2016 09:00 -2,9 C 97 % 1037,1 hPa 0,0 l/m 0,7 km/h (0 Bft) S 175 0 min 0,000 mm 0,0 UV-I 47 W/m -3,3 C -2,9 C 1,6 km/h (1 Bft) 100,00 %
08.12.2016 09:02 -2,9 C 97 % 1037,2 hPa 0,0 l/m 0,1 km/h (0 Bft) S 175 0 min 0,000 mm 0,0 UV-I 47 W/m -3,3 C -2,9 C 1,6 km/h (1 Bft) 97,37 %
08.12.2016 09:04 -2,9 C 97 % 1037,2 hPa 0,0 l/m 0,6 km/h (0 Bft) S 175 0 min 0,000 mm 0,0 UV-I 44 W/m -3,3 C -2,9 C 1,6 km/h (1 Bft) 100,00 %
08.12.2016 09:06 -2,8 C 97 % 1037,1 hPa 0,0 l/m 2,5 km/h (1 Bft) S 186 0 min 0,000 mm 0,0 UV-I 47 W/m -3,2 C -2,8 C 4,8 km/h (1 Bft) 100,00 %
08.12.2016 09:08 -2,8 C 97 % 1037,1 hPa 0,0 l/m 2,0 km/h (1 Bft) S 186 0 min 0,000 mm 0,0 UV-I 51 W/m -3,2 C -2,8 C 4,8 km/h (1 Bft) 100,00 %
08.12.2016 09:10 -2,8 C 97 % 1037,1 hPa 0,0 l/m 1,6 km/h (1 Bft) S 186 0 min 0,000 mm 0,0 UV-I 50 W/m -3,2 C -2,8 C 4,8 km/h (1 Bft) 96,72 %
08.12.2016 09:12 -2,8 C 97 % 1037,1 hPa 0,0 l/m 1,2 km/h (1 Bft) S 186 0 min 0,000 mm 0,0 UV-I 51 W/m -3,2 C -2,8 C 3,2 km/h (1 Bft) 98,00 %
08.12.2016 09:14 -2,8 C 97 % 1037,1 hPa 0,0 l/m 2,5 km/h (1 Bft) S 186 0 min 0,000 mm 0,0 UV-I 54 W/m -3,2 C -2,8 C 4,8 km/h (1 Bft) 100,00 %
08.12.2016 09:16 -2,7 C 97 % 1037,1 hPa 0,0 l/m 4,1 km/h (1 Bft) W-SW 238 0 min 0,000 mm 0,0 UV-I 62 W/m -3,1 C -2,7 C 6,4 km/h (2 Bft) 100,00 %
08.12.2016 09:18 -2,8 C 97 % 1037,2 hPa 0,0 l/m 1,6 km/h (1 Bft) W-SW 237 0 min 0,000 mm 0,0 UV-I 66 W/m -3,2 C -2,8 C 4,8 km/h (1 Bft) 100,00 %
08.12.2016 09:20 -2,8 C 97 % 1037,3 hPa 0,0 l/m 1,8 km/h (1 Bft) W-SW 237 0 min 0,000 mm 0,0 UV-I 63 W/m -3,2 C -2,8 C 4,8 km/h (1 Bft) 100,00 %
08.12.2016 09:22 -2,8 C 97 % 1037,3 hPa 0,0 l/m 3,4 km/h (1 Bft) SW 236 0 min 0,000 mm 0,0 UV-I 60 W/m -3,2 C -2,8 C 6,4 km/h (2 Bft) 100,00 %
08.12.2016 09:24 -2,8 C 97 % 1037,2 hPa 0,0 l/m 3,0 km/h (1 Bft) SW 236 0 min 0,000 mm 0,0 UV-I 63 W/m -3,2 C -2,8 C 4,8 km/h (1 Bft) 100,00 %
08.12.2016 09:26 -2,8 C 97 % 1037,2 hPa 0,0 l/m 3,5 km/h (1 Bft) SW 236 0 min 0,000 mm 0,0 UV-I 61 W/m -3,2 C -2,8 C 6,4 km/h (2 Bft) 100,00 %
08.12.2016 09:28 -2,8 C 97 % 1037,2 hPa 0,0 l/m 2,6 km/h (1 Bft) W-SW 257 0 min 0,000 mm 0,0 UV-I 63 W/m -3,2 C -2,8 C 4,8 km/h (1 Bft) 100,00 %
08.12.2016 09:30 -2,8 C 97 % 1037,2 hPa 0,0 l/m 0,9 km/h (0 Bft) W-SW 257 0 min 0,000 mm 0,0 UV-I 68 W/m -3,2 C -2,8 C 3,2 km/h (1 Bft) 96,00 %
08.12.2016 09:32 -2,8 C 97 % 1037,3 hPa 0,0 l/m 1,2 km/h (1 Bft) W-SW 257 0 min 0,000 mm 0,0 UV-I 75 W/m -3,2 C -2,8 C 3,2 km/h (1 Bft) 100,00 %
08.12.2016 09:34 -2,8 C 97 % 1037,2 hPa 0,0 l/m 1,1 km/h (1 Bft) W-SW 257 0 min 0,000 mm 0,0 UV-I 82 W/m -3,2 C -2,8 C 3,2 km/h (1 Bft) 100,00 %
08.12.2016 09:36 -2,8 C 97 % 1037,2 hPa 0,0 l/m 1,6 km/h (1 Bft) W-SW 257 0 min 0,000 mm 0,0 UV-I 95 W/m -3,2 C -2,8 C 3,2 km/h (1 Bft) 97,73 %
08.12.2016 09:38 -2,8 C 97 % 1037,3 hPa 0,0 l/m 0,6 km/h (0 Bft) W-SW 257 0 min 0,000 mm 0,0 UV-I 99 W/m -3,2 C -2,8 C 1,6 km/h (1 Bft) 100,00 %
08.12.2016 09:40 -2,7 C 97 % 1037,2 hPa 0,0 l/m 0,1 km/h (0 Bft) W-SW 257 0 min 0,000 mm 0,0 UV-I 107 W/m -3,1 C -2,7 C 1,6 km/h (1 Bft) 100,00 %
08.12.2016 09:42 -2,7 C 97 % 1037,2 hPa 0,0 l/m 0,3 km/h (0 Bft) W-SW 257 0 min 0,000 mm 0,0 UV-I 116 W/m -3,1 C -2,7 C 1,6 km/h (1 Bft) 100,00 %
08.12.2016 09:44 -2,7 C 98 % 1037,3 hPa 0,0 l/m 0,1 km/h (0 Bft) W-SW 257 0 min 0,000 mm 0,0 UV-I 121 W/m -3,0 C -2,7 C 1,6 km/h (1 Bft) 98,00 %
08.12.2016 09:46 -2,7 C 98 % 1037,2 hPa 0,0 l/m 0,2 km/h (0 Bft) W-SW 257 0 min 0,000 mm 0,0 UV-I 120 W/m -3,0 C -2,7 C 1,6 km/h (1 Bft) 100,00 %
08.12.2016 09:48 -2,7 C 98 % 1037,2 hPa 0,0 l/m 0,4 km/h (0 Bft) W-SW 257 0 min 0,000 mm 0,0 UV-I 124 W/m -3,0 C -2,7 C 1,6 km/h (1 Bft) 100,00 %
08.12.2016 09:50 -2,6 C 98 % 1037,2 hPa 0,0 l/m 0,4 km/h (0 Bft) S-SW 196 0 min 0,000 mm 0,0 UV-I 131 W/m -2,9 C -2,6 C 1,6 km/h (1 Bft) 100,00 %
08.12.2016 09:52 -2,6 C 97 % 1037,3 hPa 0,0 l/m 2,6 km/h (1 Bft) S 181 0 min 0,000 mm 0,0 UV-I 125 W/m -3,0 C -2,6 C 4,8 km/h (1 Bft) 100,00 %
08.12.2016 09:54 -2,6 C 97 % 1037,2 hPa 0,0 l/m 2,2 km/h (1 Bft) S-SO 157 0 min 0,000 mm 0,0 UV-I 105 W/m -3,0 C -2,6 C 6,4 km/h (2 Bft) 100,00 %
08.12.2016 09:56 -2,6 C 97 % 1037,3 hPa 0,0 l/m 1,3 km/h (1 Bft) S-SO 157 0 min 0,000 mm 0,0 UV-I 88 W/m -3,0 C -2,6 C 3,2 km/h (1 Bft) 96,72 %
08.12.2016 09:58 -2,6 C 97 % 1037,3 hPa 0,0 l/m 3,0 km/h (1 Bft) S-SW 200 0 min 0,000 mm 0,0 UV-I 79 W/m -3,0 C -2,6 C 4,8 km/h (1 Bft) 95,83 %
08.12.2016 10:00 -2,5 C 97 % 1037,4 hPa 0,0 l/m 0,3 km/h (0 Bft) S-SW 200 0 min 0,025 mm 0,0 UV-I 72 W/m -2,9 C -2,5 C 1,6 km/h (1 Bft) 97,87 %
08.12.2016 10:02 -2,4 C 97 % 1037,4 hPa 0,0 l/m 1,2 km/h (1 Bft) S-SW 202 0 min 0,000 mm 0,0 UV-I 59 W/m -2,8 C -2,4 C 3,2 km/h (1 Bft) 94,34 %
08.12.2016 10:04 -2,4 C 97 % 1037,4 hPa 0,0 l/m 1,1 km/h (1 Bft) S-SW 202 0 min 0,000 mm 0,0 UV-I 45 W/m -2,8 C -2,4 C 3,2 km/h (1 Bft) 95,12 %
08.12.2016 10:06 -2,4 C 97 % 1037,3 hPa 0,0 l/m 1,4 km/h (1 Bft) S-SW 202 0 min 0,000 mm 0,0 UV-I 36 W/m -2,8 C -2,4 C 3,2 km/h (1 Bft) 96,00 %
08.12.2016 10:08 -2,5 C 97 % 1037,3 hPa 0,0 l/m 3,0 km/h (1 Bft) S-SW 201 0 min 0,000 mm 0,0 UV-I 35 W/m -2,9 C -2,5 C 4,8 km/h (1 Bft) 94,29 %
08.12.2016 10:10 -2,4 C 97 % 1037,2 hPa 0,0 l/m 2,5 km/h (1 Bft) S-SW 205 0 min 0,000 mm 0,0 UV-I 35 W/m -2,8 C -2,4 C 4,8 km/h (1 Bft) 98,00 %
08.12.2016 10:12 -2,5 C 97 % 1037,3 hPa 0,0 l/m 4,1 km/h (1 Bft) W 271 0 min 0,000 mm 0,0 UV-I 33 W/m -2,9 C -2,5 C 6,4 km/h (2 Bft) 92,00 %
08.12.2016 10:14 -2,5 C 97 % 1037,3 hPa 0,0 l/m 2,8 km/h (1 Bft) W 271 0 min 0,000 mm 0,0 UV-I 33 W/m -2,9 C -2,5 C 6,4 km/h (2 Bft) 94,34 %
08.12.2016 10:16 -2,5 C 97 % 1037,3 hPa 0,0 l/m 1,3 km/h (1 Bft) W 271 0 min 0,000 mm 0,0 UV-I 32 W/m -2,9 C -2,5 C 3,2 km/h (1 Bft) 94,74 %
08.12.2016 10:19 -2,6 C 97 % 1037,3 hPa 0,0 l/m 0,7 km/h (0 Bft) W 271 0 min 0,000 mm 0,0 UV-I 29 W/m -3,0 C -2,6 C 3,2 km/h (1 Bft) 97,40 %
08.12.2016 10:20 -2,6 C 97 % 1037,3 hPa 0,0 l/m 0,0 km/h (0 Bft) W 271 0 min 0,000 mm 0,0 UV-I 28 W/m -3,0 C -2,6 C 0,0 km/h (0 Bft) 100,00 %
08.12.2016 10:22 -2,6 C 97 % 1037,2 hPa 0,0 l/m 0,0 km/h (0 Bft) W 271 0 min 0,000 mm 0,0 UV-I 31 W/m -3,0 C -2,6 C 0,0 km/h (0 Bft) 95,74 %
08.12.2016 10:24 -2,6 C 97 % 1037,0 hPa 0,0 l/m 1,4 km/h (1 Bft) W 259 0 min 0,000 mm 0,0 UV-I 64 W/m -3,0 C -2,6 C 6,4 km/h (2 Bft) 92,11 %
08.12.2016 10:26 -2,6 C 97 % 1037,0 hPa 0,0 l/m 3,3 km/h (1 Bft) W-SW 243 0 min 0,000 mm 0,0 UV-I 69 W/m -3,0 C -2,6 C 6,4 km/h (2 Bft) 98,11 %
08.12.2016 10:28 -2,6 C 97 % 1037,0 hPa 0,0 l/m 0,9 km/h (0 Bft) W-SW 243 0 min 0,000 mm 0,0 UV-I 83 W/m -3,0 C -2,6 C 3,2 km/h (1 Bft) 96,00 %
08.12.2016 10:30 -2,5 C 97 % 1037,0 hPa 0,0 l/m 0,0 km/h (0 Bft) W-SW 243 0 min 0,000 mm 0,0 UV-I 85 W/m -2,9 C -2,5 C 0,0 km/h (0 Bft) 96,00 %
08.12.2016 10:32 -2,4 C 98 % 1036,9 hPa 0,0 l/m 0,0 km/h (0 Bft) W-SW 243 0 min 0,000 mm 0,0 UV-I 95 W/m -2,7 C -2,4 C 0,0 km/h (0 Bft) 100,00 %
08.12.2016 10:34 -2,3 C 98 % 1036,9 hPa 0,0 l/m 2,3 km/h (1 Bft) W-SW 243 0 min 0,000 mm 0,0 UV-I 101 W/m -2,6 C -2,3 C 3,2 km/h (1 Bft) 100,00 %
08.12.2016 10:36 -2,4 C 98 % 1036,8 hPa 0,0 l/m 2,7 km/h (1 Bft) W-SW 246 0 min 0,000 mm 0,0 UV-I 109 W/m -2,7 C -2,4 C 4,8 km/h (1 Bft) 100,00 %
08.12.2016 10:38 -2,4 C 97 % 1036,8 hPa 0,0 l/m 0,0 km/h (0 Bft) W-SW 246 0 min 0,000 mm 0,0 UV-I 109 W/m -2,8 C -2,4 C 0,0 km/h (0 Bft) 100,00 %
08.12.2016 10:40 -2,4 C 98 % 1036,8 hPa 0,0 l/m 0,1 km/h (0 Bft) W-SW 246 0 min 0,000 mm 0,0 UV-I 108 W/m -2,7 C -2,4 C 1,6 km/h (1 Bft) 100,00 %
08.12.2016 10:42 -2,4 C 98 % 1036,8 hPa 0,0 l/m 0,2 km/h (0 Bft) W-SW 246 0 min 0,000 mm 0,0 UV-I 109 W/m -2,7 C -2,4 C 1,6 km/h (1 Bft) 100,00 %
08.12.2016 10:44 -2,4 C 98 % 1036,7 hPa 0,0 l/m 0,0 km/h (0 Bft) W-SW 246 0 min 0,000 mm 0,0 UV-I 103 W/m -2,7 C -2,4 C 0,0 km/h (0 Bft) 100,00 %
08.12.2016 10:46 -2,4 C 98 % 1036,7 hPa 0,0 l/m 0,0 km/h (0 Bft) W-SW 246 0 min 0,000 mm 0,0 UV-I 107 W/m -2,7 C -2,4 C 0,0 km/h (0 Bft) 100,00 %
08.12.2016 10:48 -2,3 C 98 % 1036,7 hPa 0,0 l/m 1,5 km/h (1 Bft) W-SW 243 0 min 0,000 mm 0,0 UV-I 116 W/m -2,6 C -2,3 C 4,8 km/h (1 Bft) 100,00 %
08.12.2016 10:50 -2,3 C 98 % 1036,7 hPa 0,0 l/m 2,4 km/h (1 Bft) W-SW 242 0 min 0,000 mm 0,0 UV-I 125 W/m -2,6 C -2,3 C 4,8 km/h (1 Bft) 100,00 %
08.12.2016 10:52 -2,2 C 98 % 1036,7 hPa 0,0 l/m 1,6 km/h (1 Bft) W-SW 242 0 min 0,000 mm 0,0 UV-I 124 W/m -2,5 C -2,2 C 3,2 km/h (1 Bft) 100,00 %
08.12.2016 10:54 -2,2 C 98 % 1036,7 hPa 0,0 l/m 1,5 km/h (1 Bft) W-SW 244 0 min 0,000 mm 0,0 UV-I 119 W/m -2,5 C -2,2 C 3,2 km/h (1 Bft) 100,00 %
08.12.2016 10:56 -2,2 C 98 % 1036,7 hPa 0,0 l/m 3,9 km/h (1 Bft) W-SW 251 0 min 0,000 mm 0,0 UV-I 119 W/m -2,5 C -2,2 C 4,8 km/h (1 Bft) 97,87 %
08.12.2016 10:58 -2,3 C 98 % 1036,7 hPa 0,0 l/m 3,4 km/h (1 Bft) W-SW 251 0 min 0,000 mm 0,0 UV-I 117 W/m -2,6 C -2,3 C 4,8 km/h (1 Bft) 100,00 %
08.12.2016 11:00 -2,3 C 98 % 1036,7 hPa 0,0 l/m 1,3 km/h (1 Bft) W-SW 251 0 min 0,026 mm 0,0 UV-I 115 W/m -2,6 C -2,3 C 3,2 km/h (1 Bft) 100,00 %
08.12.2016 11:02 -2,3 C 98 % 1036,6 hPa 0,0 l/m 1,9 km/h (1 Bft) W 273 0 min 0,000 mm 0,0 UV-I 115 W/m -2,6 C -2,3 C 3,2 km/h (1 Bft) 100,00 %
08.12.2016 11:04 -2,3 C 98 % 1036,5 hPa 0,0 l/m 2,1 km/h (1 Bft) S-SW 197 0 min 0,000 mm 0,0 UV-I 115 W/m -2,6 C -2,3 C 3,2 km/h (1 Bft) 97,56 %
08.12.2016 11:06 -2,3 C 98 % 1036,5 hPa 0,0 l/m 0,9 km/h (0 Bft) S-SW 194 0 min 0,000 mm 0,0 UV-I 116 W/m -2,6 C -2,3 C 3,2 km/h (1 Bft) 96,23 %
08.12.2016 11:08 -2,3 C 98 % 1036,4 hPa 0,0 l/m 0,5 km/h (0 Bft) S-SW 194 0 min 0,000 mm 0,0 UV-I 123 W/m -2,6 C -2,3 C 1,6 km/h (1 Bft) 100,00 %
08.12.2016 11:10 -2,2 C 98 % 1036,4 hPa 0,0 l/m 0,4 km/h (0 Bft) S-SW 194 0 min 0,000 mm 0,0 UV-I 122 W/m -2,5 C -2,2 C 1,6 km/h (1 Bft) 100,00 %
08.12.2016 11:12 -2,2 C 98 % 1036,4 hPa 0,0 l/m 2,0 km/h (1 Bft) S-SW 200 0 min 0,000 mm 0,0 UV-I 128 W/m -2,5 C -2,2 C 4,8 km/h (1 Bft) 100,00 %
08.12.2016 11:14 -2,1 C 98 % 1036,4 hPa 0,0 l/m 3,3 km/h (1 Bft) S-SW 200 0 min 0,000 mm 0,0 UV-I 135 W/m -2,4 C -2,1 C 4,8 km/h (1 Bft) 100,00 %
08.12.2016 11:16 -2,1 C 98 % 1036,4 hPa 0,0 l/m 1,5 km/h (1 Bft) SW 223 0 min 0,000 mm 0,0 UV-I 129 W/m -2,4 C -2,1 C 3,2 km/h (1 Bft) 100,00 %
08.12.2016 11:18 -2,1 C 98 % 1036,5 hPa 0,0 l/m 1,3 km/h (1 Bft) W 261 0 min 0,000 mm 0,0 UV-I 121 W/m -2,4 C -2,1 C 3,2 km/h (1 Bft) 100,00 %
08.12.2016 11:20 -2,2 C 98 % 1036,5 hPa 0,0 l/m 1,1 km/h (1 Bft) W 280 0 min 0,000 mm 0,0 UV-I 113 W/m -2,5 C -2,2 C 3,2 km/h (1 Bft) 100,00 %
08.12.2016 11:22 -2,2 C 98 % 1036,5 hPa 0,0 l/m 0,6 km/h (0 Bft) W 280 0 min 0,000 mm 0,0 UV-I 116 W/m -2,5 C -2,2 C 3,2 km/h (1 Bft) 100,00 %
08.12.2016 11:24 -2,2 C 98 % 1036,5 hPa 0,0 l/m 0,0 km/h (0 Bft) W 280 0 min 0,000 mm 0,0 UV-I 120 W/m -2,5 C -2,2 C 0,0 km/h (0 Bft) 100,00 %
08.12.2016 11:26 -2,2 C 98 % 1036,4 hPa 0,0 l/m 1,2 km/h (1 Bft) W 280 0 min 0,000 mm 0,0 UV-I 119 W/m -2,5 C -2,2 C 3,2 km/h (1 Bft) 98,00 %
08.12.2016 11:28 -2,2 C 98 % 1036,4 hPa 0,0 l/m 0,7 km/h (0 Bft) W 280 0 min 0,000 mm 0,0 UV-I 116 W/m -2,5 C -2,2 C 1,6 km/h (1 Bft) 100,00 %
08.12.2016 11:30 -2,1 C 98 % 1036,5 hPa 0,0 l/m 1,7 km/h (1 Bft) W-NW 283 0 min 0,000 mm 0,0 UV-I 112 W/m -2,4 C -2,1 C 3,2 km/h (1 Bft) 96,23 %
08.12.2016 11:32 -2,1 C 98 % 1036,5 hPa 0,0 l/m 1,1 km/h (1 Bft) W-NW 290 0 min 0,000 mm 0,0 UV-I 102 W/m -2,4 C -2,1 C 3,2 km/h (1 Bft) 98,00 %
08.12.2016 11:34 -2,0 C 98 % 1036,5 hPa 0,0 l/m 0,5 km/h (0 Bft) NW 313 0 min 0,000 mm 0,0 UV-I 93 W/m -2,3 C -2,0 C 1,6 km/h (1 Bft) 98,00 %
08.12.2016 11:36 -2,0 C 98 % 1036,5 hPa 0,0 l/m 1,3 km/h (1 Bft) NW 314 0 min 0,000 mm 0,0 UV-I 91 W/m -2,3 C -2,0 C 3,2 km/h (1 Bft) 100,00 %
08.12.2016 11:38 -2,1 C 98 % 1036,5 hPa 0,0 l/m 0,9 km/h (0 Bft) NW 314 0 min 0,000 mm 0,0 UV-I 87 W/m -2,4 C -2,1 C 3,2 km/h (1 Bft) 100,00 %
08.12.2016 11:40 -2,0 C 98 % 1036,5 hPa 0,0 l/m 1,6 km/h (1 Bft) NW 307 0 min 0,000 mm 0,0 UV-I 82 W/m -2,3 C -2,0 C 4,8 km/h (1 Bft) 98,11 %
08.12.2016 11:42 -2,1 C 98 % 1036,5 hPa 0,0 l/m 0,3 km/h (0 Bft) NW 307 0 min 0,000 mm 0,0 UV-I 88 W/m -2,4 C -2,1 C 1,6 km/h (1 Bft) 100,00 %
08.12.2016 11:44 -2,0 C 98 % 1036,5 hPa 0,0 l/m 0,4 km/h (0 Bft) NW 325 0 min 0,000 mm 0,0 UV-I 94 W/m -2,3 C -2,0 C 1,6 km/h (1 Bft) 97,87 %
08.12.2016 11:46 -2,1 C 98 % 1036,4 hPa 0,0 l/m 0,6 km/h (0 Bft) N-NW 340 0 min 0,000 mm 0,0 UV-I 101 W/m -2,4 C -2,1 C 1,6 km/h (1 Bft) 100,00 %
08.12.2016 11:48 -2,1 C 98 % 1036,4 hPa 0,0 l/m 0,6 km/h (0 Bft) N-NW 340 0 min 0,000 mm 0,0 UV-I 108 W/m -2,4 C -2,1 C 1,6 km/h (1 Bft) 98,11 %
08.12.2016 11:50 -2,1 C 98 % 1036,3 hPa 0,0 l/m 0,1 km/h (0 Bft) N-NW 340 0 min 0,000 mm 0,0 UV-I 110 W/m -2,4 C -2,1 C 1,6 km/h (1 Bft) 100,00 %
08.12.2016 11:52 -2,1 C 98 % 1036,3 hPa 0,0 l/m 0,0 km/h (0 Bft) N-NW 340 0 min 0,000 mm 0,0 UV-I 109 W/m -2,4 C -2,1 C 0,0 km/h (0 Bft) 96,00 %
08.12.2016 11:54 -2,1 C 98 % 1036,3 hPa 0,0 l/m 0,2 km/h (0 Bft) N-NW 340 0 min 0,000 mm 0,0 UV-I 108 W/m -2,4 C -2,1 C 1,6 km/h (1 Bft) 100,00 %
08.12.2016 11:56 -2,1 C 98 % 1036,3 hPa 0,0 l/m 0,0 km/h (0 Bft) N-NW 340 0 min 0,000 mm 0,0 UV-I 99 W/m -2,4 C -2,1 C 1,6 km/h (1 Bft) 100,00 %
08.12.2016 11:58 -2,1 C 98 % 1036,3 hPa 0,0 l/m 0,4 km/h (0 Bft) NW 304 0 min 0,000 mm 0,0 UV-I 94 W/m -2,4 C -2,1 C 3,2 km/h (1 Bft) 100,00 %
08.12.2016 12:00 -2,1 C 98 % 1036,3 hPa 0,0 l/m 2,9 km/h (1 Bft) W 261 0 min 0,025 mm 0,0 UV-I 93 W/m -2,4 C -2,1 C 6,4 km/h (2 Bft) 95,24 %
08.12.2016 12:02 -2,1 C 98 % 1036,2 hPa 0,0 l/m 2,8 km/h (1 Bft) W 280 0 min 0,000 mm 0,4 UV-I 167 W/m -2,4 C -2,1 C 4,8 km/h (1 Bft) 98,00 %
08.12.2016 12:04 -2,2 C 98 % 1036,1 hPa 0,0 l/m 3,2 km/h (1 Bft) W 274 0 min 0,000 mm 0,0 UV-I 137 W/m -2,5 C -2,2 C 4,8 km/h (1 Bft) 97,56 %
08.12.2016 12:05 -2,2 C 98 % 1036,2 hPa 0,0 l/m 3,2 km/h (1 Bft) W 270 0 min 0,000 mm 0,2 UV-I 149 W/m -2,5 C -2,2 C 4,8 km/h (1 Bft) 100,00 %
08.12.2016 12:08 -2,2 C 98 % 1036,2 hPa 0,0 l/m 2,4 km/h (1 Bft) W 273 0 min 0,000 mm 0,0 UV-I 141 W/m -2,5 C -2,2 C 3,2 km/h (1 Bft) 97,78 %
08.12.2016 12:10 -2,2 C 98 % 1036,1 hPa 0,0 l/m 1,6 km/h (1 Bft) W 273 0 min 0,000 mm 0,0 UV-I 144 W/m -2,5 C -2,2 C 3,2 km/h (1 Bft) 94,59 %
08.12.2016 12:12 -2,1 C 98 % 1036,1 hPa 0,0 l/m 1,1 km/h (1 Bft) W 272 0 min 0,000 mm 0,0 UV-I 140 W/m -2,4 C -2,1 C 3,2 km/h (1 Bft) 96,23 %
08.12.2016 12:14 -2,1 C 98 % 1036,1 hPa 0,0 l/m 3,3 km/h (1 Bft) SW 236 0 min 0,000 mm 0,0 UV-I 136 W/m -2,4 C -2,1 C 6,4 km/h (2 Bft) 97,87 %
08.12.2016 12:16 -2,1 C 98 % 1036,1 hPa 0,0 l/m 0,7 km/h (0 Bft) SW 236 0 min 0,000 mm 0,0 UV-I 137 W/m -2,4 C -2,1 C 1,6 km/h (1 Bft) 95,74 %
08.12.2016 12:18 -1,9 C 98 % 1036,0 hPa 0,0 l/m 0,7 km/h (0 Bft) SW 236 0 min 0,000 mm 0,0 UV-I 137 W/m -2,2 C -1,9 C 4,8 km/h (1 Bft) 96,23 %
08.12.2016 12:20 -1,9 C 98 % 1035,9 hPa 0,0 l/m 2,3 km/h (1 Bft) SW 236 0 min 0,000 mm 0,0 UV-I 157 W/m -2,2 C -1,9 C 4,8 km/h (1 Bft) 97,37 %
08.12.2016 12:22 -1,8 C 98 % 1035,9 hPa 0,0 l/m 3,2 km/h (1 Bft) SW 234 0 min 0,000 mm 0,0 UV-I 163 W/m -2,1 C -1,8 C 6,4 km/h (2 Bft) 98,00 %
08.12.2016 12:24 -1,9 C 98 % 1035,9 hPa 0,0 l/m 3,7 km/h (1 Bft) SW 225 0 min 0,000 mm 0,0 UV-I 153 W/m -2,2 C -1,9 C 6,4 km/h (2 Bft) 96,00 %
08.12.2016 12:26 -1,9 C 98 % 1035,9 hPa 0,0 l/m 3,8 km/h (1 Bft) SW 225 0 min 0,000 mm 0,0 UV-I 142 W/m -2,2 C -1,9 C 6,4 km/h (2 Bft) 97,44 %
08.12.2016 12:28 -2,0 C 98 % 1036,0 hPa 0,0 l/m 3,4 km/h (1 Bft) W-SW 257 0 min 0,000 mm 0,0 UV-I 138 W/m -2,3 C -2,0 C 6,4 km/h (2 Bft) 95,74 %
08.12.2016 12:30 -2,1 C 98 % 1036,0 hPa 0,0 l/m 4,1 km/h (1 Bft) SW 229 0 min 0,000 mm 0,0 UV-I 128 W/m -2,4 C -2,1 C 6,4 km/h (2 Bft) 96,00 %
08.12.2016 12:32 -2,0 C 98 % 1036,0 hPa 0,0 l/m 3,1 km/h (1 Bft) SW 229 0 min 0,000 mm 0,0 UV-I 122 W/m -2,3 C -2,0 C 4,8 km/h (1 Bft) 97,87 %
08.12.2016 12:34 -2,0 C 98 % 1036,0 hPa 0,0 l/m 0,8 km/h (0 Bft) SW 229 0 min 0,000 mm 0,0 UV-I 122 W/m -2,3 C -2,0 C 1,6 km/h (1 Bft) 98,11 %
08.12.2016 12:36 -2,1 C 98 % 1036,0 hPa 0,0 l/m 0,3 km/h (0 Bft) SW 229 0 min 0,000 mm 0,0 UV-I 127 W/m -2,4 C -2,1 C 1,6 km/h (1 Bft) 100,00 %
08.12.2016 12:38 -1,9 C 98 % 1036,0 hPa 0,0 l/m 3,9 km/h (1 Bft) W-SW 252 0 min 0,000 mm 0,0 UV-I 165 W/m -2,2 C -1,9 C 6,4 km/h (2 Bft) 100,00 %
08.12.2016 12:40 -1,8 C 98 % 1036,0 hPa 0,0 l/m 5,1 km/h (1 Bft) W-SW 249 0 min 0,000 mm 0,0 UV-I 163 W/m -2,1 C -1,8 C 8,0 km/h (2 Bft) 100,00 %
08.12.2016 12:42 -1,9 C 98 % 1036,0 hPa 0,0 l/m 3,3 km/h (1 Bft) W-SW 249 0 min 0,000 mm 0,0 UV-I 127 W/m -2,2 C -1,9 C 4,8 km/h (1 Bft) 100,00 %
08.12.2016 12:44 -1,9 C 98 % 1035,9 hPa 0,0 l/m 1,4 km/h (1 Bft) W-SW 249 0 min 0,000 mm 0,0 UV-I 125 W/m -2,2 C -1,9 C 3,2 km/h (1 Bft) 100,00 %
08.12.2016 12:46 -1,9 C 98 % 1035,9 hPa 0,0 l/m 1,2 km/h (1 Bft) W-SW 249 0 min 0,000 mm 0,0 UV-I 137 W/m -2,2 C -1,9 C 3,2 km/h (1 Bft) 98,11 %
08.12.2016 12:48 -1,9 C 98 % 1035,9 hPa 0,0 l/m 2,5 km/h (1 Bft) S-SW 207 0 min 0,000 mm 0,0 UV-I 127 W/m -2,2 C -1,9 C 6,4 km/h (2 Bft) 100,00 %
08.12.2016 12:50 -1,9 C 98 % 1035,8 hPa 0,0 l/m 0,9 km/h (0 Bft) S-SW 207 0 min 0,000 mm 0,0 UV-I 102 W/m -2,2 C -1,9 C 3,2 km/h (1 Bft) 100,00 %
08.12.2016 12:52 -2,0 C 98 % 1035,8 hPa 0,0 l/m 1,9 km/h (1 Bft) SW 233 0 min 0,000 mm 0,0 UV-I 110 W/m -2,3 C -2,0 C 4,8 km/h (1 Bft) 100,00 %
08.12.2016 12:54 -1,9 C 98 % 1035,8 hPa 0,0 l/m 1,5 km/h (1 Bft) SW 233 0 min 0,000 mm 0,0 UV-I 123 W/m -2,2 C -1,9 C 3,2 km/h (1 Bft) 100,00 %
08.12.2016 12:56 -1,8 C 98 % 1035,7 hPa 0,0 l/m 1,8 km/h (1 Bft) SW 223 0 min 0,000 mm 0,0 UV-I 135 W/m -2,1 C -1,8 C 4,8 km/h (1 Bft) 98,00 %
08.12.2016 12:58 -1,8 C 98 % 1035,7 hPa 0,0 l/m 1,7 km/h (1 Bft) S-SW 201 0 min 0,000 mm 0,0 UV-I 136 W/m -2,1 C -1,8 C 4,8 km/h (1 Bft) 98,00 %
08.12.2016 13:00 -1,8 C 98 % 1035,6 hPa 0,0 l/m 3,4 km/h (1 Bft) S-SW 207 0 min 0,000 mm 0,0 UV-I 138 W/m -2,1 C -1,8 C 9,7 km/h (2 Bft) 100,00 %
08.12.2016 13:02 -1,8 C 98 % 1035,6 hPa 0,0 l/m 4,4 km/h (1 Bft) S-SW 205 0 min 0,051 mm 0,0 UV-I 159 W/m -2,1 C -1,8 C 6,4 km/h (2 Bft) 100,00 %
08.12.2016 13:04 -1,8 C 98 % 1035,6 hPa 0,0 l/m 5,4 km/h (1 Bft) S 185 2 min 0,000 mm 0,0 UV-I 231 W/m -2,1 C -1,8 C 8,0 km/h (2 Bft) 100,00 %
08.12.2016 13:06 -1,9 C 98 % 1035,5 hPa 0,0 l/m 2,4 km/h (1 Bft) S 170 2 min 0,000 mm 0,0 UV-I 174 W/m -2,2 C -1,9 C 8,0 km/h (2 Bft) 100,00 %
08.12.2016 13:08 -1,9 C 98 % 1035,5 hPa 0,0 l/m 5,7 km/h (1 Bft) S-SW 209 0 min 0,000 mm 0,0 UV-I 157 W/m -2,2 C -1,9 C 8,0 km/h (2 Bft) 100,00 %
08.12.2016 13:10 -1,8 C 98 % 1035,5 hPa 0,0 l/m 4,9 km/h (1 Bft) S-SW 205 0 min 0,000 mm 0,0 UV-I 126 W/m -2,1 C -1,8 C 8,0 km/h (2 Bft) 100,00 %
08.12.2016 13:12 -1,8 C 98 % 1035,5 hPa 0,0 l/m 2,3 km/h (1 Bft) S-SW 208 0 min 0,000 mm 0,0 UV-I 141 W/m -2,1 C -1,8 C 4,8 km/h (1 Bft) 100,00 %
08.12.2016 13:14 -1,7 C 98 % 1035,5 hPa 0,0 l/m 5,1 km/h (1 Bft) S-SW 209 0 min 0,000 mm 0,0 UV-I 126 W/m -2,0 C -1,7 C 8,0 km/h (2 Bft) 100,00 %
08.12.2016 13:16 -1,7 C 98 % 1035,5 hPa 0,0 l/m 4,3 km/h (1 Bft) W-SW 237 0 min 0,000 mm 0,0 UV-I 140 W/m -2,0 C -1,7 C 6,4 km/h (2 Bft) 100,00 %
08.12.2016 13:18 -1,7 C 98 % 1035,5 hPa 0,0 l/m 4,1 km/h (1 Bft) W-SW 239 0 min 0,000 mm 0,0 UV-I 128 W/m -2,0 C -1,7 C 4,8 km/h (1 Bft) 97,56 %
08.12.2016 13:20 -1,6 C 98 % 1035,4 hPa 0,0 l/m 5,2 km/h (1 Bft) S-SW 212 0 min 0,000 mm 0,0 UV-I 131 W/m -1,9 C -1,6 C 8,0 km/h (2 Bft) 100,00 %
08.12.2016 13:22 -1,6 C 98 % 1035,4 hPa 0,0 l/m 3,3 km/h (1 Bft) S-SW 206 0 min 0,000 mm 0,0 UV-I 143 W/m -1,9 C -1,6 C 6,4 km/h (2 Bft) 100,00 %
08.12.2016 13:24 -1,7 C 98 % 1035,4 hPa 0,0 l/m 1,9 km/h (1 Bft) S-SW 209 2 min 0,000 mm 0,0 UV-I 164 W/m -2,0 C -1,7 C 4,8 km/h (1 Bft) 97,37 %
08.12.2016 13:26 -1,6 C 98 % 1035,4 hPa 0,0 l/m 2,2 km/h (1 Bft) S-SW 209 0 min 0,000 mm 0,0 UV-I 146 W/m -1,9 C -1,6 C 4,8 km/h (1 Bft) 96,23 %
08.12.2016 13:28 -1,6 C 98 % 1035,4 hPa 0,0 l/m 0,8 km/h (0 Bft) S-SW 209 0 min 0,000 mm 0,0 UV-I 120 W/m -1,9 C -1,6 C 3,2 km/h (1 Bft) 98,00 %
08.12.2016 13:30 -1,6 C 98 % 1035,4 hPa 0,0 l/m 2,7 km/h (1 Bft) SW 234 0 min 0,000 mm 0,0 UV-I 121 W/m -1,9 C -1,6 C 4,8 km/h (1 Bft) 100,00 %
08.12.2016 13:32 -1,6 C 98 % 1035,5 hPa 0,0 l/m 4,4 km/h (1 Bft) W 273 0 min 0,000 mm 0,0 UV-I 119 W/m -1,9 C -1,6 C 6,4 km/h (2 Bft) 100,00 %
08.12.2016 13:34 -1,6 C 98 % 1035,5 hPa 0,0 l/m 2,9 km/h (1 Bft) W 270 0 min 0,000 mm 0,0 UV-I 109 W/m -1,9 C -1,6 C 4,8 km/h (1 Bft) 100,00 %
08.12.2016 13:36 -1,7 C 98 % 1035,5 hPa 0,0 l/m 0,8 km/h (0 Bft) W 270 0 min 0,000 mm 0,0 UV-I 95 W/m -2,0 C -1,7 C 3,2 km/h (1 Bft) 100,00 %
08.12.2016 13:38 -1,7 C 98 % 1035,4 hPa 0,0 l/m 0,8 km/h (0 Bft) W 270 0 min 0,000 mm 0,0 UV-I 96 W/m -2,0 C -1,7 C 3,2 km/h (1 Bft) 100,00 %
08.12.2016 13:40 -1,7 C 98 % 1035,4 hPa 0,0 l/m 2,8 km/h (1 Bft) W-SW 240 0 min 0,000 mm 0,0 UV-I 95 W/m -2,0 C -1,7 C 4,8 km/h (1 Bft) 100,00 %
08.12.2016 13:42 -1,6 C 98 % 1035,4 hPa 0,0 l/m 3,5 km/h (1 Bft) W-SW 257 0 min 0,000 mm 0,0 UV-I 102 W/m -1,9 C -1,6 C 6,4 km/h (2 Bft) 97,87 %
08.12.2016 13:44 -1,6 C 98 % 1035,3 hPa 0,0 l/m 2,3 km/h (1 Bft) W-SW 257 0 min 0,000 mm 0,0 UV-I 107 W/m -1,9 C -1,6 C 4,8 km/h (1 Bft) 98,00 %
08.12.2016 13:46 -1,5 C 98 % 1035,3 hPa 0,0 l/m 4,4 km/h (1 Bft) SW 218 0 min 0,000 mm 0,0 UV-I 102 W/m -1,8 C -1,5 C 6,4 km/h (2 Bft) 100,00 %
08.12.2016 13:48 -1,6 C 98 % 1035,2 hPa 0,0 l/m 4,0 km/h (1 Bft) SW 223 0 min 0,000 mm 0,0 UV-I 100 W/m -1,9 C -1,6 C 6,4 km/h (2 Bft) 98,00 %
08.12.2016 13:50 -1,5 C 98 % 1035,2 hPa 0,0 l/m 4,7 km/h (1 Bft) W-SW 250 0 min 0,000 mm 0,0 UV-I 109 W/m -1,8 C -1,5 C 6,4 km/h (2 Bft) 100,00 %
08.12.2016 13:52 -1,5 C 98 % 1035,2 hPa 0,0 l/m 6,1 km/h (2 Bft) S-SW 211 0 min 0,000 mm 0,0 UV-I 112 W/m -1,8 C -1,5 C 8,0 km/h (2 Bft) 98,11 %
08.12.2016 13:54 -1,5 C 98 % 1035,2 hPa 0,0 l/m 2,8 km/h (1 Bft) SW 221 0 min 0,000 mm 0,0 UV-I 104 W/m -1,8 C -1,5 C 6,4 km/h (2 Bft) 100,00 %
08.12.2016 13:56 -1,5 C 98 % 1035,2 hPa 0,0 l/m 3,5 km/h (1 Bft) S-SW 213 0 min 0,000 mm 0,0 UV-I 98 W/m -1,8 C -1,5 C 6,4 km/h (2 Bft) 97,87 %
08.12.2016 13:58 -1,5 C 98 % 1035,1 hPa 0,0 l/m 2,1 km/h (1 Bft) S-SW 212 0 min 0,000 mm 0,0 UV-I 98 W/m -1,8 C -1,5 C 4,8 km/h (1 Bft) 93,62 %
08.12.2016 14:00 -1,4 C 98 % 1035,0 hPa 0,0 l/m 4,3 km/h (1 Bft) SW 232 0 min 0,000 mm 0,0 UV-I 98 W/m -1,7 C -1,4 C 6,4 km/h (2 Bft) 97,87 %
08.12.2016 14:02 -1,3 C 98 % 1035,1 hPa 0,0 l/m 5,0 km/h (1 Bft) SW 235 0 min 0,051 mm 0,0 UV-I 102 W/m -1,6 C -1,3 C 6,4 km/h (2 Bft) 97,56 %
08.12.2016 14:04 -1,3 C 98 % 1035,0 hPa 0,0 l/m 4,0 km/h (1 Bft) SW 229 0 min 0,000 mm 0,0 UV-I 93 W/m -1,6 C -1,3 C 6,4 km/h (2 Bft) 98,11 %
08.12.2016 14:06 -1,3 C 98 % 1035,1 hPa 0,0 l/m 5,2 km/h (1 Bft) W 261 0 min 0,000 mm 0,0 UV-I 98 W/m -1,6 C -1,3 C 6,4 km/h (2 Bft) 97,37 %
08.12.2016 14:08 -1,3 C 98 % 1035,1 hPa 0,0 l/m 3,2 km/h (1 Bft) W 277 0 min 0,000 mm 0,0 UV-I 99 W/m -1,6 C -1,3 C 4,8 km/h (1 Bft) 98,11 %
08.12.2016 14:10 -1,3 C 98 % 1035,1 hPa 0,0 l/m 3,0 km/h (1 Bft) W 277 0 min 0,000 mm 0,0 UV-I 96 W/m -1,6 C -1,3 C 6,4 km/h (2 Bft) 98,00 %
08.12.2016 14:12 -1,3 C 98 % 1035,1 hPa 0,0 l/m 2,7 km/h (1 Bft) W 277 0 min 0,000 mm 0,0 UV-I 95 W/m -1,6 C -1,3 C 4,8 km/h (1 Bft) 95,45 %
08.12.2016 14:14 -1,3 C 98 % 1035,0 hPa 0,0 l/m 2,2 km/h (1 Bft) W 277 0 min 0,000 mm 0,0 UV-I 100 W/m -1,6 C -1,3 C 4,8 km/h (1 Bft) 97,73 %
08.12.2016 14:16 -1,3 C 98 % 1035,0 hPa 0,0 l/m 2,5 km/h (1 Bft) W-SW 256 0 min 0,000 mm 0,0 UV-I 94 W/m -1,6 C -1,3 C 4,8 km/h (1 Bft) 95,74 %
08.12.2016 14:18 -1,4 C 98 % 1034,9 hPa 0,0 l/m 3,5 km/h (1 Bft) W-SW 245 0 min 0,000 mm 0,0 UV-I 92 W/m -1,7 C -1,4 C 4,8 km/h (1 Bft) 98,00 %
08.12.2016 14:20 -1,3 C 98 % 1034,9 hPa 0,0 l/m 3,3 km/h (1 Bft) W-SW 245 0 min 0,000 mm 0,0 UV-I 95 W/m -1,6 C -1,3 C 4,8 km/h (1 Bft) 95,12 %
08.12.2016 14:22 -1,3 C 98 % 1034,9 hPa 0,0 l/m 3,9 km/h (1 Bft) W-SW 246 0 min 0,000 mm 0,0 UV-I 82 W/m -1,6 C -1,3 C 4,8 km/h (1 Bft) 98,11 %
08.12.2016 14:24 -1,3 C 98 % 1034,8 hPa 0,0 l/m 1,8 km/h (1 Bft) W-SW 246 0 min 0,000 mm 0,0 UV-I 82 W/m -1,6 C -1,3 C 3,2 km/h (1 Bft) 93,62 %
08.12.2016 14:26 -1,3 C 98 % 1034,9 hPa 0,0 l/m 0,9 km/h (0 Bft) W-SW 246 0 min 0,000 mm 0,0 UV-I 79 W/m -1,6 C -1,3 C 1,6 km/h (1 Bft) 97,87 %
08.12.2016 14:28 -1,3 C 98 % 1034,8 hPa 0,0 l/m 1,6 km/h (1 Bft) W-SW 246 0 min 0,000 mm 0,0 UV-I 79 W/m -1,6 C -1,3 C 3,2 km/h (1 Bft) 97,92 %
08.12.2016 14:30 -1,3 C 98 % 1034,8 hPa 0,0 l/m 1,0 km/h (0 Bft) W-SW 246 0 min 0,000 mm 0,0 UV-I 94 W/m -1,6 C -1,3 C 3,2 km/h (1 Bft) 97,87 %
08.12.2016 14:32 -1,3 C 98 % 1034,8 hPa 0,0 l/m 3,1 km/h (1 Bft) SW 232 2 min 0,000 mm 0,0 UV-I 116 W/m -1,6 C -1,3 C 4,8 km/h (1 Bft) 97,37 %
08.12.2016 14:34 -1,2 C 98 % 1034,7 hPa 0,0 l/m 5,6 km/h (1 Bft) SW 220 0 min 0,000 mm 0,0 UV-I 93 W/m -1,5 C -1,2 C 6,4 km/h (2 Bft) 100,00 %
08.12.2016 14:36 -1,3 C 98 % 1034,7 hPa 0,0 l/m 4,9 km/h (1 Bft) SW 220 0 min 0,000 mm 0,0 UV-I 87 W/m -1,6 C -1,3 C 6,4 km/h (2 Bft) 96,55 %
08.12.2016 14:38 -1,3 C 98 % 1034,7 hPa 0,0 l/m 3,6 km/h (1 Bft) SW 220 0 min 0,000 mm 0,0 UV-I 88 W/m -1,6 C -1,3 C 6,4 km/h (2 Bft) 96,77 %
08.12.2016 14:40 -1,3 C 98 % 1034,8 hPa 0,0 l/m 1,8 km/h (1 Bft) SW 220 0 min 0,000 mm 0,0 UV-I 82 W/m -1,6 C -1,3 C 3,2 km/h (1 Bft) 100,00 %
08.12.2016 14:42 -1,3 C 98 % 1034,8 hPa 0,0 l/m 0,2 km/h (0 Bft) SW 220 0 min 0,000 mm 0,0 UV-I 71 W/m -1,6 C -1,3 C 1,6 km/h (1 Bft) 98,00 %
08.12.2016 14:44 -1,3 C 98 % 1034,8 hPa 0,0 l/m 3,8 km/h (1 Bft) W-SW 256 0 min 0,000 mm 0,0 UV-I 70 W/m -1,6 C -1,3 C 6,4 km/h (2 Bft) 100,00 %
08.12.2016 14:46 -1,3 C 98 % 1034,8 hPa 0,0 l/m 3,5 km/h (1 Bft) W 263 0 min 0,000 mm 0,0 UV-I 71 W/m -1,6 C -1,3 C 6,4 km/h (2 Bft) 100,00 %
08.12.2016 14:48 -1,3 C 98 % 1034,8 hPa 0,0 l/m 0,5 km/h (0 Bft) W 263 0 min 0,000 mm 0,0 UV-I 71 W/m -1,6 C -1,3 C 3,2 km/h (1 Bft) 98,00 %
08.12.2016 14:50 -1,3 C 98 % 1034,8 hPa 0,0 l/m 0,3 km/h (0 Bft) W 263 0 min 0,000 mm 0,0 UV-I 73 W/m -1,6 C -1,3 C 1,6 km/h (1 Bft) 100,00 %
08.12.2016 14:52 -1,3 C 98 % 1034,8 hPa 0,0 l/m 1,1 km/h (1 Bft) W 263 0 min 0,000 mm 0,0 UV-I 64 W/m -1,6 C -1,3 C 3,2 km/h (1 Bft) 100,00 %
08.12.2016 14:54 -1,3 C 98 % 1034,7 hPa 0,0 l/m 1,1 km/h (1 Bft) W 263 0 min 0,000 mm 0,0 UV-I 62 W/m -1,6 C -1,3 C 3,2 km/h (1 Bft) 100,00 %
08.12.2016 14:56 -1,3 C 98 % 1034,7 hPa 0,0 l/m 3,3 km/h (1 Bft) W 267 0 min 0,000 mm 0,0 UV-I 62 W/m -1,6 C -1,3 C 4,8 km/h (1 Bft) 97,87 %
08.12.2016 14:58 -1,3 C 98 % 1034,6 hPa 0,0 l/m 4,5 km/h (1 Bft) W-SW 246 0 min 0,000 mm 0,0 UV-I 61 W/m -1,6 C -1,3 C 6,4 km/h (2 Bft) 100,00 %
08.12.2016 15:00 -1,3 C 98 % 1034,6 hPa 0,0 l/m 2,8 km/h (1 Bft) SW 229 0 min 0,025 mm 0,0 UV-I 62 W/m -1,6 C -1,3 C 6,4 km/h (2 Bft) 98,00 %
08.12.2016 15:02 -1,3 C 98 % 1034,6 hPa 0,0 l/m 3,8 km/h (1 Bft) SW 230 0 min 0,000 mm 0,0 UV-I 61 W/m -1,6 C -1,3 C 4,8 km/h (1 Bft) 100,00 %
08.12.2016 15:04 -1,3 C 98 % 1034,6 hPa 0,0 l/m 2,6 km/h (1 Bft) SW 230 0 min 0,000 mm 0,0 UV-I 57 W/m -1,6 C -1,3 C 4,8 km/h (1 Bft) 100,00 %
08.12.2016 15:06 -1,3 C 98 % 1034,6 hPa 0,0 l/m 1,4 km/h (1 Bft) SW 230 0 min 0,000 mm 0,0 UV-I 58 W/m -1,6 C -1,3 C 3,2 km/h (1 Bft) 100,00 %
08.12.2016 15:08 -1,3 C 98 % 1034,7 hPa 0,0 l/m 2,8 km/h (1 Bft) SW 230 0 min 0,000 mm 0,0 UV-I 52 W/m -1,6 C -1,3 C 4,8 km/h (1 Bft) 100,00 %
08.12.2016 15:10 -1,3 C 98 % 1034,6 hPa 0,0 l/m 1,7 km/h (1 Bft) SW 230 0 min 0,000 mm 0,0 UV-I 49 W/m -1,6 C -1,3 C 4,8 km/h (1 Bft) 100,00 %
08.12.2016 15:12 -1,3 C 98 % 1034,6 hPa 0,0 l/m 1,3 km/h (1 Bft) SW 230 0 min 0,000 mm 0,0 UV-I 49 W/m -1,6 C -1,3 C 3,2 km/h (1 Bft) 100,00 %
08.12.2016 15:14 -1,3 C 98 % 1034,5 hPa 0,0 l/m 2,6 km/h (1 Bft) SW 231 0 min 0,000 mm 0,0 UV-I 53 W/m -1,6 C -1,3 C 4,8 km/h (1 Bft) 100,00 %
08.12.2016 15:16 -1,3 C 98 % 1034,5 hPa 0,0 l/m 2,7 km/h (1 Bft) SW 231 0 min 0,000 mm 0,0 UV-I 54 W/m -1,6 C -1,3 C 4,8 km/h (1 Bft) 100,00 %
08.12.2016 15:18 -1,3 C 98 % 1034,5 hPa 0,0 l/m 1,4 km/h (1 Bft) SW 231 0 min 0,000 mm 0,0 UV-I 50 W/m -1,6 C -1,3 C 3,2 km/h (1 Bft) 100,00 %
08.12.2016 15:20 -1,3 C 98 % 1034,4 hPa 0,0 l/m 0,8 km/h (0 Bft) SW 231 0 min 0,000 mm 0,0 UV-I 48 W/m -1,6 C -1,3 C 1,6 km/h (1 Bft) 100,00 %
08.12.2016 15:22 -1,3 C 98 % 1034,4 hPa 0,0 l/m 1,1 km/h (1 Bft) SW 231 0 min 0,000 mm 0,0 UV-I 48 W/m -1,6 C -1,3 C 3,2 km/h (1 Bft) 97,87 %
08.12.2016 15:24 -1,3 C 98 % 1034,4 hPa 0,0 l/m 2,7 km/h (1 Bft) SW 231 0 min 0,000 mm 0,0 UV-I 44 W/m -1,6 C -1,3 C 4,8 km/h (1 Bft) 100,00 %
08.12.2016 15:26 -1,3 C 98 % 1034,4 hPa 0,0 l/m 2,8 km/h (1 Bft) SW 231 0 min 0,000 mm 0,0 UV-I 43 W/m -1,6 C -1,3 C 4,8 km/h (1 Bft) 100,00 %
08.12.2016 15:28 -1,3 C 98 % 1034,4 hPa 0,0 l/m 1,1 km/h (1 Bft) SW 231 0 min 0,000 mm 0,0 UV-I 39 W/m -1,6 C -1,3 C 3,2 km/h (1 Bft) 100,00 %
08.12.2016 15:30 -1,3 C 98 % 1034,4 hPa 0,0 l/m 1,0 km/h (0 Bft) SW 231 0 min 0,000 mm 0,0 UV-I 38 W/m -1,6 C -1,3 C 3,2 km/h (1 Bft) 96,00 %
08.12.2016 15:32 -1,3 C 98 % 1034,4 hPa 0,0 l/m 1,6 km/h (1 Bft) SW 231 0 min 0,000 mm 0,0 UV-I 38 W/m -1,6 C -1,3 C 3,2 km/h (1 Bft) 100,00 %
08.12.2016 15:34 -1,3 C 98 % 1034,3 hPa 0,0 l/m 0,8 km/h (0 Bft) SW 231 0 min 0,000 mm 0,0 UV-I 36 W/m -1,6 C -1,3 C 3,2 km/h (1 Bft) 100,00 %
08.12.2016 15:36 -1,3 C 98 % 1034,3 hPa 0,0 l/m 0,0 km/h (0 Bft) SW 231 0 min 0,000 mm 0,0 UV-I 33 W/m -1,6 C -1,3 C 0,0 km/h (0 Bft) 100,00 %
08.12.2016 15:38 -1,3 C 98 % 1034,2 hPa 0,0 l/m 0,0 km/h (0 Bft) SW 231 0 min 0,000 mm 0,0 UV-I 32 W/m -1,6 C -1,3 C 0,0 km/h (0 Bft) 100,00 %
08.12.2016 15:40 -1,3 C 98 % 1034,2 hPa 0,0 l/m 0,0 km/h (0 Bft) SW 231 2 min 0,000 mm 0,0 UV-I 32 W/m -1,6 C -1,3 C 0,0 km/h (0 Bft) 100,00 %
08.12.2016 15:42 -1,3 C 98 % 1034,2 hPa 0,0 l/m 0,0 km/h (0 Bft) SW 231 2 min 0,000 mm 0,0 UV-I 33 W/m -1,6 C -1,3 C 0,0 km/h (0 Bft) 98,00 %
08.12.2016 15:44 -1,3 C 98 % 1034,2 hPa 0,0 l/m 2,0 km/h (1 Bft) SW 231 2 min 0,000 mm 0,0 UV-I 30 W/m -1,6 C -1,3 C 3,2 km/h (1 Bft) 100,00 %
08.12.2016 15:46 -1,3 C 98 % 1034,2 hPa 0,0 l/m 2,3 km/h (1 Bft) SW 231 2 min 0,000 mm 0,0 UV-I 25 W/m -1,6 C -1,3 C 4,8 km/h (1 Bft) 100,00 %
08.12.2016 15:48 -1,3 C 98 % 1034,2 hPa 0,0 l/m 3,1 km/h (1 Bft) SW 231 2 min 0,000 mm 0,0 UV-I 25 W/m -1,6 C -1,3 C 4,8 km/h (1 Bft) 98,11 %
08.12.2016 15:50 -1,3 C 98 % 1034,2 hPa 0,0 l/m 2,9 km/h (1 Bft) SW 231 2 min 0,000 mm 0,0 UV-I 22 W/m -1,6 C -1,3 C 4,8 km/h (1 Bft) 100,00 %
08.12.2016 15:52 -1,3 C 98 % 1034,1 hPa 0,0 l/m 3,0 km/h (1 Bft) SW 231 2 min 0,000 mm 0,0 UV-I 21 W/m -1,6 C -1,3 C 4,8 km/h (1 Bft) 100,00 %
08.12.2016 15:54 -1,3 C 98 % 1034,1 hPa 0,0 l/m 1,6 km/h (1 Bft) S-SW 205 2 min 0,000 mm 0,0 UV-I 20 W/m -1,6 C -1,3 C 3,2 km/h (1 Bft) 98,39 %
08.12.2016 15:56 -1,3 C 98 % 1034,1 hPa 0,0 l/m 1,8 km/h (1 Bft) S-SW 205 2 min 0,000 mm 0,0 UV-I 19 W/m -1,6 C -1,3 C 4,8 km/h (1 Bft) 96,00 %
08.12.2016 15:58 -1,3 C 98 % 1034,1 hPa 0,0 l/m 0,9 km/h (0 Bft) S-SW 205 0 min 0,000 mm 0,0 UV-I 19 W/m -1,6 C -1,3 C 3,2 km/h (1 Bft) 100,00 %
08.12.2016 16:00 -1,3 C 98 % 1034,1 hPa 0,0 l/m 1,7 km/h (1 Bft) S-SW 205 0 min 0,000 mm 0,0 UV-I 17 W/m -1,6 C -1,3 C 3,2 km/h (1 Bft) 96,00 %
08.12.2016 16:02 -1,3 C 98 % 1034,1 hPa 0,0 l/m 0,6 km/h (0 Bft) S-SW 205 0 min 0,000 mm 0,0 UV-I 14 W/m -1,6 C -1,3 C 1,6 km/h (1 Bft) 98,11 %
08.12.2016 16:04 -1,4 C 98 % 1034,1 hPa 0,0 l/m 0,6 km/h (0 Bft) S-SW 205 0 min 0,000 mm 0,0 UV-I 11 W/m -1,7 C -1,4 C 1,6 km/h (1 Bft) 97,37 %
08.12.2016 16:06 -1,4 C 98 % 1034,1 hPa 0,0 l/m 0,1 km/h (0 Bft) S-SW 205 0 min 0,000 mm 0,0 UV-I 9 W/m -1,7 C -1,4 C 1,6 km/h (1 Bft) 98,11 %
08.12.2016 16:08 -1,4 C 98 % 1034,1 hPa 0,0 l/m 1,0 km/h (0 Bft) S-SW 205 0 min 0,000 mm 0,0 UV-I 9 W/m -1,7 C -1,4 C 3,2 km/h (1 Bft) 97,37 %
08.12.2016 16:10 -1,4 C 98 % 1034,1 hPa 0,0 l/m 1,6 km/h (1 Bft) S-SW 205 0 min 0,000 mm 0,0 UV-I 8 W/m -1,7 C -1,4 C 3,2 km/h (1 Bft) 98,00 %
08.12.2016 16:12 -1,4 C 98 % 1034,1 hPa 0,0 l/m 1,7 km/h (1 Bft) S-SW 205 0 min 0,000 mm 0,0 UV-I 7 W/m -1,7 C -1,4 C 3,2 km/h (1 Bft) 97,56 %
08.12.2016 16:14 -1,4 C 98 % 1034,2 hPa 0,0 l/m 0,9 km/h (0 Bft) S-SW 205 0 min 0,000 mm 0,0 UV-I 7 W/m -1,7 C -1,4 C 3,2 km/h (1 Bft) 97,44 %
08.12.2016 16:16 -1,4 C 98 % 1034,2 hPa 0,0 l/m 0,2 km/h (0 Bft) S-SW 205 0 min 0,000 mm 0,0 UV-I 7 W/m -1,7 C -1,4 C 1,6 km/h (1 Bft) 97,01 %
08.12.2016 16:18 -1,4 C 98 % 1034,2 hPa 0,0 l/m 1,5 km/h (1 Bft) S-SW 205 0 min 0,000 mm 0,0 UV-I 7 W/m -1,7 C -1,4 C 3,2 km/h (1 Bft) 97,87 %
08.12.2016 16:20 -1,4 C 98 % 1034,2 hPa 0,0 l/m 2,5 km/h (1 Bft) S-SW 205 0 min 0,000 mm 0,0 UV-I 7 W/m -1,7 C -1,4 C 4,8 km/h (1 Bft) 95,74 %
08.12.2016 16:22 -1,5 C 98 % 1034,2 hPa 0,0 l/m 0,8 km/h (0 Bft) S-SW 205 0 min 0,000 mm 0,0 UV-I 6 W/m -1,8 C -1,5 C 3,2 km/h (1 Bft) 97,87 %
08.12.2016 16:24 -1,5 C 98 % 1034,2 hPa 0,0 l/m 0,0 km/h (0 Bft) S-SW 205 0 min 0,000 mm 0,0 UV-I 5 W/m -1,8 C -1,5 C 1,6 km/h (1 Bft) 97,22 %
08.12.2016 16:26 -1,5 C 98 % 1034,2 hPa 0,0 l/m 2,0 km/h (1 Bft) S-SW 205 0 min 0,000 mm 0,0 UV-I 5 W/m -1,8 C -1,5 C 4,8 km/h (1 Bft) 98,00 %
08.12.2016 16:28 -1,5 C 98 % 1034,3 hPa 0,0 l/m 0,2 km/h (0 Bft) S-SW 205 0 min 0,000 mm 0,0 UV-I 5 W/m -1,8 C -1,5 C 1,6 km/h (1 Bft) 97,87 %
08.12.2016 16:30 -1,5 C 98 % 1034,2 hPa 0,0 l/m 1,7 km/h (1 Bft) N-NW 348 0 min 0,000 mm 0,0 UV-I 3 W/m -1,8 C -1,5 C 4,8 km/h (1 Bft) 98,00 %
08.12.2016 16:33 -1,6 C 98 % 1034,2 hPa 0,0 l/m 0,8 km/h (0 Bft) N-NW 348 0 min 0,000 mm 0,0 UV-I 0 W/m -1,9 C -1,6 C 3,2 km/h (1 Bft) 100,00 %
08.12.2016 16:34 -1,6 C 98 % 1034,2 hPa 0,0 l/m 0,2 km/h (0 Bft) N-NW 348 0 min 0,000 mm 0,0 UV-I 0 W/m -1,9 C -1,6 C 1,6 km/h (1 Bft) 100,00 %
08.12.2016 16:36 -1,6 C 98 % 1034,2 hPa 0,0 l/m 0,3 km/h (0 Bft) N-NW 348 0 min 0,000 mm 0,0 UV-I 0 W/m -1,9 C -1,6 C 1,6 km/h (1 Bft) 97,87 %
08.12.2016 16:38 -1,7 C 98 % 1034,2 hPa 0,0 l/m 0,0 km/h (0 Bft) N-NW 348 0 min 0,000 mm 0,0 UV-I 0 W/m -2,0 C -1,7 C 0,0 km/h (0 Bft) 100,00 %
08.12.2016 16:40 -1,7 C 98 % 1034,2 hPa 0,0 l/m 0,7 km/h (0 Bft) N-NW 348 0 min 0,000 mm 0,0 UV-I 0 W/m -2,0 C -1,7 C 3,2 km/h (1 Bft) 100,00 %
08.12.2016 16:42 -1,7 C 98 % 1034,2 hPa 0,0 l/m 0,3 km/h (0 Bft) N-NW 348 0 min 0,000 mm 0,0 UV-I 0 W/m -2,0 C -1,7 C 1,6 km/h (1 Bft) 100,00 %
08.12.2016 16:44 -1,7 C 98 % 1034,2 hPa 0,0 l/m 0,0 km/h (0 Bft) N-NW 348 0 min 0,000 mm 0,0 UV-I 0 W/m -2,0 C -1,7 C 0,0 km/h (0 Bft) 100,00 %
08.12.2016 16:46 -1,8 C 98 % 1034,2 hPa 0,0 l/m 0,0 km/h (0 Bft) N-NW 348 0 min 0,000 mm 0,0 UV-I 0 W/m -2,1 C -1,8 C 0,0 km/h (0 Bft) 98,00 %
08.12.2016 16:48 -1,8 C 98 % 1034,2 hPa 0,0 l/m 0,0 km/h (0 Bft) N-NW 348 0 min 0,000 mm 0,0 UV-I 0 W/m -2,1 C -1,8 C 0,0 km/h (0 Bft) 100,00 %
08.12.2016 16:50 -1,8 C 98 % 1034,2 hPa 0,0 l/m 0,0 km/h (0 Bft) N-NW 348 0 min 0,000 mm 0,0 UV-I 0 W/m -2,1 C -1,8 C 0,0 km/h (0 Bft) 100,00 %
08.12.2016 16:52 -1,8 C 98 % 1034,1 hPa 0,0 l/m 0,0 km/h (0 Bft) N-NW 348 0 min 0,000 mm 0,0 UV-I 0 W/m -2,1 C -1,8 C 0,0 km/h (0 Bft) 100,00 %
08.12.2016 16:54 -1,8 C 98 % 1034,1 hPa 0,0 l/m 0,0 km/h (0 Bft) N-NW 348 0 min 0,000 mm 0,0 UV-I 0 W/m -2,1 C -1,8 C 0,0 km/h (0 Bft) 100,00 %
08.12.2016 16:56 -1,8 C 98 % 1034,1 hPa 0,0 l/m 0,0 km/h (0 Bft) N-NW 348 0 min 0,000 mm 0,0 UV-I 0 W/m -2,1 C -1,8 C 0,0 km/h (0 Bft) 95,74 %
08.12.2016 16:58 -1,8 C 98 % 1034,0 hPa 0,0 l/m 0,0 km/h (0 Bft) N-NW 348 0 min 0,000 mm 0,0 UV-I 0 W/m -2,1 C -1,8 C 0,0 km/h (0 Bft) 100,00 %
08.12.2016 17:00 -1,8 C 98 % 1034,0 hPa 0,0 l/m 0,0 km/h (0 Bft) N-NW 348 0 min 0,000 mm 0,0 UV-I 0 W/m -2,1 C -1,8 C 0,0 km/h (0 Bft) 100,00 %
08.12.2016 17:02 -1,8 C 98 % 1034,0 hPa 0,0 l/m 0,0 km/h (0 Bft) N-NW 348 0 min 0,000 mm 0,0 UV-I 0 W/m -2,1 C -1,8 C 0,0 km/h (0 Bft) 100,00 %
08.12.2016 17:04 -1,8 C 98 % 1034,0 hPa 0,0 l/m 0,0 km/h (0 Bft) N-NW 348 0 min 0,000 mm 0,0 UV-I 0 W/m -2,1 C -1,8 C 0,0 km/h (0 Bft) 95,74 %
08.12.2016 17:06 -1,8 C 98 % 1034,1 hPa 0,0 l/m 0,0 km/h (0 Bft) N-NW 348 0 min 0,000 mm 0,0 UV-I 0 W/m -2,1 C -1,8 C 0,0 km/h (0 Bft) 100,00 %
08.12.2016 17:08 -1,7 C 98 % 1034,2 hPa 0,0 l/m 0,0 km/h (0 Bft) N-NW 348 0 min 0,000 mm 0,0 UV-I 0 W/m -2,0 C -1,7 C 0,0 km/h (0 Bft) 100,00 %
08.12.2016 17:10 -1,7 C 98 % 1034,1 hPa 0,0 l/m 0,0 km/h (0 Bft) N-NW 348 0 min 0,000 mm 0,0 UV-I 0 W/m -2,0 C -1,7 C 0,0 km/h (0 Bft) 100,00 %
08.12.2016 17:12 -1,7 C 98 % 1034,1 hPa 0,0 l/m 0,1 km/h (0 Bft) N-NW 348 0 min 0,000 mm 0,0 UV-I 0 W/m -2,0 C -1,7 C 1,6 km/h (1 Bft) 100,00 %
08.12.2016 17:14 -1,7 C 98 % 1034,2 hPa 0,0 l/m 0,0 km/h (0 Bft) N-NW 348 0 min 0,000 mm 0,0 UV-I 0 W/m -2,0 C -1,7 C 0,0 km/h (0 Bft) 98,21 %
08.12.2016 17:16 -1,7 C 98 % 1034,2 hPa 0,0 l/m 0,0 km/h (0 Bft) N-NW 348 0 min 0,000 mm 0,0 UV-I 0 W/m -2,0 C -1,7 C 0,0 km/h (0 Bft) 100,00 %
08.12.2016 17:18 -1,8 C 98 % 1034,2 hPa 0,0 l/m 0,0 km/h (0 Bft) N-NW 348 0 min 0,000 mm 0,0 UV-I 0 W/m -2,1 C -1,8 C 0,0 km/h (0 Bft) 100,00 %
08.12.2016 17:20 -1,8 C 98 % 1034,3 hPa 0,0 l/m 0,0 km/h (0 Bft) N-NW 348 0 min 0,000 mm 0,0 UV-I 0 W/m -2,1 C -1,8 C 0,0 km/h (0 Bft) 100,00 %
08.12.2016 17:22 -1,8 C 98 % 1034,3 hPa 0,0 l/m 0,4 km/h (0 Bft) N-NW 348 0 min 0,000 mm 0,0 UV-I 0 W/m -2,1 C -1,8 C 1,6 km/h (1 Bft) 97,87 %
08.12.2016 17:24 -1,8 C 98 % 1034,3 hPa 0,0 l/m 2,0 km/h (1 Bft) NW 305 0 min 0,000 mm 0,0 UV-I 0 W/m -2,1 C -1,8 C 4,8 km/h (1 Bft) 100,00 %
08.12.2016 17:26 -1,8 C 98 % 1034,3 hPa 0,0 l/m 1,5 km/h (1 Bft) NW 305 0 min 0,000 mm 0,0 UV-I 0 W/m -2,1 C -1,8 C 4,8 km/h (1 Bft) 100,00 %
08.12.2016 17:28 -1,8 C 98 % 1034,3 hPa 0,0 l/m 0,1 km/h (0 Bft) NW 305 0 min 0,000 mm 0,0 UV-I 0 W/m -2,1 C -1,8 C 1,6 km/h (1 Bft) 100,00 %
08.12.2016 17:30 -1,9 C 98 % 1034,2 hPa 0,0 l/m 1,2 km/h (1 Bft) NW 313 0 min 0,000 mm 0,0 UV-I 0 W/m -2,2 C -1,9 C 3,2 km/h (1 Bft) 100,00 %
08.12.2016 17:32 -1,9 C 98 % 1034,2 hPa 0,0 l/m 0,1 km/h (0 Bft) NW 313 0 min 0,000 mm 0,0 UV-I 0 W/m -2,2 C -1,9 C 1,6 km/h (1 Bft) 100,00 %
08.12.2016 17:34 -1,9 C 98 % 1034,2 hPa 0,0 l/m 0,1 km/h (0 Bft) NW 313 0 min 0,000 mm 0,0 UV-I 0 W/m -2,2 C -1,9 C 1,6 km/h (1 Bft) 98,00 %
08.12.2016 17:36 -1,9 C 98 % 1034,2 hPa 0,0 l/m 0,0 km/h (0 Bft) NW 313 0 min 0,000 mm 0,0 UV-I 0 W/m -2,2 C -1,9 C 0,0 km/h (0 Bft) 100,00 %
08.12.2016 17:38 -1,9 C 98 % 1034,1 hPa 0,0 l/m 0,0 km/h (0 Bft) NW 313 0 min 0,000 mm 0,0 UV-I 0 W/m -2,2 C -1,9 C 0,0 km/h (0 Bft) 100,00 %
08.12.2016 17:40 -2,0 C 98 % 1034,1 hPa 0,0 l/m 0,5 km/h (0 Bft) NW 313 0 min 0,000 mm 0,0 UV-I 0 W/m -2,3 C -2,0 C 1,6 km/h (1 Bft) 100,00 %
08.12.2016 17:42 -2,0 C 98 % 1034,1 hPa 0,0 l/m 1,2 km/h (1 Bft) NW 313 0 min 0,000 mm 0,0 UV-I 0 W/m -2,3 C -2,0 C 3,2 km/h (1 Bft) 100,00 %
08.12.2016 17:44 -2,0 C 98 % 1034,0 hPa 0,0 l/m 0,9 km/h (0 Bft) NW 313 0 min 0,000 mm 0,0 UV-I 0 W/m -2,3 C -2,0 C 3,2 km/h (1 Bft) 97,87 %
08.12.2016 17:46 -2,1 C 98 % 1034,0 hPa 0,0 l/m 0,8 km/h (0 Bft) NW 313 0 min 0,000 mm 0,0 UV-I 0 W/m -2,4 C -2,1 C 1,6 km/h (1 Bft) 100,00 %
08.12.2016 17:48 -2,1 C 98 % 1033,9 hPa 0,0 l/m 1,9 km/h (1 Bft) N-NO 22 0 min 0,000 mm 0,0 UV-I 0 W/m -2,4 C -2,1 C 3,2 km/h (1 Bft) 100,00 %
08.12.2016 17:50 -2,1 C 98 % 1033,9 hPa 0,0 l/m 0,5 km/h (0 Bft) N-NO 26 0 min 0,000 mm 0,0 UV-I 0 W/m -2,4 C -2,1 C 3,2 km/h (1 Bft) 100,00 %
08.12.2016 17:52 -2,1 C 98 % 1034,0 hPa 0,0 l/m 0,2 km/h (0 Bft) N-NO 26 0 min 0,000 mm 0,0 UV-I 0 W/m -2,4 C -2,1 C 1,6 km/h (1 Bft) 100,00 %
08.12.2016 17:54 -2,0 C 98 % 1033,9 hPa 0,0 l/m 0,0 km/h (0 Bft) N-NO 26 0 min 0,000 mm 0,0 UV-I 0 W/m -2,3 C -2,0 C 0,0 km/h (0 Bft) 100,00 %
08.12.2016 17:56 -2,0 C 98 % 1033,9 hPa 0,0 l/m 0,0 km/h (0 Bft) N-NO 26 0 min 0,000 mm 0,0 UV-I 0 W/m -2,3 C -2,0 C 0,0 km/h (0 Bft) 97,87 %
08.12.2016 17:58 -2,0 C 98 % 1034,0 hPa 0,0 l/m 0,2 km/h (0 Bft) N-NO 26 0 min 0,000 mm 0,0 UV-I 0 W/m -2,3 C -2,0 C 1,6 km/h (1 Bft) 100,00 %
08.12.2016 18:00 -1,9 C 98 % 1034,0 hPa 0,0 l/m 1,8 km/h (1 Bft) NW 305 0 min 0,000 mm 0,0 UV-I 0 W/m -2,2 C -1,9 C 3,2 km/h (1 Bft) 100,00 %
08.12.2016 18:02 -1,9 C 98 % 1033,9 hPa 0,0 l/m 1,9 km/h (1 Bft) SW 221 0 min 0,000 mm 0,0 UV-I 0 W/m -2,2 C -1,9 C 3,2 km/h (1 Bft) 95,74 %
08.12.2016 18:04 -1,9 C 98 % 1033,9 hPa 0,0 l/m 1,0 km/h (0 Bft) S-SW 194 0 min 0,000 mm 0,0 UV-I 0 W/m -2,2 C -1,9 C 3,2 km/h (1 Bft) 97,56 %
08.12.2016 18:06 -1,9 C 98 % 1033,9 hPa 0,0 l/m 1,0 km/h (0 Bft) S-SW 194 0 min 0,000 mm 0,0 UV-I 0 W/m -2,2 C -1,9 C 3,2 km/h (1 Bft) 96,00 %
08.12.2016 18:08 -1,9 C 98 % 1033,9 hPa 0,0 l/m 0,2 km/h (0 Bft) S-SW 194 0 min 0,000 mm 0,0 UV-I 0 W/m -2,2 C -1,9 C 1,6 km/h (1 Bft) 97,87 %
08.12.2016 18:10 -2,0 C 98 % 1033,9 hPa 0,0 l/m 0,7 km/h (0 Bft) S-SW 194 0 min 0,000 mm 0,0 UV-I 0 W/m -2,3 C -2,0 C 3,2 km/h (1 Bft) 98,11 %
08.12.2016 18:12 -1,9 C 98 % 1033,9 hPa 0,0 l/m 2,6 km/h (1 Bft) S-SW 194 0 min 0,000 mm 0,0 UV-I 0 W/m -2,2 C -1,9 C 4,8 km/h (1 Bft) 97,87 %
08.12.2016 18:14 -2,0 C 98 % 1033,9 hPa 0,0 l/m 1,9 km/h (1 Bft) S-SW 194 0 min 0,000 mm 0,0 UV-I 0 W/m -2,3 C -2,0 C 3,2 km/h (1 Bft) 94,74 %
08.12.2016 18:16 -1,9 C 98 % 1033,9 hPa 0,0 l/m 0,3 km/h (0 Bft) S-SW 194 0 min 0,000 mm 0,0 UV-I 0 W/m -2,2 C -1,9 C 1,6 km/h (1 Bft) 96,23 %
08.12.2016 18:18 -2,0 C 98 % 1033,9 hPa 0,0 l/m 0,0 km/h (0 Bft) S-SW 194 0 min 0,000 mm 0,0 UV-I 0 W/m -2,3 C -2,0 C 0,0 km/h (0 Bft) 96,00 %
08.12.2016 18:20 -2,0 C 98 % 1034,0 hPa 0,0 l/m 0,0 km/h (0 Bft) S-SW 194 0 min 0,000 mm 0,0 UV-I 0 W/m -2,3 C -2,0 C 0,0 km/h (0 Bft) 97,87 %
08.12.2016 18:22 -2,0 C 98 % 1033,9 hPa 0,0 l/m 0,0 km/h (0 Bft) S-SW 194 0 min 0,000 mm 0,0 UV-I 0 W/m -2,3 C -2,0 C 0,0 km/h (0 Bft) 94,87 %
08.12.2016 18:24 -2,0 C 98 % 1033,9 hPa 0,0 l/m 0,0 km/h (0 Bft) S-SW 194 0 min 0,000 mm 0,0 UV-I 0 W/m -2,3 C -2,0 C 1,6 km/h (1 Bft) 98,00 %
08.12.2016 18:26 -1,9 C 98 % 1033,9 hPa 0,0 l/m 0,6 km/h (0 Bft) W-SW 255 0 min 0,000 mm 0,0 UV-I 0 W/m -2,2 C -1,9 C 3,2 km/h (1 Bft) 96,00 %
08.12.2016 18:28 -2,0 C 98 % 1033,9 hPa 0,0 l/m 0,1 km/h (0 Bft) W-SW 255 0 min 0,000 mm 0,0 UV-I 0 W/m -2,3 C -2,0 C 1,6 km/h (1 Bft) 97,87 %
08.12.2016 18:30 -2,1 C 98 % 1033,8 hPa 0,0 l/m 0,0 km/h (0 Bft) W-SW 255 0 min 0,000 mm 0,0 UV-I 0 W/m -2,4 C -2,1 C 0,0 km/h (0 Bft) 95,74 %
08.12.2016 18:32 -2,1 C 98 % 1033,9 hPa 0,0 l/m 0,0 km/h (0 Bft) W-SW 255 0 min 0,000 mm 0,0 UV-I 0 W/m -2,4 C -2,1 C 0,0 km/h (0 Bft) 97,56 %
08.12.2016 18:34 -2,1 C 98 % 1033,9 hPa 0,0 l/m 0,0 km/h (0 Bft) W-SW 255 0 min 0,000 mm 0,0 UV-I 0 W/m -2,4 C -2,1 C 0,0 km/h (0 Bft) 96,23 %
08.12.2016 18:36 -2,1 C 98 % 1033,9 hPa 0,0 l/m 0,0 km/h (0 Bft) W-SW 255 0 min 0,000 mm 0,0 UV-I 0 W/m -2,4 C -2,1 C 0,0 km/h (0 Bft) 97,87 %
08.12.2016 18:38 -2,1 C 98 % 1033,9 hPa 0,0 l/m 0,0 km/h (0 Bft) W-SW 255 0 min 0,000 mm 0,0 UV-I 0 W/m -2,4 C -2,1 C 0,0 km/h (0 Bft) 100,00 %
08.12.2016 18:40 -2,1 C 98 % 1034,0 hPa 0,0 l/m 0,7 km/h (0 Bft) W-SW 255 0 min 0,000 mm 0,0 UV-I 0 W/m -2,4 C -2,1 C 3,2 km/h (1 Bft) 100,00 %
08.12.2016 18:42 -2,1 C 98 % 1034,0 hPa 0,0 l/m 1,7 km/h (1 Bft) W-SW 255 0 min 0,000 mm 0,0 UV-I 0 W/m -2,4 C -2,1 C 3,2 km/h (1 Bft) 100,00 %
08.12.2016 18:44 -2,1 C 98 % 1034,0 hPa 0,0 l/m 0,8 km/h (0 Bft) W-SW 255 0 min 0,000 mm 0,0 UV-I 0 W/m -2,4 C -2,1 C 3,2 km/h (1 Bft) 98,00 %
08.12.2016 18:46 -2,1 C 98 % 1034,0 hPa 0,0 l/m 1,2 km/h (1 Bft) W-SW 257 0 min 0,000 mm 0,0 UV-I 0 W/m -2,4 C -2,1 C 3,2 km/h (1 Bft) 97,87 %
08.12.2016 18:48 -2,1 C 98 % 1034,0 hPa 0,0 l/m 2,3 km/h (1 Bft) W 268 0 min 0,000 mm 0,0 UV-I 0 W/m -2,4 C -2,1 C 3,2 km/h (1 Bft) 100,00 %
08.12.2016 18:50 -2,1 C 98 % 1034,0 hPa 0,0 l/m 0,5 km/h (0 Bft) W 268 0 min 0,000 mm 0,0 UV-I 0 W/m -2,4 C -2,1 C 1,6 km/h (1 Bft) 100,00 %
08.12.2016 18:52 -2,2 C 98 % 1033,9 hPa 0,0 l/m 0,0 km/h (0 Bft) W 268 0 min 0,000 mm 0,0 UV-I 0 W/m -2,5 C -2,2 C 0,0 km/h (0 Bft) 97,87 %
08.12.2016 18:54 -2,2 C 98 % 1034,0 hPa 0,0 l/m 0,0 km/h (0 Bft) W 268 0 min 0,000 mm 0,0 UV-I 0 W/m -2,5 C -2,2 C 0,0 km/h (0 Bft) 95,74 %
08.12.2016 18:56 -2,2 C 98 % 1034,0 hPa 0,0 l/m 0,4 km/h (0 Bft) W 268 0 min 0,000 mm 0,0 UV-I 0 W/m -2,5 C -2,2 C 3,2 km/h (1 Bft) 100,00 %
08.12.2016 18:58 -2,2 C 98 % 1034,1 hPa 0,0 l/m 0,1 km/h (0 Bft) W 268 0 min 0,000 mm 0,0 UV-I 0 W/m -2,5 C -2,2 C 1,6 km/h (1 Bft) 100,00 %
08.12.2016 19:00 -2,2 C 98 % 1034,2 hPa 0,0 l/m 0,0 km/h (0 Bft) W 268 0 min 0,000 mm 0,0 UV-I 0 W/m -2,5 C -2,2 C 0,0 km/h (0 Bft) 97,87 %
08.12.2016 19:02 -2,2 C 98 % 1034,1 hPa 0,0 l/m 0,0 km/h (0 Bft) W 268 0 min 0,000 mm 0,0 UV-I 0 W/m -2,5 C -2,2 C 0,0 km/h (0 Bft) 100,00 %
08.12.2016 19:04 -2,2 C 98 % 1034,2 hPa 0,0 l/m 1,0 km/h (0 Bft) W 269 0 min 0,000 mm 0,0 UV-I 0 W/m -2,5 C -2,2 C 3,2 km/h (1 Bft) 98,00 %
08.12.2016 19:06 -2,2 C 98 % 1034,3 hPa 0,0 l/m 2,0 km/h (1 Bft) NW 305 0 min 0,000 mm 0,0 UV-I 0 W/m -2,5 C -2,2 C 4,8 km/h (1 Bft) 100,00 %
08.12.2016 19:08 -2,2 C 98 % 1034,3 hPa 0,0 l/m 1,8 km/h (1 Bft) NW 310 0 min 0,000 mm 0,0 UV-I 0 W/m -2,5 C -2,2 C 4,8 km/h (1 Bft) 100,00 %
08.12.2016 19:10 -2,2 C 98 % 1034,3 hPa 0,0 l/m 1,8 km/h (1 Bft) W-NW 300 0 min 0,000 mm 0,0 UV-I 0 W/m -2,5 C -2,2 C 3,2 km/h (1 Bft) 97,56 %
08.12.2016 19:12 -2,2 C 98 % 1034,3 hPa 0,0 l/m 1,0 km/h (0 Bft) W-NW 300 0 min 0,000 mm 0,0 UV-I 0 W/m -2,5 C -2,2 C 3,2 km/h (1 Bft) 100,00 %
08.12.2016 19:14 -2,2 C 98 % 1034,3 hPa 0,0 l/m 0,4 km/h (0 Bft) W-NW 300 0 min 0,000 mm 0,0 UV-I 0 W/m -2,5 C -2,2 C 1,6 km/h (1 Bft) 98,39 %
08.12.2016 19:16 -2,2 C 98 % 1034,3 hPa 0,0 l/m 2,4 km/h (1 Bft) NW 309 0 min 0,000 mm 0,0 UV-I 0 W/m -2,5 C -2,2 C 4,8 km/h (1 Bft) 97,37 %
08.12.2016 19:18 -2,2 C 98 % 1034,2 hPa 0,0 l/m 0,6 km/h (0 Bft) NW 309 0 min 0,000 mm 0,0 UV-I 0 W/m -2,5 C -2,2 C 1,6 km/h (1 Bft) 100,00 %
08.12.2016 19:20 -2,3 C 98 % 1034,2 hPa 0,0 l/m 0,3 km/h (0 Bft) NW 309 0 min 0,000 mm 0,0 UV-I 0 W/m -2,6 C -2,3 C 1,6 km/h (1 Bft) 100,00 %
08.12.2016 19:22 -2,3 C 98 % 1034,1 hPa 0,0 l/m 0,0 km/h (0 Bft) NW 309 0 min 0,000 mm 0,0 UV-I 0 W/m -2,6 C -2,3 C 1,6 km/h (1 Bft) 95,74 %
08.12.2016 19:24 -2,3 C 98 % 1034,1 hPa 0,0 l/m 0,0 km/h (0 Bft) NW 309 0 min 0,000 mm 0,0 UV-I 0 W/m -2,6 C -2,3 C 0,0 km/h (0 Bft) 98,00 %
08.12.2016 19:26 -2,4 C 98 % 1034,1 hPa 0,0 l/m 0,5 km/h (0 Bft) NW 309 0 min 0,000 mm 0,0 UV-I 0 W/m -2,7 C -2,4 C 1,6 km/h (1 Bft) 97,37 %
08.12.2016 19:28 -2,4 C 98 % 1034,1 hPa 0,0 l/m 1,5 km/h (1 Bft) NW 309 0 min 0,000 mm 0,0 UV-I 0 W/m -2,7 C -2,4 C 3,2 km/h (1 Bft) 96,23 %
08.12.2016 19:30 -2,4 C 98 % 1034,1 hPa 0,0 l/m 1,8 km/h (1 Bft) NW 309 0 min 0,000 mm 0,0 UV-I 0 W/m -2,7 C -2,4 C 3,2 km/h (1 Bft) 100,00 %
08.12.2016 19:32 -2,4 C 98 % 1034,1 hPa 0,0 l/m 0,8 km/h (0 Bft) NW 309 0 min 0,000 mm 0,0 UV-I 0 W/m -2,7 C -2,4 C 3,2 km/h (1 Bft) 96,23 %
08.12.2016 19:34 -2,4 C 98 % 1034,1 hPa 0,0 l/m 0,0 km/h (0 Bft) NW 309 0 min 0,000 mm 0,0 UV-I 0 W/m -2,7 C -2,4 C 0,0 km/h (0 Bft) 97,87 %
08.12.2016 19:36 -2,5 C 98 % 1034,1 hPa 0,0 l/m 0,3 km/h (0 Bft) NW 309 0 min 0,000 mm 0,0 UV-I 0 W/m -2,8 C -2,5 C 1,6 km/h (1 Bft) 100,00 %
08.12.2016 19:38 -2,4 C 98 % 1034,1 hPa 0,0 l/m 1,0 km/h (0 Bft) NW 309 0 min 0,000 mm 0,0 UV-I 0 W/m -2,7 C -2,4 C 3,2 km/h (1 Bft) 100,00 %
08.12.2016 19:40 -2,4 C 98 % 1034,1 hPa 0,0 l/m 0,0 km/h (0 Bft) NW 309 0 min 0,000 mm 0,0 UV-I 0 W/m -2,7 C -2,4 C 0,0 km/h (0 Bft) 96,00 %
08.12.2016 19:42 -2,4 C 98 % 1034,1 hPa 0,0 l/m 0,0 km/h (0 Bft) NW 309 0 min 0,000 mm 0,0 UV-I 0 W/m -2,7 C -2,4 C 0,0 km/h (0 Bft) 100,00 %
08.12.2016 19:44 -2,4 C 98 % 1034,1 hPa 0,0 l/m 0,0 km/h (0 Bft) NW 309 0 min 0,000 mm 0,0 UV-I 0 W/m -2,7 C -2,4 C 1,6 km/h (1 Bft) 100,00 %
08.12.2016 19:46 -2,4 C 98 % 1034,0 hPa 0,0 l/m 0,8 km/h (0 Bft) S-SW 200 0 min 0,000 mm 0,0 UV-I 0 W/m -2,7 C -2,4 C 3,2 km/h (1 Bft) 97,37 %
08.12.2016 19:48 -2,4 C 98 % 1034,0 hPa 0,0 l/m 0,6 km/h (0 Bft) S-SW 200 0 min 0,000 mm 0,0 UV-I 0 W/m -2,7 C -2,4 C 1,6 km/h (1 Bft) 100,00 %
08.12.2016 19:50 -2,4 C 98 % 1033,9 hPa 0,0 l/m 0,0 km/h (0 Bft) S-SW 200 0 min 0,000 mm 0,0 UV-I 0 W/m -2,7 C -2,4 C 0,0 km/h (0 Bft) 98,08 %
08.12.2016 19:52 -2,4 C 98 % 1033,9 hPa 0,0 l/m 0,0 km/h (0 Bft) S-SW 200 0 min 0,000 mm 0,0 UV-I 0 W/m -2,7 C -2,4 C 0,0 km/h (0 Bft) 100,00 %
08.12.2016 19:54 -2,4 C 98 % 1033,9 hPa 0,0 l/m 0,0 km/h (0 Bft) S-SW 200 0 min 0,000 mm 0,0 UV-I 0 W/m -2,7 C -2,4 C 0,0 km/h (0 Bft) 100,00 %
08.12.2016 19:56 -2,4 C 98 % 1033,9 hPa 0,0 l/m 1,2 km/h (1 Bft) S-SW 200 0 min 0,000 mm 0,0 UV-I 0 W/m -2,7 C -2,4 C 3,2 km/h (1 Bft) 97,87 %
08.12.2016 19:58 -2,4 C 98 % 1033,9 hPa 0,0 l/m 0,5 km/h (0 Bft) S-SW 200 0 min 0,000 mm 0,0 UV-I 0 W/m -2,7 C -2,4 C 1,6 km/h (1 Bft) 96,23 %
08.12.2016 20:00 -2,4 C 98 % 1033,9 hPa 0,0 l/m 1,1 km/h (1 Bft) S-SW 200 0 min 0,000 mm 0,0 UV-I 0 W/m -2,7 C -2,4 C 3,2 km/h (1 Bft) 100,00 %
08.12.2016 20:02 -2,4 C 98 % 1033,8 hPa 0,0 l/m 0,1 km/h (0 Bft) S-SW 200 0 min 0,000 mm 0,0 UV-I 0 W/m -2,7 C -2,4 C 1,6 km/h (1 Bft) 100,00 %
08.12.2016 20:04 -2,3 C 98 % 1033,7 hPa 0,0 l/m 1,0 km/h (0 Bft) S-SW 200 0 min 0,000 mm 0,0 UV-I 0 W/m -2,6 C -2,3 C 3,2 km/h (1 Bft) 100,00 %
08.12.2016 20:06 -2,4 C 98 % 1033,8 hPa 0,0 l/m 1,4 km/h (1 Bft) S-SW 201 0 min 0,000 mm 0,0 UV-I 0 W/m -2,7 C -2,4 C 4,8 km/h (1 Bft) 100,00 %
08.12.2016 20:08 -2,4 C 98 % 1033,9 hPa 0,0 l/m 2,6 km/h (1 Bft) S-SW 202 0 min 0,000 mm 0,0 UV-I 0 W/m -2,7 C -2,4 C 4,8 km/h (1 Bft) 97,96 %
08.12.2016 20:10 -2,4 C 98 % 1033,9 hPa 0,0 l/m 0,5 km/h (0 Bft) S-SW 202 0 min 0,000 mm 0,0 UV-I 0 W/m -2,7 C -2,4 C 3,2 km/h (1 Bft) 97,14 %
08.12.2016 20:12 -2,4 C 98 % 1033,9 hPa 0,0 l/m 0,8 km/h (0 Bft) S-SW 202 0 min 0,000 mm 0,0 UV-I 0 W/m -2,7 C -2,4 C 1,6 km/h (1 Bft) 98,25 %
08.12.2016 20:14 -2,4 C 98 % 1033,9 hPa 0,0 l/m 1,0 km/h (0 Bft) S-SW 202 0 min 0,000 mm 0,0 UV-I 0 W/m -2,7 C -2,4 C 3,2 km/h (1 Bft) 97,37 %
08.12.2016 20:16 -2,4 C 98 % 1033,9 hPa 0,0 l/m 0,6 km/h (0 Bft) S-SW 202 0 min 0,000 mm 0,0 UV-I 0 W/m -2,7 C -2,4 C 1,6 km/h (1 Bft) 98,21 %
08.12.2016 20:18 -2,5 C 98 % 1034,0 hPa 0,0 l/m 0,1 km/h (0 Bft) S-SW 202 0 min 0,000 mm 0,0 UV-I 0 W/m -2,8 C -2,5 C 1,6 km/h (1 Bft) 96,00 %
08.12.2016 20:20 -2,4 C 98 % 1034,0 hPa 0,0 l/m 1,2 km/h (1 Bft) S-SW 202 0 min 0,000 mm 0,0 UV-I 0 W/m -2,7 C -2,4 C 3,2 km/h (1 Bft) 97,56 %
08.12.2016 20:22 -2,4 C 98 % 1033,9 hPa 0,0 l/m 0,4 km/h (0 Bft) S-SW 202 0 min 0,000 mm 0,0 UV-I 0 W/m -2,7 C -2,4 C 3,2 km/h (1 Bft) 98,00 %
08.12.2016 20:24 -2,5 C 98 % 1033,9 hPa 0,0 l/m 2,1 km/h (1 Bft) W 267 0 min 0,000 mm 0,0 UV-I 0 W/m -2,8 C -2,5 C 4,8 km/h (1 Bft) 98,00 %
08.12.2016 20:26 -2,5 C 98 % 1033,9 hPa 0,0 l/m 3,9 km/h (1 Bft) W 271 0 min 0,000 mm 0,0 UV-I 0 W/m -2,8 C -2,5 C 6,4 km/h (2 Bft) 97,44 %
08.12.2016 20:28 -2,5 C 98 % 1033,9 hPa 0,0 l/m 2,9 km/h (1 Bft) W 271 0 min 0,000 mm 0,0 UV-I 0 W/m -2,8 C -2,5 C 4,8 km/h (1 Bft) 98,00 %
08.12.2016 20:30 -2,6 C 97 % 1033,9 hPa 0,0 l/m 2,0 km/h (1 Bft) W 273 0 min 0,000 mm 0,0 UV-I 0 W/m -3,0 C -2,6 C 4,8 km/h (1 Bft) 97,73 %
08.12.2016 20:32 -2,6 C 98 % 1034,1 hPa 0,0 l/m 2,0 km/h (1 Bft) W 273 0 min 0,000 mm 0,0 UV-I 0 W/m -2,9 C -2,6 C 4,8 km/h (1 Bft) 96,23 %
08.12.2016 20:34 -2,5 C 98 % 1034,1 hPa 0,0 l/m 2,6 km/h (1 Bft) W 273 0 min 0,000 mm 0,0 UV-I 0 W/m -2,8 C -2,5 C 6,4 km/h (2 Bft) 93,62 %
08.12.2016 20:36 -2,5 C 98 % 1034,2 hPa 0,0 l/m 2,4 km/h (1 Bft) W 277 0 min 0,000 mm 0,0 UV-I 0 W/m -2,8 C -2,5 C 6,4 km/h (2 Bft) 97,87 %
08.12.2016 20:38 -2,5 C 98 % 1034,1 hPa 0,0 l/m 0,8 km/h (0 Bft) W 277 0 min 0,000 mm 0,0 UV-I 0 W/m -2,8 C -2,5 C 3,2 km/h (1 Bft) 95,45 %
08.12.2016 20:40 -2,4 C 98 % 1034,1 hPa 0,0 l/m 2,3 km/h (1 Bft) W 277 0 min 0,000 mm 0,0 UV-I 0 W/m -2,7 C -2,4 C 4,8 km/h (1 Bft) 97,87 %
08.12.2016 20:42 -2,4 C 98 % 1034,1 hPa 0,0 l/m 3,1 km/h (1 Bft) W 277 0 min 0,000 mm 0,0 UV-I 0 W/m -2,7 C -2,4 C 4,8 km/h (1 Bft) 98,00 %
08.12.2016 20:44 -2,4 C 98 % 1034,2 hPa 0,0 l/m 4,3 km/h (1 Bft) W-NW 289 0 min 0,000 mm 0,0 UV-I 0 W/m -2,7 C -2,4 C 6,4 km/h (2 Bft) 100,00 %
08.12.2016 20:46 -2,3 C 98 % 1034,2 hPa 0,0 l/m 0,8 km/h (0 Bft) W-NW 289 0 min 0,000 mm 0,0 UV-I 0 W/m -2,6 C -2,3 C 3,2 km/h (1 Bft) 98,00 %
08.12.2016 20:48 -2,3 C 98 % 1034,3 hPa 0,0 l/m 3,7 km/h (1 Bft) W 263 0 min 0,000 mm 0,0 UV-I 0 W/m -2,6 C -2,3 C 6,4 km/h (2 Bft) 100,00 %
08.12.2016 20:50 -2,3 C 98 % 1034,2 hPa 0,0 l/m 4,5 km/h (1 Bft) W-SW 257 0 min 0,000 mm 0,0 UV-I 0 W/m -2,6 C -2,3 C 6,4 km/h (2 Bft) 100,00 %
08.12.2016 20:52 -2,3 C 98 % 1034,2 hPa 0,0 l/m 3,1 km/h (1 Bft) W-SW 257 0 min 0,000 mm 0,0 UV-I 0 W/m -2,6 C -2,3 C 4,8 km/h (1 Bft) 100,00 %
08.12.2016 20:54 -2,2 C 98 % 1034,3 hPa 0,0 l/m 3,7 km/h (1 Bft) W 260 0 min 0,000 mm 0,0 UV-I 0 W/m -2,5 C -2,2 C 4,8 km/h (1 Bft) 98,00 %
08.12.2016 20:56 -2,2 C 98 % 1034,3 hPa 0,0 l/m 3,6 km/h (1 Bft) W 263 0 min 0,000 mm 0,0 UV-I 0 W/m -2,5 C -2,2 C 6,4 km/h (2 Bft) 100,00 %
08.12.2016 20:58 -2,2 C 98 % 1034,2 hPa 0,0 l/m 2,4 km/h (1 Bft) W 262 0 min 0,000 mm 0,0 UV-I 0 W/m -2,5 C -2,2 C 4,8 km/h (1 Bft) 100,00 %
08.12.2016 21:00 -2,2 C 98 % 1034,2 hPa 0,0 l/m 2,2 km/h (1 Bft) W 263 0 min 0,000 mm 0,0 UV-I 0 W/m -2,5 C -2,2 C 3,2 km/h (1 Bft) 100,00 %
08.12.2016 21:02 -2,2 C 98 % 1034,2 hPa 0,0 l/m 3,2 km/h (1 Bft) W 265 0 min 0,000 mm 0,0 UV-I 0 W/m -2,5 C -2,2 C 4,8 km/h (1 Bft) 100,00 %
08.12.2016 21:04 -2,2 C 98 % 1034,2 hPa 0,0 l/m 4,7 km/h (1 Bft) SW 227 0 min 0,000 mm 0,0 UV-I 0 W/m -2,5 C -2,2 C 6,4 km/h (2 Bft) 100,00 %
08.12.2016 21:06 -2,2 C 98 % 1034,3 hPa 0,0 l/m 5,0 km/h (1 Bft) W-SW 252 0 min 0,000 mm 0,0 UV-I 0 W/m -2,5 C -2,2 C 11,3 km/h (2 Bft) 97,73 %
08.12.2016 21:08 -2,3 C 98 % 1034,2 hPa 0,0 l/m 4,5 km/h (1 Bft) SW 225 0 min 0,000 mm 0,0 UV-I 0 W/m -2,6 C -2,3 C 6,4 km/h (2 Bft) 100,00 %
08.12.2016 21:10 -2,3 C 98 % 1034,3 hPa 0,0 l/m 5,3 km/h (1 Bft) W-SW 244 0 min 0,000 mm 0,0 UV-I 0 W/m -2,6 C -2,3 C 8,0 km/h (2 Bft) 100,00 %
08.12.2016 21:13 -2,3 C 98 % 1034,2 hPa 0,0 l/m 4,4 km/h (1 Bft) S-SW 202 0 min 0,000 mm 0,0 UV-I 0 W/m -2,6 C -2,3 C 8,0 km/h (2 Bft) 100,00 %
08.12.2016 21:14 -2,3 C 98 % 1034,2 hPa 0,0 l/m 6,8 km/h (2 Bft) SW 217 0 min 0,000 mm 0,0 UV-I 0 W/m -2,6 C -2,7 C 8,0 km/h (2 Bft) 100,00 %
08.12.2016 21:16 -2,4 C 98 % 1034,1 hPa 0,0 l/m 5,8 km/h (2 Bft) S-SW 206 0 min 0,000 mm 0,0 UV-I 0 W/m -2,7 C -2,4 C 8,0 km/h (2 Bft) 100,00 %
08.12.2016 21:18 -2,4 C 98 % 1034,0 hPa 0,0 l/m 5,4 km/h (1 Bft) S-SW 212 0 min 0,000 mm 0,0 UV-I 0 W/m -2,7 C -2,4 C 9,7 km/h (2 Bft) 100,00 %
08.12.2016 21:20 -2,4 C 98 % 1034,0 hPa 0,0 l/m 5,7 km/h (1 Bft) S-SW 210 0 min 0,000 mm 0,0 UV-I 0 W/m -2,7 C -2,4 C 9,7 km/h (2 Bft) 100,00 %
08.12.2016 21:22 -2,4 C 98 % 1033,9 hPa 0,0 l/m 4,8 km/h (1 Bft) S-SW 213 0 min 0,000 mm 0,0 UV-I 0 W/m -2,7 C -2,4 C 8,0 km/h (2 Bft) 100,00 %
08.12.2016 21:24 -2,4 C 98 % 1033,9 hPa 0,0 l/m 4,2 km/h (1 Bft) S-SO 165 0 min 0,000 mm 0,0 UV-I 0 W/m -2,7 C -2,4 C 8,0 km/h (2 Bft) 100,00 %
08.12.2016 21:26 -2,5 C 98 % 1033,8 hPa 0,0 l/m 6,0 km/h (2 Bft) S 186 0 min 0,000 mm 0,0 UV-I 0 W/m -2,8 C -2,5 C 9,7 km/h (2 Bft) 100,00 %
08.12.2016 21:28 -2,5 C 98 % 1033,8 hPa 0,0 l/m 7,1 km/h (2 Bft) S-SW 207 0 min 0,000 mm 0,0 UV-I 0 W/m -2,8 C -3,3 C 11,3 km/h (2 Bft) 100,00 %
08.12.2016 21:30 -2,5 C 98 % 1033,8 hPa 0,0 l/m 5,5 km/h (1 Bft) S-SW 211 0 min 0,000 mm 0,0 UV-I 0 W/m -2,8 C -2,5 C 9,7 km/h (2 Bft) 100,00 %
08.12.2016 21:32 -2,5 C 98 % 1033,8 hPa 0,0 l/m 5,7 km/h (1 Bft) S-SW 202 0 min 0,000 mm 0,0 UV-I 0 W/m -2,8 C -2,5 C 9,7 km/h (2 Bft) 100,00 %
08.12.2016 21:34 -2,5 C 98 % 1033,9 hPa 0,0 l/m 4,8 km/h (1 Bft) S-SW 202 0 min 0,000 mm 0,0 UV-I 0 W/m -2,8 C -2,5 C 8,0 km/h (2 Bft) 100,00 %
08.12.2016 21:36 -2,5 C 98 % 1033,9 hPa 0,0 l/m 3,1 km/h (1 Bft) S 187 0 min 0,000 mm 0,0 UV-I 0 W/m -2,8 C -2,5 C 6,4 km/h (2 Bft) 100,00 %
08.12.2016 21:38 -2,4 C 98 % 1033,8 hPa 0,0 l/m 3,7 km/h (1 Bft) S-SW 194 0 min 0,000 mm 0,0 UV-I 0 W/m -2,7 C -2,4 C 6,4 km/h (2 Bft) 100,00 %
08.12.2016 21:40 -2,4 C 98 % 1033,9 hPa 0,0 l/m 4,6 km/h (1 Bft) S 186 0 min 0,000 mm 0,0 UV-I 0 W/m -2,7 C -2,4 C 9,7 km/h (2 Bft) 100,00 %
08.12.2016 21:42 -2,3 C 98 % 1033,9 hPa 0,0 l/m 3,8 km/h (1 Bft) S-SW 192 0 min 0,000 mm 0,0 UV-I 0 W/m -2,6 C -2,3 C 8,0 km/h (2 Bft) 100,00 %
08.12.2016 21:44 -2,3 C 98 % 1033,8 hPa 0,0 l/m 4,1 km/h (1 Bft) S-SW 193 0 min 0,000 mm 0,0 UV-I 0 W/m -2,6 C -2,3 C 8,0 km/h (2 Bft) 98,11 %
08.12.2016 21:46 -2,3 C 98 % 1033,8 hPa 0,0 l/m 2,6 km/h (1 Bft) S 190 0 min 0,000 mm 0,0 UV-I 0 W/m -2,6 C -2,3 C 6,4 km/h (2 Bft) 97,87 %
08.12.2016 21:48 -2,3 C 98 % 1033,8 hPa 0,0 l/m 3,2 km/h (1 Bft) S 190 0 min 0,000 mm 0,0 UV-I 0 W/m -2,6 C -2,3 C 4,8 km/h (1 Bft) 100,00 %
08.12.2016 21:50 -2,3 C 98 % 1033,7 hPa 0,0 l/m 2,6 km/h (1 Bft) S 169 0 min 0,000 mm 0,0 UV-I 0 W/m -2,6 C -2,3 C 4,8 km/h (1 Bft) 100,00 %
08.12.2016 21:52 -2,3 C 98 % 1033,8 hPa 0,0 l/m 2,3 km/h (1 Bft) S 186 0 min 0,000 mm 0,0 UV-I 0 W/m -2,6 C -2,3 C 3,2 km/h (1 Bft) 98,11 %
08.12.2016 21:54 -2,2 C 98 % 1033,8 hPa 0,0 l/m 3,2 km/h (1 Bft) S 184 0 min 0,000 mm 0,0 UV-I 0 W/m -2,5 C -2,2 C 4,8 km/h (1 Bft) 100,00 %
08.12.2016 21:56 -2,2 C 98 % 1033,7 hPa 0,0 l/m 4,0 km/h (1 Bft) S-SW 198 0 min 0,000 mm 0,0 UV-I 0 W/m -2,5 C -2,2 C 8,0 km/h (2 Bft) 100,00 %
08.12.2016 21:58 -2,2 C 98 % 1033,7 hPa 0,0 l/m 1,9 km/h (1 Bft) S-SW 202 0 min 0,000 mm 0,0 UV-I 0 W/m -2,5 C -2,2 C 6,4 km/h (2 Bft) 100,00 %
08.12.2016 22:00 -2,2 C 98 % 1033,8 hPa 0,0 l/m 1,2 km/h (1 Bft) S-SW 202 0 min 0,000 mm 0,0 UV-I 0 W/m -2,5 C -2,2 C 3,2 km/h (1 Bft) 97,56 %
08.12.2016 22:03 -2,2 C 98 % 1033,8 hPa 0,0 l/m 2,1 km/h (1 Bft) SW 229 0 min 0,000 mm 0,0 UV-I 0 W/m -2,5 C -2,2 C 4,8 km/h (1 Bft) 100,00 %
08.12.2016 22:04 -2,2 C 98 % 1033,8 hPa 0,0 l/m 3,1 km/h (1 Bft) SW 229 0 min 0,000 mm 0,0 UV-I 0 W/m -2,5 C -2,2 C 4,8 km/h (1 Bft) 100,00 %
08.12.2016 22:06 -2,2 C 98 % 1033,7 hPa 0,0 l/m 2,3 km/h (1 Bft) SW 231 0 min 0,000 mm 0,0 UV-I 0 W/m -2,5 C -2,2 C 3,2 km/h (1 Bft) 97,37 %
08.12.2016 22:08 -2,2 C 98 % 1033,8 hPa 0,0 l/m 0,9 km/h (0 Bft) SW 231 0 min 0,000 mm 0,0 UV-I 0 W/m -2,5 C -2,2 C 3,2 km/h (1 Bft) 100,00 %
08.12.2016 22:10 -2,2 C 98 % 1033,8 hPa 0,0 l/m 2,5 km/h (1 Bft) SW 231 0 min 0,000 mm 0,0 UV-I 0 W/m -2,5 C -2,2 C 3,2 km/h (1 Bft) 100,00 %
08.12.2016 22:12 -2,2 C 98 % 1033,8 hPa 0,0 l/m 2,5 km/h (1 Bft) SW 231 0 min 0,000 mm 0,0 UV-I 0 W/m -2,5 C -2,2 C 4,8 km/h (1 Bft) 96,00 %
08.12.2016 22:14 -2,2 C 98 % 1033,8 hPa 0,0 l/m 2,5 km/h (1 Bft) SW 231 0 min 0,000 mm 0,0 UV-I 0 W/m -2,5 C -2,2 C 3,2 km/h (1 Bft) 97,37 %
08.12.2016 22:16 -2,2 C 98 % 1033,8 hPa 0,0 l/m 1,6 km/h (1 Bft) SW 231 0 min 0,000 mm 0,0 UV-I 0 W/m -2,5 C -2,2 C 3,2 km/h (1 Bft) 94,34 %
08.12.2016 22:18 -2,2 C 98 % 1033,8 hPa 0,0 l/m 2,0 km/h (1 Bft) SW 232 0 min 0,000 mm 0,0 UV-I 0 W/m -2,5 C -2,2 C 3,2 km/h (1 Bft) 93,62 %
08.12.2016 22:20 -2,2 C 98 % 1033,8 hPa 0,0 l/m 2,1 km/h (1 Bft) SW 232 0 min 0,000 mm 0,0 UV-I 0 W/m -2,5 C -2,2 C 3,2 km/h (1 Bft) 95,74 %
08.12.2016 22:22 -2,2 C 98 % 1033,8 hPa 0,0 l/m 2,7 km/h (1 Bft) SW 234 0 min 0,000 mm 0,0 UV-I 0 W/m -2,5 C -2,2 C 4,8 km/h (1 Bft) 97,87 %
08.12.2016 22:24 -2,2 C 98 % 1033,9 hPa 0,0 l/m 2,5 km/h (1 Bft) SW 234 0 min 0,000 mm 0,0 UV-I 0 W/m -2,5 C -2,2 C 4,8 km/h (1 Bft) 100,00 %
08.12.2016 22:26 -2,2 C 98 % 1033,8 hPa 0,0 l/m 2,1 km/h (1 Bft) SW 234 0 min 0,000 mm 0,0 UV-I 0 W/m -2,5 C -2,2 C 3,2 km/h (1 Bft) 97,06 %
08.12.2016 22:28 -2,2 C 98 % 1033,9 hPa 0,0 l/m 1,4 km/h (1 Bft) SW 234 0 min 0,000 mm 0,0 UV-I 0 W/m -2,5 C -2,2 C 3,2 km/h (1 Bft) 98,00 %
08.12.2016 22:30 -2,3 C 98 % 1034,0 hPa 0,0 l/m 0,4 km/h (0 Bft) SW 234 0 min 0,000 mm 0,0 UV-I 0 W/m -2,6 C -2,3 C 1,6 km/h (1 Bft) 94,29 %
08.12.2016 22:32 -2,3 C 98 % 1034,0 hPa 0,0 l/m 1,5 km/h (1 Bft) SW 234 0 min 0,000 mm 0,0 UV-I 0 W/m -2,6 C -2,3 C 4,8 km/h (1 Bft) 96,43 %
08.12.2016 22:34 -2,3 C 98 % 1034,0 hPa 0,0 l/m 1,7 km/h (1 Bft) SW 234 0 min 0,000 mm 0,0 UV-I 0 W/m -2,6 C -2,3 C 3,2 km/h (1 Bft) 97,87 %
08.12.2016 22:36 -2,3 C 98 % 1033,9 hPa 0,0 l/m 0,0 km/h (0 Bft) SW 234 0 min 0,000 mm 0,0 UV-I 0 W/m -2,6 C -2,3 C 0,0 km/h (0 Bft) 93,62 %
08.12.2016 22:38 -2,3 C 98 % 1033,9 hPa 0,0 l/m 1,6 km/h (1 Bft) SW 234 0 min 0,000 mm 0,0 UV-I 0 W/m -2,6 C -2,3 C 3,2 km/h (1 Bft) 100,00 %
08.12.2016 22:40 -2,3 C 98 % 1033,9 hPa 0,0 l/m 1,4 km/h (1 Bft) SW 234 0 min 0,000 mm 0,0 UV-I 0 W/m -2,6 C -2,3 C 3,2 km/h (1 Bft) 96,23 %
08.12.2016 22:42 -2,3 C 98 % 1033,9 hPa 0,0 l/m 1,4 km/h (1 Bft) SW 234 0 min 0,000 mm 0,0 UV-I 0 W/m -2,6 C -2,3 C 3,2 km/h (1 Bft) 95,12 %
08.12.2016 22:44 -2,3 C 98 % 1033,9 hPa 0,0 l/m 0,4 km/h (0 Bft) SW 234 0 min 0,000 mm 0,0 UV-I 0 W/m -2,6 C -2,3 C 1,6 km/h (1 Bft) 96,23 %
08.12.2016 22:46 -2,3 C 98 % 1033,8 hPa 0,0 l/m 1,0 km/h (0 Bft) SW 234 0 min 0,000 mm 0,0 UV-I 0 W/m -2,6 C -2,3 C 3,2 km/h (1 Bft) 100,00 %
08.12.2016 22:48 -2,3 C 98 % 1033,8 hPa 0,0 l/m 0,1 km/h (0 Bft) SW 234 0 min 0,000 mm 0,0 UV-I 0 W/m -2,6 C -2,3 C 1,6 km/h (1 Bft) 100,00 %
08.12.2016 22:50 -2,4 C 98 % 1033,9 hPa 0,0 l/m 0,4 km/h (0 Bft) SW 234 0 min 0,000 mm 0,0 UV-I 0 W/m -2,7 C -2,4 C 1,6 km/h (1 Bft) 100,00 %
08.12.2016 22:52 -2,4 C 98 % 1033,9 hPa 0,0 l/m 0,5 km/h (0 Bft) SW 234 0 min 0,000 mm 0,0 UV-I 0 W/m -2,7 C -2,4 C 1,6 km/h (1 Bft) 100,00 %
08.12.2016 22:54 -2,4 C 98 % 1033,9 hPa 0,0 l/m 1,2 km/h (1 Bft) SW 234 0 min 0,000 mm 0,0 UV-I 0 W/m -2,7 C -2,4 C 3,2 km/h (1 Bft) 100,00 %
08.12.2016 22:56 -2,4 C 98 % 1033,8 hPa 0,0 l/m 0,0 km/h (0 Bft) SW 234 0 min 0,000 mm 0,0 UV-I 0 W/m -2,7 C -2,4 C 0,0 km/h (0 Bft) 97,87 %
08.12.2016 22:58 -2,5 C 98 % 1033,9 hPa 0,0 l/m 0,1 km/h (0 Bft) SW 234 0 min 0,000 mm 0,0 UV-I 0 W/m -2,8 C -2,5 C 1,6 km/h (1 Bft) 100,00 %
08.12.2016 23:00 -2,5 C 98 % 1033,9 hPa 0,0 l/m 0,1 km/h (0 Bft) SW 234 0 min 0,000 mm 0,0 UV-I 0 W/m -2,8 C -2,5 C 1,6 km/h (1 Bft) 98,00 %
08.12.2016 23:02 -2,5 C 98 % 1033,9 hPa 0,0 l/m 1,0 km/h (0 Bft) SW 234 0 min 0,000 mm 0,0 UV-I 0 W/m -2,8 C -2,5 C 3,2 km/h (1 Bft) 100,00 %
08.12.2016 23:04 -2,4 C 98 % 1033,9 hPa 0,0 l/m 1,9 km/h (1 Bft) SW 234 0 min 0,000 mm 0,0 UV-I 0 W/m -2,7 C -2,4 C 3,2 km/h (1 Bft) 100,00 %
08.12.2016 23:06 -2,4 C 98 % 1033,9 hPa 0,0 l/m 2,5 km/h (1 Bft) W-SW 243 0 min 0,000 mm 0,0 UV-I 0 W/m -2,7 C -2,4 C 4,8 km/h (1 Bft) 100,00 %
08.12.2016 23:08 -2,4 C 98 % 1034,0 hPa 0,0 l/m 0,6 km/h (0 Bft) W-SW 243 0 min 0,000 mm 0,0 UV-I 0 W/m -2,7 C -2,4 C 1,6 km/h (1 Bft) 100,00 %
08.12.2016 23:10 -2,5 C 98 % 1033,9 hPa 0,0 l/m 0,1 km/h (0 Bft) W-SW 243 0 min 0,000 mm 0,0 UV-I 0 W/m -2,8 C -2,5 C 1,6 km/h (1 Bft) 100,00 %
08.12.2016 23:12 -2,5 C 98 % 1034,0 hPa 0,0 l/m 1,2 km/h (1 Bft) W-SW 243 0 min 0,000 mm 0,0 UV-I 0 W/m -2,8 C -2,5 C 3,2 km/h (1 Bft) 96,23 %
08.12.2016 23:14 -2,5 C 98 % 1034,0 hPa 0,0 l/m 0,9 km/h (0 Bft) W-SW 243 0 min 0,000 mm 0,0 UV-I 0 W/m -2,8 C -2,5 C 3,2 km/h (1 Bft) 100,00 %
08.12.2016 23:16 -2,5 C 98 % 1033,9 hPa 0,0 l/m 0,0 km/h (0 Bft) W-SW 243 0 min 0,000 mm 0,0 UV-I 0 W/m -2,8 C -2,5 C 0,0 km/h (0 Bft) 100,00 %
08.12.2016 23:18 -2,6 C 98 % 1033,9 hPa 0,0 l/m 1,5 km/h (1 Bft) W-SW 243 0 min 0,000 mm 0,0 UV-I 0 W/m -2,9 C -2,6 C 3,2 km/h (1 Bft) 100,00 %
08.12.2016 23:20 -2,6 C 98 % 1033,9 hPa 0,0 l/m 0,4 km/h (0 Bft) W-SW 243 0 min 0,000 mm 0,0 UV-I 0 W/m -2,9 C -2,6 C 1,6 km/h (1 Bft) 100,00 %
08.12.2016 23:22 -2,6 C 98 % 1033,8 hPa 0,0 l/m 1,0 km/h (0 Bft) W-SW 243 0 min 0,000 mm 0,0 UV-I 0 W/m -2,9 C -2,6 C 3,2 km/h (1 Bft) 100,00 %
08.12.2016 23:24 -2,6 C 97 % 1033,8 hPa 0,0 l/m 1,6 km/h (1 Bft) W-SW 243 0 min 0,000 mm 0,0 UV-I 0 W/m -3,0 C -2,6 C 3,2 km/h (1 Bft) 100,00 %
08.12.2016 23:26 -2,6 C 97 % 1033,8 hPa 0,0 l/m 1,1 km/h (1 Bft) W-SW 243 0 min 0,000 mm 0,0 UV-I 0 W/m -3,0 C -2,6 C 1,6 km/h (1 Bft) 100,00 %
08.12.2016 23:28 -2,6 C 97 % 1033,8 hPa 0,0 l/m 1,4 km/h (1 Bft) W-SW 243 0 min 0,000 mm 0,0 UV-I 0 W/m -3,0 C -2,6 C 1,6 km/h (1 Bft) 100,00 %
08.12.2016 23:30 -2,6 C 98 % 1033,8 hPa 0,0 l/m 0,4 km/h (0 Bft) W-SW 243 0 min 0,000 mm 0,0 UV-I 0 W/m -2,9 C -2,6 C 1,6 km/h (1 Bft) 100,00 %
08.12.2016 23:32 -2,6 C 97 % 1033,7 hPa 0,0 l/m 0,0 km/h (0 Bft) W-SW 243 0 min 0,000 mm 0,0 UV-I 0 W/m -3,0 C -2,6 C 1,6 km/h (1 Bft) 100,00 %
08.12.2016 23:34 -2,6 C 98 % 1033,6 hPa 0,0 l/m 0,8 km/h (0 Bft) W-SW 239 0 min 0,000 mm 0,0 UV-I 0 W/m -2,9 C -2,6 C 1,6 km/h (1 Bft) 95,74 %
08.12.2016 23:36 -2,6 C 98 % 1033,6 hPa 0,0 l/m 0,3 km/h (0 Bft) W-SW 238 0 min 0,000 mm 0,0 UV-I 0 W/m -2,9 C -2,6 C 3,2 km/h (1 Bft) 100,00 %
08.12.2016 23:38 -2,6 C 98 % 1033,7 hPa 0,0 l/m 0,1 km/h (0 Bft) W-SW 238 0 min 0,000 mm 0,0 UV-I 0 W/m -2,9 C -2,6 C 1,6 km/h (1 Bft) 98,00 %
08.12.2016 23:40 -2,6 C 98 % 1033,6 hPa 0,0 l/m 0,2 km/h (0 Bft) W-SW 238 0 min 0,000 mm 0,0 UV-I 0 W/m -2,9 C -2,6 C 1,6 km/h (1 Bft) 100,00 %
08.12.2016 23:42 -2,6 C 98 % 1033,7 hPa 0,0 l/m 1,1 km/h (1 Bft) W-SW 238 0 min 0,000 mm 0,0 UV-I 0 W/m -2,9 C -2,6 C 3,2 km/h (1 Bft) 100,00 %
08.12.2016 23:44 -2,6 C 98 % 1033,7 hPa 0,0 l/m 1,8 km/h (1 Bft) W-SW 238 0 min 0,000 mm 0,0 UV-I 0 W/m -2,9 C -2,6 C 3,2 km/h (1 Bft) 100,00 %
08.12.2016 23:46 -2,5 C 98 % 1033,7 hPa 0,0 l/m 0,0 km/h (0 Bft) W-SW 238 0 min 0,000 mm 0,0 UV-I 0 W/m -2,8 C -2,5 C 0,0 km/h (0 Bft) 100,00 %
08.12.2016 23:48 -2,5 C 98 % 1033,7 hPa 0,0 l/m 0,0 km/h (0 Bft) W-SW 238 0 min 0,000 mm 0,0 UV-I 0 W/m -2,8 C -2,5 C 0,0 km/h (0 Bft) 100,00 %
08.12.2016 23:50 -2,5 C 98 % 1033,7 hPa 0,0 l/m 1,1 km/h (1 Bft) W-SW 238 0 min 0,000 mm 0,0 UV-I 0 W/m -2,8 C -2,5 C 3,2 km/h (1 Bft) 100,00 %
08.12.2016 23:52 -2,5 C 98 % 1033,6 hPa 0,0 l/m 0,2 km/h (0 Bft) W-SW 238 0 min 0,000 mm 0,0 UV-I 0 W/m -2,8 C -2,5 C 1,6 km/h (1 Bft) 97,73 %
08.12.2016 23:54 -2,5 C 98 % 1033,6 hPa 0,0 l/m 0,0 km/h (0 Bft) W-SW 238 0 min 0,000 mm 0,0 UV-I 0 W/m -2,8 C -2,5 C 0,0 km/h (0 Bft) 98,00 %
08.12.2016 23:56 -2,5 C 98 % 1033,6 hPa 0,0 l/m 0,0 km/h (0 Bft) W-SW 238 0 min 0,000 mm 0,0 UV-I 0 W/m -2,8 C -2,5 C 0,0 km/h (0 Bft) 100,00 %
08.12.2016 23:58 -2,4 C 98 % 1033,5 hPa 0,0 l/m 0,5 km/h (0 Bft) W-SW 238 0 min 0,000 mm 0,0 UV-I 0 W/m -2,7 C -2,4 C 3,2 km/h (1 Bft) 100,00 %
_ Min-Zeit 07:08 00:12 23:58 - 00:14 - - - - - - 07:46 21:28 00:14 10:12
Minimum _ -3,1 C 97 % 1033,5 hPa - 0,0 km/h (0 Bft) - - - - - - -3,5 C -3,3 C 0,0 km/h (0 Bft) 92,00 %
_ Max-Zeit 14:34 00:00 00:02 00:00 21:28 - - 13:04 13:02 12:02 13:04 14:34 14:34 02:44 00:10
Maximum _ -1,2 C 98 % 1037,6 hPa 0,0 l/m 7,1 km/h
S-SW (2 Bft)
- - 2 min 0,051 mm 0,4 UV-I 231 W/m -1,5 C -1,2 C 11,3 km/h
W-SW (2 Bft)
100,00 %
Durchschnitt _ -2,3 C 98 % 1035,7 hPa #0,0 l/m 1,7 km/h (1 Bft) SW - #26 min. #0,203 mm 0,3 UV-I 77 W/m -2,6 C -2,3 C 3,5 km/h (1 Bft) 98,65 %